Wetterdaten: Donnerstag, 27.03.2025
Datum Zeit Temp. I. Temp. A. Feuchte I. Feuchte A. Luftdruck Regen Wind Richtung Richtung Sonnenschein Solar Taupunkt Windchill Windböen
27.03.2025 00:00 21,5 °C 6,3 °C 47 % 88 % 1022,8 hPa 0,0 l/m² 8,1 km/h (2 Bft) W 266 ° 0 min 0 W/m² 4,5 °C 4,9 °C 12,9 km/h (3 Bft)
27.03.2025 00:02 21,4 °C 6,3 °C 47 % 88 % 1022,8 hPa 0,0 l/m² 10,0 km/h (2 Bft) N-NW 336 ° 0 min 0 W/m² 4,5 °C 3,5 °C 17,7 km/h (3 Bft)
27.03.2025 00:03 21,4 °C 6,3 °C 47 % 88 % 1022,8 hPa 0,0 l/m² 7,6 km/h (2 Bft) W-NW 284 ° 0 min 0 W/m² 4,5 °C 5,3 °C 11,3 km/h (2 Bft)
27.03.2025 00:05 21,4 °C 6,3 °C 47 % 88 % 1022,8 hPa 0,0 l/m² 10,5 km/h (2 Bft) W-NW 294 ° 0 min 0 W/m² 4,5 °C 3,2 °C 16,1 km/h (3 Bft)
27.03.2025 00:06 21,4 °C 6,3 °C 47 % 88 % 1022,8 hPa 0,0 l/m² 9,3 km/h (2 Bft) NW 308 ° 0 min 0 W/m² 4,5 °C 4,0 °C 14,5 km/h (3 Bft)
27.03.2025 00:08 21,5 °C 6,3 °C 47 % 88 % 1022,8 hPa 0,0 l/m² 9,3 km/h (2 Bft) NW 325 ° 0 min 0 W/m² 4,5 °C 4,0 °C 14,5 km/h (3 Bft)
27.03.2025 00:10 21,5 °C 6,3 °C 47 % 88 % 1022,7 hPa 0,0 l/m² 10,1 km/h (2 Bft) W 265 ° 0 min 0 W/m² 4,5 °C 3,4 °C 16,1 km/h (3 Bft)
27.03.2025 00:11 21,4 °C 6,3 °C 47 % 88 % 1022,8 hPa 0,0 l/m² 8,1 km/h (2 Bft) W 280 ° 0 min 0 W/m² 4,5 °C 4,9 °C 14,5 km/h (3 Bft)
27.03.2025 00:13 21,5 °C 6,3 °C 47 % 88 % 1022,8 hPa 0,0 l/m² 7,2 km/h (2 Bft) W 270 ° 0 min 0 W/m² 4,5 °C 5,6 °C 11,3 km/h (2 Bft)
27.03.2025 00:14 21,4 °C 6,3 °C 47 % 88 % 1022,8 hPa 0,0 l/m² 6,8 km/h (2 Bft) W 279 ° 0 min 0 W/m² 4,5 °C 6,0 °C 14,5 km/h (3 Bft)
27.03.2025 00:16 21,4 °C 6,3 °C 47 % 88 % 1022,9 hPa 0,0 l/m² 7,4 km/h (2 Bft) W-NW 299 ° 0 min 0 W/m² 4,5 °C 5,5 °C 14,5 km/h (3 Bft)
27.03.2025 00:18 21,4 °C 6,2 °C 47 % 88 % 1022,8 hPa 0,0 l/m² 10,5 km/h (2 Bft) W 279 ° 0 min 0 W/m² 4,4 °C 3,1 °C 16,1 km/h (3 Bft)
27.03.2025 00:19 21,4 °C 6,2 °C 47 % 88 % 1022,8 hPa 0,0 l/m² 11,8 km/h (2 Bft) W-NW 297 ° 0 min 0 W/m² 4,4 °C 2,3 °C 19,3 km/h (3 Bft)
27.03.2025 00:20 21,5 °C 6,2 °C 47 % 88 % 1022,8 hPa 0,0 l/m² 10,6 km/h (2 Bft) W-NW 289 ° 0 min 0 W/m² 4,4 °C 3,0 °C 17,7 km/h (3 Bft)
27.03.2025 00:22 21,5 °C 6,2 °C 47 % 88 % 1022,8 hPa 0,0 l/m² 8,6 km/h (2 Bft) W-NW 290 ° 0 min 0 W/m² 4,4 °C 4,4 °C 16,1 km/h (3 Bft)
27.03.2025 00:23 21,5 °C 6,2 °C 47 % 88 % 1022,8 hPa 0,0 l/m² 7,8 km/h (2 Bft) N-NW 327 ° 0 min 0 W/m² 4,4 °C 5,0 °C 14,5 km/h (3 Bft)
27.03.2025 00:24 21,5 °C 6,2 °C 47 % 88 % 1022,8 hPa 0,0 l/m² 10,0 km/h (2 Bft) W 271 ° 0 min 0 W/m² 4,4 °C 3,4 °C 17,7 km/h (3 Bft)
27.03.2025 00:25 21,5 °C 6,2 °C 47 % 87 % 1022,8 hPa 0,0 l/m² 7,1 km/h (2 Bft) NW 321 ° 0 min 0 W/m² 4,2 °C 5,6 °C 14,5 km/h (3 Bft)
27.03.2025 00:26 21,5 °C 6,2 °C 47 % 87 % 1022,8 hPa 0,0 l/m² 8,0 km/h (2 Bft) N-NW 328 ° 0 min 0 W/m² 4,2 °C 4,9 °C 14,5 km/h (3 Bft)
27.03.2025 00:28 21,5 °C 6,1 °C 47 % 87 % 1022,8 hPa 0,0 l/m² 9,0 km/h (2 Bft) W-NW 288 ° 0 min 0 W/m² 4,1 °C 4,0 °C 16,1 km/h (3 Bft)
27.03.2025 00:30 21,5 °C 6,1 °C 47 % 88 % 1022,8 hPa 0,0 l/m² 9,8 km/h (2 Bft) NW 320 ° 0 min 0 W/m² 4,3 °C 3,4 °C 16,1 km/h (3 Bft)
27.03.2025 00:31 21,5 °C 6,1 °C 47 % 88 % 1022,8 hPa 0,0 l/m² 9,7 km/h (2 Bft) W-NW 303 ° 0 min 0 W/m² 4,3 °C 3,5 °C 16,1 km/h (3 Bft)
27.03.2025 00:33 21,5 °C 6,1 °C 47 % 88 % 1022,7 hPa 0,0 l/m² 11,2 km/h (2 Bft) W-NW 289 ° 0 min 0 W/m² 4,3 °C 2,5 °C 19,3 km/h (3 Bft)
27.03.2025 00:34 21,5 °C 6,1 °C 47 % 88 % 1022,8 hPa 0,0 l/m² 8,6 km/h (2 Bft) W 275 ° 0 min 0 W/m² 4,3 °C 4,3 °C 14,5 km/h (3 Bft)
27.03.2025 00:36 21,5 °C 6,0 °C 47 % 88 % 1022,8 hPa 0,0 l/m² 7,2 km/h (2 Bft) W-NW 287 ° 0 min 0 W/m² 4,2 °C 5,3 °C 17,7 km/h (3 Bft)
27.03.2025 00:38 21,5 °C 5,9 °C 47 % 88 % 1022,8 hPa 0,0 l/m² 12,1 km/h (2 Bft) N-NW 336 ° 0 min 0 W/m² 4,1 °C 1,7 °C 17,7 km/h (3 Bft)
27.03.2025 00:40 21,5 °C 5,9 °C 47 % 88 % 1022,8 hPa 0,0 l/m² 13,2 km/h (3 Bft) NW 326 ° 0 min 0 W/m² 4,1 °C 1,1 °C 19,3 km/h (3 Bft)
27.03.2025 00:41 21,6 °C 5,9 °C 47 % 88 % 1022,8 hPa 0,0 l/m² 12,7 km/h (3 Bft) NW 319 ° 0 min 0 W/m² 4,1 °C 1,4 °C 17,7 km/h (3 Bft)
27.03.2025 00:43 21,5 °C 5,8 °C 47 % 88 % 1022,8 hPa 0,0 l/m² 12,8 km/h (3 Bft) NW 312 ° 0 min 0 W/m² 4,0 °C 1,2 °C 17,7 km/h (3 Bft)
27.03.2025 00:45 21,5 °C 5,8 °C 47 % 88 % 1022,8 hPa 0,0 l/m² 12,2 km/h (2 Bft) NW 320 ° 0 min 0 W/m² 4,0 °C 1,6 °C 19,3 km/h (3 Bft)
27.03.2025 00:46 21,6 °C 5,8 °C 47 % 88 % 1022,8 hPa 0,0 l/m² 13,9 km/h (3 Bft) NW 325 ° 0 min 0 W/m² 4,0 °C 0,6 °C 19,3 km/h (3 Bft)
27.03.2025 00:48 21,5 °C 5,7 °C 47 % 88 % 1022,8 hPa 0,0 l/m² 13,5 km/h (3 Bft) NW 315 ° 0 min 0 W/m² 3,9 °C 0,7 °C 20,9 km/h (4 Bft)
27.03.2025 00:50 21,6 °C 5,7 °C 47 % 88 % 1022,8 hPa 0,0 l/m² 12,1 km/h (2 Bft) NW 319 ° 0 min 0 W/m² 3,9 °C 1,5 °C 17,7 km/h (3 Bft)
27.03.2025 00:51 21,6 °C 5,7 °C 47 % 88 % 1022,7 hPa 0,0 l/m² 13,8 km/h (3 Bft) NW 318 ° 0 min 0 W/m² 3,9 °C 0,5 °C 19,3 km/h (3 Bft)
27.03.2025 00:53 21,5 °C 5,7 °C 47 % 88 % 1022,8 hPa 0,0 l/m² 11,0 km/h (2 Bft) W-NW 303 ° 0 min 0 W/m² 3,9 °C 2,2 °C 17,7 km/h (3 Bft)
27.03.2025 00:54 21,5 °C 5,6 °C 47 % 88 % 1022,8 hPa 0,0 l/m² 14,4 km/h (3 Bft) NW 324 ° 0 min 0 W/m² 3,8 °C 0,1 °C 19,3 km/h (3 Bft)
27.03.2025 00:56 21,6 °C 5,6 °C 47 % 88 % 1022,8 hPa 0,0 l/m² 11,9 km/h (2 Bft) NW 309 ° 0 min 0 W/m² 3,8 °C 1,5 °C 17,7 km/h (3 Bft)
27.03.2025 00:57 21,6 °C 5,6 °C 47 % 88 % 1022,8 hPa 0,0 l/m² 11,8 km/h (2 Bft) W 281 ° 0 min 0 W/m² 3,8 °C 1,6 °C 19,3 km/h (3 Bft)
27.03.2025 00:59 21,6 °C 5,5 °C 47 % 88 % 1022,8 hPa 0,0 l/m² 12,7 km/h (3 Bft) NW 304 ° 0 min 0 W/m² 3,7 °C 0,9 °C 20,9 km/h (4 Bft)
27.03.2025 01:00 21,6 °C 5,5 °C 47 % 88 % 1022,7 hPa 0,0 l/m² 13,4 km/h (3 Bft) NW 314 ° 0 min 0 W/m² 3,7 °C 0,5 °C 19,3 km/h (3 Bft)
27.03.2025 01:02 21,5 °C 5,4 °C 47 % 88 % 1022,7 hPa 0,0 l/m² 11,3 km/h (2 Bft) W-NW 283 ° 0 min 0 W/m² 3,6 °C 1,7 °C 17,7 km/h (3 Bft)
27.03.2025 01:03 21,5 °C 5,4 °C 47 % 88 % 1022,7 hPa 0,0 l/m² 11,0 km/h (2 Bft) W-NW 287 ° 0 min 0 W/m² 3,6 °C 1,8 °C 17,7 km/h (3 Bft)
27.03.2025 01:05 21,6 °C 5,4 °C 47 % 88 % 1022,7 hPa 0,0 l/m² 10,6 km/h (2 Bft) W-NW 302 ° 0 min 0 W/m² 3,6 °C 2,1 °C 17,7 km/h (3 Bft)
27.03.2025 01:06 21,6 °C 5,4 °C 47 % 88 % 1022,8 hPa 0,0 l/m² 12,1 km/h (2 Bft) NW 309 ° 0 min 0 W/m² 3,6 °C 1,2 °C 17,7 km/h (3 Bft)
27.03.2025 01:08 21,6 °C 5,4 °C 47 % 88 % 1022,7 hPa 0,0 l/m² 13,6 km/h (3 Bft) W 280 ° 0 min 0 W/m² 3,6 °C 0,3 °C 17,7 km/h (3 Bft)
27.03.2025 01:09 21,6 °C 5,4 °C 47 % 88 % 1022,8 hPa 0,0 l/m² 13,8 km/h (3 Bft) W-NW 288 ° 0 min 0 W/m² 3,6 °C 0,2 °C 20,9 km/h (4 Bft)
27.03.2025 01:11 21,6 °C 5,4 °C 47 % 88 % 1022,7 hPa 0,0 l/m² 11,6 km/h (2 Bft) W-NW 284 ° 0 min 0 W/m² 3,6 °C 1,5 °C 17,7 km/h (3 Bft)
27.03.2025 01:12 21,6 °C 5,3 °C 47 % 88 % 1022,7 hPa 0,0 l/m² 12,2 km/h (2 Bft) W-NW 285 ° 0 min 0 W/m² 3,5 °C 1,0 °C 17,7 km/h (3 Bft)
27.03.2025 01:13 21,6 °C 5,3 °C 47 % 88 % 1022,7 hPa 0,0 l/m² 12,0 km/h (2 Bft) W-NW 296 ° 0 min 0 W/m² 3,5 °C 1,1 °C 16,1 km/h (3 Bft)
27.03.2025 01:14 21,6 °C 5,3 °C 47 % 88 % 1022,7 hPa 0,0 l/m² 11,3 km/h (2 Bft) W-NW 294 ° 0 min 0 W/m² 3,5 °C 1,5 °C 17,7 km/h (3 Bft)
27.03.2025 01:16 21,6 °C 5,3 °C 47 % 88 % 1022,7 hPa 0,0 l/m² 12,8 km/h (3 Bft) N-NW 342 ° 0 min 0 W/m² 3,5 °C 0,6 °C 19,3 km/h (3 Bft)
27.03.2025 01:18 21,6 °C 5,3 °C 47 % 88 % 1022,7 hPa 0,0 l/m² 9,6 km/h (2 Bft) NW 305 ° 0 min 0 W/m² 3,5 °C 2,7 °C 19,3 km/h (3 Bft)
27.03.2025 01:20 21,6 °C 5,3 °C 47 % 88 % 1022,7 hPa 0,0 l/m² 12,0 km/h (2 Bft) NW 311 ° 0 min 0 W/m² 3,5 °C 1,1 °C 17,7 km/h (3 Bft)
27.03.2025 01:21 21,6 °C 5,3 °C 47 % 88 % 1022,7 hPa 0,0 l/m² 10,3 km/h (2 Bft) W 263 ° 0 min 0 W/m² 3,5 °C 2,2 °C 17,7 km/h (3 Bft)
27.03.2025 01:23 21,6 °C 5,2 °C 47 % 88 % 1022,6 hPa 0,0 l/m² 8,8 km/h (2 Bft) NW 313 ° 0 min 0 W/m² 3,4 °C 3,2 °C 19,3 km/h (3 Bft)
27.03.2025 01:24 21,6 °C 5,2 °C 47 % 88 % 1022,6 hPa 0,0 l/m² 8,5 km/h (2 Bft) NW 313 ° 0 min 0 W/m² 3,4 °C 3,4 °C 14,5 km/h (3 Bft)
27.03.2025 01:26 21,6 °C 5,2 °C 47 % 88 % 1022,7 hPa 0,0 l/m² 10,3 km/h (2 Bft) W 280 ° 0 min 0 W/m² 3,4 °C 2,1 °C 17,7 km/h (3 Bft)
27.03.2025 01:28 21,6 °C 5,2 °C 47 % 88 % 1022,7 hPa 0,0 l/m² 11,1 km/h (2 Bft) W-NW 290 ° 0 min 0 W/m² 3,4 °C 1,6 °C 19,3 km/h (3 Bft)
27.03.2025 01:30 21,6 °C 5,1 °C 47 % 88 % 1022,7 hPa 0,0 l/m² 5,0 km/h (1 Bft) W-NW 288 ° 0 min 0 W/m² 3,3 °C 5,1 °C 14,5 km/h (3 Bft)
27.03.2025 01:31 21,6 °C 5,1 °C 47 % 88 % 1022,8 hPa 0,0 l/m² 10,5 km/h (2 Bft) NW 304 ° 0 min 0 W/m² 3,3 °C 1,8 °C 17,7 km/h (3 Bft)
27.03.2025 01:33 21,6 °C 5,1 °C 47 % 88 % 1022,8 hPa 0,0 l/m² 6,7 km/h (2 Bft) W 275 ° 0 min 0 W/m² 3,3 °C 4,9 °C 14,5 km/h (3 Bft)
27.03.2025 01:34 21,6 °C 5,0 °C 47 % 88 % 1022,8 hPa 0,0 l/m² 9,0 km/h (2 Bft) W-NW 290 ° 0 min 0 W/m² 3,2 °C 2,8 °C 14,5 km/h (3 Bft)
27.03.2025 01:35 21,6 °C 5,0 °C 47 % 89 % 1022,8 hPa 0,0 l/m² 5,1 km/h (1 Bft) NW 323 ° 0 min 0 W/m² 3,3 °C 5,0 °C 9,7 km/h (2 Bft)
27.03.2025 01:37 21,5 °C 5,0 °C 47 % 89 % 1022,8 hPa 0,0 l/m² 9,7 km/h (2 Bft) W-NW 298 ° 0 min 0 W/m² 3,3 °C 2,3 °C 17,7 km/h (3 Bft)
27.03.2025 01:39 21,6 °C 4,9 °C 47 % 88 % 1022,8 hPa 0,0 l/m² 7,9 km/h (2 Bft) W-NW 290 ° 0 min 0 W/m² 3,1 °C 3,6 °C 14,5 km/h (3 Bft)
27.03.2025 01:41 21,6 °C 4,9 °C 47 % 89 % 1022,8 hPa 0,0 l/m² 6,2 km/h (2 Bft) W 277 ° 0 min 0 W/m² 3,2 °C 4,9 °C 17,7 km/h (3 Bft)
27.03.2025 01:42 21,5 °C 4,9 °C 47 % 89 % 1022,7 hPa 0,0 l/m² 6,6 km/h (2 Bft) W-NW 300 ° 0 min 0 W/m² 3,2 °C 4,7 °C 11,3 km/h (2 Bft)
27.03.2025 01:43 21,5 °C 4,9 °C 47 % 89 % 1022,7 hPa 0,0 l/m² 8,9 km/h (2 Bft) NW 305 ° 0 min 0 W/m² 3,2 °C 2,8 °C 16,1 km/h (3 Bft)
27.03.2025 01:44 21,6 °C 4,9 °C 47 % 89 % 1022,7 hPa 0,0 l/m² 4,0 km/h (1 Bft) W-NW 288 ° 0 min 0 W/m² 3,2 °C 4,9 °C 11,3 km/h (2 Bft)
27.03.2025 01:46 21,6 °C 4,9 °C 47 % 89 % 1022,7 hPa 0,0 l/m² 4,1 km/h (1 Bft) W-NW 284 ° 0 min 0 W/m² 3,2 °C 4,9 °C 12,9 km/h (3 Bft)
27.03.2025 01:48 21,6 °C 4,8 °C 47 % 89 % 1022,8 hPa 0,0 l/m² 6,3 km/h (2 Bft) NW 316 ° 0 min 0 W/m² 3,1 °C 4,8 °C 12,9 km/h (3 Bft)
27.03.2025 01:50 21,5 °C 4,8 °C 47 % 89 % 1022,8 hPa 0,0 l/m² 6,0 km/h (2 Bft) NW 311 ° 0 min 0 W/m² 3,1 °C 4,8 °C 17,7 km/h (3 Bft)
27.03.2025 01:51 21,6 °C 4,7 °C 47 % 89 % 1022,7 hPa 0,0 l/m² 6,4 km/h (2 Bft) W-NW 300 ° 0 min 0 W/m² 3,0 °C 4,7 °C 14,5 km/h (3 Bft)
27.03.2025 01:53 21,5 °C 4,7 °C 47 % 89 % 1022,7 hPa 0,0 l/m² 6,4 km/h (2 Bft) W 273 ° 0 min 0 W/m² 3,0 °C 4,7 °C 16,1 km/h (3 Bft)
27.03.2025 01:54 21,5 °C 4,7 °C 47 % 89 % 1022,7 hPa 0,0 l/m² 9,9 km/h (2 Bft) NW 310 ° 0 min 0 W/m² 3,0 °C 1,8 °C 14,5 km/h (3 Bft)
27.03.2025 01:56 21,5 °C 4,7 °C 47 % 89 % 1022,7 hPa 0,0 l/m² 7,5 km/h (2 Bft) W 275 ° 0 min 0 W/m² 3,0 °C 3,7 °C 16,1 km/h (3 Bft)
27.03.2025 01:58 21,5 °C 4,7 °C 47 % 89 % 1022,7 hPa 0,0 l/m² 7,3 km/h (2 Bft) W-NW 283 ° 0 min 0 W/m² 3,0 °C 3,9 °C 17,7 km/h (3 Bft)
27.03.2025 02:00 21,5 °C 4,7 °C 47 % 89 % 1022,7 hPa 0,0 l/m² 7,3 km/h (2 Bft) W-NW 298 ° 0 min 0 W/m² 3,0 °C 3,9 °C 12,9 km/h (3 Bft)
27.03.2025 02:01 21,5 °C 4,6 °C 47 % 89 % 1022,7 hPa 0,0 l/m² 7,4 km/h (2 Bft) N-NW 331 ° 0 min 0 W/m² 2,9 °C 3,7 °C 16,1 km/h (3 Bft)
27.03.2025 02:03 21,5 °C 4,6 °C 46 % 89 % 1022,7 hPa 0,0 l/m² 8,3 km/h (2 Bft) NW 317 ° 0 min 0 W/m² 2,9 °C 2,9 °C 17,7 km/h (3 Bft)
27.03.2025 02:04 21,5 °C 4,6 °C 47 % 89 % 1022,6 hPa 0,0 l/m² 10,6 km/h (2 Bft) NW 319 ° 0 min 0 W/m² 2,9 °C 1,2 °C 17,7 km/h (3 Bft)
27.03.2025 02:06 21,5 °C 4,6 °C 47 % 89 % 1022,8 hPa 0,0 l/m² 11,1 km/h (2 Bft) W-NW 298 ° 0 min 0 W/m² 2,9 °C 0,9 °C 17,7 km/h (3 Bft)
27.03.2025 02:08 21,5 °C 4,6 °C 47 % 89 % 1022,7 hPa 0,0 l/m² 10,9 km/h (2 Bft) N-NW 348 ° 0 min 0 W/m² 2,9 °C 1,0 °C 19,3 km/h (3 Bft)
27.03.2025 02:10 21,5 °C 4,6 °C 46 % 89 % 1022,6 hPa 0,0 l/m² 7,7 km/h (2 Bft) NW 311 ° 0 min 0 W/m² 2,9 °C 3,4 °C 12,9 km/h (3 Bft)
27.03.2025 02:11 21,4 °C 4,6 °C 47 % 89 % 1022,7 hPa 0,0 l/m² 11,8 km/h (2 Bft) NW 311 ° 0 min 0 W/m² 2,9 °C 0,4 °C 16,1 km/h (3 Bft)
27.03.2025 02:13 21,5 °C 4,6 °C 47 % 89 % 1022,7 hPa 0,0 l/m² 10,7 km/h (2 Bft) NW 319 ° 0 min 0 W/m² 2,9 °C 1,1 °C 16,1 km/h (3 Bft)
27.03.2025 02:14 21,5 °C 4,6 °C 46 % 89 % 1022,6 hPa 0,0 l/m² 11,1 km/h (2 Bft) W-NW 296 ° 0 min 0 W/m² 2,9 °C 0,9 °C 16,1 km/h (3 Bft)
27.03.2025 02:16 21,5 °C 4,5 °C 47 % 89 % 1022,7 hPa 0,0 l/m² 9,2 km/h (2 Bft) W-NW 297 ° 0 min 0 W/m² 2,8 °C 2,1 °C 16,1 km/h (3 Bft)
27.03.2025 02:18 21,5 °C 4,5 °C 47 % 89 % 1022,7 hPa 0,0 l/m² 7,5 km/h (2 Bft) W-NW 303 ° 0 min 0 W/m² 2,8 °C 3,5 °C 14,5 km/h (3 Bft)
27.03.2025 02:20 21,5 °C 4,5 °C 46 % 90 % 1022,7 hPa 0,0 l/m² 9,7 km/h (2 Bft) NW 308 ° 0 min 0 W/m² 3,0 °C 1,7 °C 17,7 km/h (3 Bft)
27.03.2025 02:21 21,5 °C 4,5 °C 46 % 90 % 1022,6 hPa 0,0 l/m² 7,0 km/h (2 Bft) NW 324 ° 0 min 0 W/m² 3,0 °C 4,0 °C 11,3 km/h (2 Bft)
27.03.2025 02:23 21,5 °C 4,4 °C 47 % 89 % 1022,6 hPa 0,0 l/m² 8,9 km/h (2 Bft) W-NW 294 ° 0 min 0 W/m² 2,7 °C 2,2 °C 14,5 km/h (3 Bft)
27.03.2025 02:24 21,5 °C 4,5 °C 47 % 89 % 1022,6 hPa 0,0 l/m² 10,9 km/h (2 Bft) NW 306 ° 0 min 0 W/m² 2,8 °C 0,9 °C 14,5 km/h (3 Bft)
27.03.2025 02:26 21,5 °C 4,5 °C 46 % 89 % 1022,5 hPa 0,0 l/m² 8,1 km/h (2 Bft) W-NW 292 ° 0 min 0 W/m² 2,8 °C 3,0 °C 16,1 km/h (3 Bft)
27.03.2025 02:28 21,5 °C 4,4 °C 47 % 89 % 1022,5 hPa 0,0 l/m² 8,8 km/h (2 Bft) NW 305 ° 0 min 0 W/m² 2,7 °C 2,3 °C 20,9 km/h (4 Bft)
27.03.2025 02:30 21,5 °C 4,5 °C 46 % 89 % 1022,6 hPa 0,0 l/m² 10,7 km/h (2 Bft) N-NW 336 ° 0 min 0 W/m² 2,8 °C 1,0 °C 20,9 km/h (4 Bft)
27.03.2025 02:31 21,5 °C 4,4 °C 47 % 89 % 1022,6 hPa 0,0 l/m² 11,9 km/h (2 Bft) W-NW 300 ° 0 min 0 W/m² 2,7 °C 0,1 °C 17,7 km/h (3 Bft)
27.03.2025 02:33 21,5 °C 4,4 °C 46 % 89 % 1022,6 hPa 0,0 l/m² 10,7 km/h (2 Bft) NW 312 ° 0 min 0 W/m² 2,7 °C 0,9 °C 17,7 km/h (3 Bft)
27.03.2025 02:34 21,5 °C 4,4 °C 46 % 89 % 1022,6 hPa 0,0 l/m² 9,9 km/h (2 Bft) W-NW 303 ° 0 min 0 W/m² 2,7 °C 1,5 °C 17,7 km/h (3 Bft)
27.03.2025 02:36 21,5 °C 4,5 °C 46 % 89 % 1022,6 hPa 0,0 l/m² 9,2 km/h (2 Bft) W-NW 298 ° 0 min 0 W/m² 2,8 °C 2,1 °C 19,3 km/h (3 Bft)
27.03.2025 02:38 21,5 °C 4,5 °C 46 % 89 % 1022,6 hPa 0,0 l/m² 8,3 km/h (2 Bft) N-NW 335 ° 0 min 0 W/m² 2,8 °C 2,8 °C 17,7 km/h (3 Bft)
27.03.2025 02:40 21,4 °C 4,4 °C 46 % 89 % 1022,6 hPa 0,0 l/m² 11,1 km/h (2 Bft) NW 317 ° 0 min 0 W/m² 2,7 °C 0,6 °C 17,7 km/h (3 Bft)
27.03.2025 02:41 21,4 °C 4,5 °C 46 % 89 % 1022,5 hPa 0,0 l/m² 11,7 km/h (2 Bft) N-NW 334 ° 0 min 0 W/m² 2,8 °C 0,4 °C 17,7 km/h (3 Bft)
27.03.2025 02:43 21,4 °C 4,4 °C 46 % 89 % 1022,6 hPa 0,0 l/m² 8,4 km/h (2 Bft) N-NW 340 ° 0 min 0 W/m² 2,7 °C 2,6 °C 14,5 km/h (3 Bft)
27.03.2025 02:44 21,4 °C 4,4 °C 46 % 89 % 1022,6 hPa 0,0 l/m² 8,4 km/h (2 Bft) NW 321 ° 0 min 0 W/m² 2,7 °C 2,6 °C 14,5 km/h (3 Bft)
27.03.2025 02:46 21,4 °C 4,4 °C 46 % 89 % 1022,5 hPa 0,0 l/m² 7,6 km/h (2 Bft) NW 313 ° 0 min 0 W/m² 2,7 °C 3,3 °C 16,1 km/h (3 Bft)
27.03.2025 02:48 21,4 °C 4,4 °C 46 % 89 % 1022,5 hPa 0,0 l/m² 7,4 km/h (2 Bft) NW 304 ° 0 min 0 W/m² 2,7 °C 3,5 °C 16,1 km/h (3 Bft)
27.03.2025 02:50 21,4 °C 4,4 °C 46 % 89 % 1022,6 hPa 0,0 l/m² 8,9 km/h (2 Bft) NW 304 ° 0 min 0 W/m² 2,7 °C 2,2 °C 14,5 km/h (3 Bft)
27.03.2025 02:51 21,4 °C 4,4 °C 46 % 89 % 1022,6 hPa 0,0 l/m² 4,5 km/h (1 Bft) W-NW 288 ° 0 min 0 W/m² 2,7 °C 4,4 °C 8,0 km/h (2 Bft)
27.03.2025 02:53 21,4 °C 4,3 °C 46 % 89 % 1022,6 hPa 0,0 l/m² 7,2 km/h (2 Bft) NW 309 ° 0 min 0 W/m² 2,7 °C 3,6 °C 16,1 km/h (3 Bft)
27.03.2025 02:54 21,4 °C 4,3 °C 46 % 89 % 1022,6 hPa 0,0 l/m² 8,6 km/h (2 Bft) NW 307 ° 0 min 0 W/m² 2,7 °C 2,4 °C 12,9 km/h (3 Bft)
27.03.2025 02:56 21,4 °C 4,3 °C 46 % 90 % 1022,7 hPa 0,0 l/m² 6,8 km/h (2 Bft) NW 305 ° 0 min 0 W/m² 2,8 °C 3,9 °C 12,9 km/h (3 Bft)
27.03.2025 02:58 21,4 °C 4,3 °C 46 % 90 % 1022,6 hPa 0,0 l/m² 8,2 km/h (2 Bft) W-NW 291 ° 0 min 0 W/m² 2,8 °C 2,7 °C 14,5 km/h (3 Bft)
27.03.2025 03:00 21,4 °C 4,3 °C 46 % 90 % 1022,6 hPa 0,0 l/m² 5,6 km/h (2 Bft) W-SW 250 ° 0 min 0 W/m² 2,8 °C 4,3 °C 11,3 km/h (2 Bft)
27.03.2025 03:01 21,4 °C 4,3 °C 46 % 90 % 1022,6 hPa 0,0 l/m² 6,4 km/h (2 Bft) W 270 ° 0 min 0 W/m² 2,8 °C 4,3 °C 16,1 km/h (3 Bft)
27.03.2025 03:06 21,4 °C 4,3 °C 46 % 90 % 1022,6 hPa 0,0 l/m² 2,8 km/h (1 Bft) W 263 ° 0 min 0 W/m² 2,8 °C 4,3 °C 4,8 km/h (1 Bft)
27.03.2025 03:08 21,4 °C 4,3 °C 46 % 90 % 1022,7 hPa 0,0 l/m² 4,2 km/h (1 Bft) SW 223 ° 0 min 0 W/m² 2,8 °C 4,3 °C 8,0 km/h (2 Bft)
27.03.2025 03:09 21,4 °C 4,3 °C 46 % 90 % 1022,5 hPa 0,0 l/m² 6,2 km/h (2 Bft) SW 222 ° 0 min 0 W/m² 2,8 °C 4,3 °C 8,0 km/h (2 Bft)
27.03.2025 03:11 21,4 °C 4,2 °C 46 % 90 % 1022,6 hPa 0,0 l/m² 2,9 km/h (1 Bft) SW 219 ° 0 min 0 W/m² 2,7 °C 4,2 °C 6,4 km/h (2 Bft)
27.03.2025 03:12 21,4 °C 4,2 °C 46 % 90 % 1022,6 hPa 0,0 l/m² 3,2 km/h (1 Bft) SW 222 ° 0 min 0 W/m² 2,7 °C 4,2 °C 6,4 km/h (2 Bft)
27.03.2025 03:14 21,4 °C 4,0 °C 46 % 89 % 1022,6 hPa 0,0 l/m² 4,3 km/h (1 Bft) SW 220 ° 0 min 0 W/m² 2,4 °C 4,0 °C 6,4 km/h (2 Bft)
27.03.2025 03:16 21,4 °C 3,9 °C 46 % 89 % 1022,7 hPa 0,0 l/m² 1,1 km/h (1 Bft) SW 220 ° 0 min 0 W/m² 2,3 °C 3,9 °C 3,2 km/h (1 Bft)
27.03.2025 03:18 21,4 °C 3,8 °C 46 % 90 % 1022,7 hPa 0,0 l/m² 0,4 km/h (0 Bft) SW 220 ° 0 min 0 W/m² 2,3 °C 3,8 °C 3,2 km/h (1 Bft)
27.03.2025 03:20 21,4 °C 3,8 °C 46 % 90 % 1022,6 hPa 0,0 l/m² 0,4 km/h (0 Bft) SW 220 ° 0 min 0 W/m² 2,3 °C 3,8 °C 1,6 km/h (1 Bft)
27.03.2025 03:21 21,4 °C 3,7 °C 46 % 90 % 1022,6 hPa 0,0 l/m² 1,0 km/h (0 Bft) SW 220 ° 0 min 0 W/m² 2,2 °C 3,7 °C 3,2 km/h (1 Bft)
27.03.2025 03:22 21,4 °C 3,8 °C 46 % 90 % 1022,6 hPa 0,0 l/m² 0,0 km/h (0 Bft) SW 220 ° 0 min 0 W/m² 2,3 °C 3,8 °C 0,0 km/h (0 Bft)
27.03.2025 03:24 21,4 °C 3,7 °C 46 % 90 % 1022,6 hPa 0,0 l/m² 0,7 km/h (0 Bft) SW 220 ° 0 min 0 W/m² 2,2 °C 3,7 °C 3,2 km/h (1 Bft)
27.03.2025 03:26 21,4 °C 3,7 °C 46 % 90 % 1022,6 hPa 0,0 l/m² 1,7 km/h (1 Bft) SW 216 ° 0 min 0 W/m² 2,2 °C 3,7 °C 4,8 km/h (1 Bft)
27.03.2025 03:28 21,4 °C 3,6 °C 46 % 90 % 1022,6 hPa 0,0 l/m² 0,0 km/h (0 Bft) SW 216 ° 0 min 0 W/m² 2,1 °C 3,6 °C 0,0 km/h (0 Bft)
27.03.2025 03:30 21,4 °C 3,6 °C 46 % 90 % 1022,6 hPa 0,0 l/m² 0,1 km/h (0 Bft) SW 217 ° 0 min 0 W/m² 2,1 °C 3,6 °C 1,6 km/h (1 Bft)
27.03.2025 03:31 21,4 °C 3,6 °C 46 % 90 % 1022,7 hPa 0,0 l/m² 0,0 km/h (0 Bft) SW 217 ° 0 min 0 W/m² 2,1 °C 3,6 °C 0,0 km/h (0 Bft)
27.03.2025 03:32 21,4 °C 3,6 °C 46 % 90 % 1022,7 hPa 0,0 l/m² 0,0 km/h (0 Bft) SW 217 ° 0 min 0 W/m² 2,1 °C 3,6 °C 0,0 km/h (0 Bft)
27.03.2025 03:33 21,4 °C 3,6 °C 46 % 91 % 1022,6 hPa 0,0 l/m² 0,5 km/h (0 Bft) SW 217 ° 0 min 0 W/m² 2,3 °C 3,6 °C 1,6 km/h (1 Bft)
27.03.2025 03:35 21,4 °C 3,6 °C 46 % 91 % 1022,7 hPa 0,0 l/m² 2,7 km/h (1 Bft) SW 217 ° 0 min 0 W/m² 2,3 °C 3,6 °C 4,8 km/h (1 Bft)
27.03.2025 03:37 21,4 °C 3,5 °C 46 % 90 % 1022,7 hPa 0,0 l/m² 2,1 km/h (1 Bft) SW 225 ° 0 min 0 W/m² 2,0 °C 3,5 °C 4,8 km/h (1 Bft)
27.03.2025 03:39 21,4 °C 3,5 °C 46 % 91 % 1022,8 hPa 0,0 l/m² 1,3 km/h (1 Bft) SW 225 ° 0 min 0 W/m² 2,2 °C 3,5 °C 3,2 km/h (1 Bft)
27.03.2025 03:40 21,4 °C 3,5 °C 46 % 91 % 1022,7 hPa 0,0 l/m² 1,3 km/h (1 Bft) SW 225 ° 0 min 0 W/m² 2,2 °C 3,5 °C 4,8 km/h (1 Bft)
27.03.2025 03:42 21,4 °C 3,4 °C 46 % 91 % 1022,6 hPa 0,0 l/m² 2,7 km/h (1 Bft) SW 232 ° 0 min 0 W/m² 2,1 °C 3,4 °C 4,8 km/h (1 Bft)
27.03.2025 03:43 21,4 °C 3,3 °C 46 % 91 % 1022,7 hPa 0,0 l/m² 3,4 km/h (1 Bft) W-SW 257 ° 0 min 0 W/m² 2,0 °C 3,3 °C 6,4 km/h (2 Bft)
27.03.2025 03:45 21,4 °C 3,3 °C 46 % 91 % 1022,7 hPa 0,0 l/m² 2,9 km/h (1 Bft) W-SW 257 ° 0 min 0 W/m² 2,0 °C 3,3 °C 4,8 km/h (1 Bft)
27.03.2025 03:48 21,4 °C 3,2 °C 46 % 91 % 1022,6 hPa 0,0 l/m² 1,7 km/h (1 Bft) W-SW 258 ° 0 min 0 W/m² 1,9 °C 3,2 °C 4,8 km/h (1 Bft)
27.03.2025 03:50 21,4 °C 3,3 °C 46 % 91 % 1022,6 hPa 0,0 l/m² 1,4 km/h (1 Bft) W-SW 257 ° 0 min 0 W/m² 2,0 °C 3,3 °C 4,8 km/h (1 Bft)
27.03.2025 03:51 21,4 °C 3,2 °C 46 % 91 % 1022,6 hPa 0,0 l/m² 2,2 km/h (1 Bft) W-SW 257 ° 0 min 0 W/m² 1,9 °C 3,2 °C 3,2 km/h (1 Bft)
27.03.2025 03:52 21,4 °C 3,2 °C 46 % 91 % 1022,6 hPa 0,0 l/m² 2,0 km/h (1 Bft) W-SW 257 ° 0 min 0 W/m² 1,9 °C 3,2 °C 4,8 km/h (1 Bft)
27.03.2025 03:54 21,4 °C 3,1 °C 46 % 91 % 1022,6 hPa 0,0 l/m² 2,3 km/h (1 Bft) W 262 ° 0 min 0 W/m² 1,8 °C 3,1 °C 6,4 km/h (2 Bft)
27.03.2025 03:56 21,4 °C 3,1 °C 46 % 91 % 1022,7 hPa 0,0 l/m² 2,3 km/h (1 Bft) W 262 ° 0 min 0 W/m² 1,8 °C 3,1 °C 4,8 km/h (1 Bft)
27.03.2025 03:58 21,4 °C 3,1 °C 46 % 91 % 1022,7 hPa 0,0 l/m² 0,7 km/h (0 Bft) W 262 ° 0 min 0 W/m² 1,8 °C 3,1 °C 3,2 km/h (1 Bft)
27.03.2025 04:00 21,4 °C 3,1 °C 46 % 91 % 1022,7 hPa 0,0 l/m² 1,3 km/h (1 Bft) W 262 ° 0 min 0 W/m² 1,8 °C 3,1 °C 3,2 km/h (1 Bft)
27.03.2025 04:01 21,4 °C 3,0 °C 46 % 91 % 1022,7 hPa 0,0 l/m² 0,8 km/h (0 Bft) W 262 ° 0 min 0 W/m² 1,7 °C 3,0 °C 3,2 km/h (1 Bft)
27.03.2025 04:02 21,4 °C 3,0 °C 46 % 91 % 1022,7 hPa 0,0 l/m² 0,1 km/h (0 Bft) W 262 ° 0 min 0 W/m² 1,7 °C 3,0 °C 1,6 km/h (1 Bft)
27.03.2025 04:03 21,4 °C 2,9 °C 46 % 91 % 1022,7 hPa 0,0 l/m² 1,7 km/h (1 Bft) W 262 ° 0 min 0 W/m² 1,6 °C 2,9 °C 3,2 km/h (1 Bft)
27.03.2025 04:05 21,4 °C 2,9 °C 46 % 91 % 1022,8 hPa 0,0 l/m² 1,5 km/h (1 Bft) W 262 ° 0 min 0 W/m² 1,6 °C 2,9 °C 4,8 km/h (1 Bft)
27.03.2025 04:07 21,4 °C 2,9 °C 46 % 91 % 1022,8 hPa 0,0 l/m² 3,7 km/h (1 Bft) S-SW 198 ° 0 min 0 W/m² 1,6 °C 2,9 °C 6,4 km/h (2 Bft)
27.03.2025 04:09 21,4 °C 2,9 °C 46 % 91 % 1022,8 hPa 0,0 l/m² 0,5 km/h (0 Bft) S-SW 198 ° 0 min 0 W/m² 1,6 °C 2,9 °C 3,2 km/h (1 Bft)
27.03.2025 04:10 21,4 °C 2,9 °C 46 % 91 % 1022,8 hPa 0,0 l/m² 2,1 km/h (1 Bft) S-SW 198 ° 0 min 0 W/m² 1,6 °C 2,9 °C 3,2 km/h (1 Bft)
27.03.2025 04:12 21,4 °C 2,9 °C 46 % 92 % 1022,8 hPa 0,0 l/m² 0,0 km/h (0 Bft) S-SW 198 ° 0 min 0 W/m² 1,7 °C 2,9 °C 1,6 km/h (1 Bft)
27.03.2025 04:13 21,4 °C 3,0 °C 46 % 92 % 1022,8 hPa 0,0 l/m² 1,7 km/h (1 Bft) S-SW 198 ° 0 min 0 W/m² 1,8 °C 3,0 °C 3,2 km/h (1 Bft)
27.03.2025 04:15 21,4 °C 3,0 °C 46 % 92 % 1022,8 hPa 0,0 l/m² 0,0 km/h (0 Bft) S-SW 198 ° 0 min 0 W/m² 1,8 °C 3,0 °C 0,0 km/h (0 Bft)
27.03.2025 04:17 21,5 °C 3,1 °C 46 % 92 % 1022,8 hPa 0,0 l/m² 0,7 km/h (0 Bft) S-SW 198 ° 0 min 0 W/m² 1,9 °C 3,1 °C 3,2 km/h (1 Bft)
27.03.2025 04:19 21,4 °C 3,2 °C 46 % 92 % 1022,8 hPa 0,0 l/m² 1,2 km/h (1 Bft) S-SW 202 ° 0 min 0 W/m² 2,0 °C 3,2 °C 3,2 km/h (1 Bft)
27.03.2025 04:20 21,4 °C 3,2 °C 46 % 92 % 1022,8 hPa 0,0 l/m² 0,0 km/h (0 Bft) S-SW 202 ° 0 min 0 W/m² 2,0 °C 3,2 °C 0,0 km/h (0 Bft)
27.03.2025 04:22 21,5 °C 3,2 °C 46 % 92 % 1022,9 hPa 0,0 l/m² 0,2 km/h (0 Bft) S-SW 202 ° 0 min 0 W/m² 2,0 °C 3,2 °C 1,6 km/h (1 Bft)
27.03.2025 04:24 21,5 °C 3,3 °C 46 % 92 % 1022,8 hPa 0,0 l/m² 1,6 km/h (1 Bft) S-SW 202 ° 0 min 0 W/m² 2,1 °C 3,3 °C 3,2 km/h (1 Bft)
27.03.2025 04:26 21,5 °C 3,3 °C 46 % 92 % 1022,8 hPa 0,0 l/m² 0,3 km/h (0 Bft) S-SW 202 ° 0 min 0 W/m² 2,1 °C 3,3 °C 1,6 km/h (1 Bft)
27.03.2025 04:28 21,5 °C 3,3 °C 46 % 92 % 1022,8 hPa 0,0 l/m² 0,3 km/h (0 Bft) S-SW 202 ° 0 min 0 W/m² 2,1 °C 3,3 °C 1,6 km/h (1 Bft)
27.03.2025 04:30 21,5 °C 3,4 °C 46 % 92 % 1022,8 hPa 0,0 l/m² 0,0 km/h (0 Bft) S-SW 202 ° 0 min 0 W/m² 2,2 °C 3,4 °C 0,0 km/h (0 Bft)
27.03.2025 04:31 21,5 °C 3,4 °C 46 % 92 % 1022,8 hPa 0,0 l/m² 0,0 km/h (0 Bft) S-SW 202 ° 0 min 0 W/m² 2,2 °C 3,4 °C 0,0 km/h (0 Bft)
27.03.2025 04:33 21,5 °C 3,4 °C 46 % 92 % 1022,9 hPa 0,0 l/m² 0,8 km/h (0 Bft) S-SW 202 ° 0 min 0 W/m² 2,2 °C 3,4 °C 3,2 km/h (1 Bft)
27.03.2025 04:34 21,5 °C 3,4 °C 46 % 92 % 1022,9 hPa 0,0 l/m² 0,7 km/h (0 Bft) S-SW 202 ° 0 min 0 W/m² 2,2 °C 3,4 °C 1,6 km/h (1 Bft)
27.03.2025 04:36 21,5 °C 3,4 °C 46 % 92 % 1022,9 hPa 0,0 l/m² 1,4 km/h (1 Bft) S-SW 202 ° 0 min 0 W/m² 2,2 °C 3,4 °C 4,8 km/h (1 Bft)
27.03.2025 04:38 21,5 °C 3,4 °C 46 % 92 % 1022,9 hPa 0,0 l/m² 0,4 km/h (0 Bft) S-SW 202 ° 0 min 0 W/m² 2,2 °C 3,4 °C 1,6 km/h (1 Bft)
27.03.2025 04:40 21,4 °C 3,4 °C 46 % 92 % 1022,9 hPa 0,0 l/m² 0,1 km/h (0 Bft) S-SW 202 ° 0 min 0 W/m² 2,2 °C 3,4 °C 1,6 km/h (1 Bft)
27.03.2025 04:41 21,5 °C 3,4 °C 46 % 92 % 1022,8 hPa 0,0 l/m² 0,0 km/h (0 Bft) S-SW 202 ° 0 min 0 W/m² 2,2 °C 3,4 °C 0,0 km/h (0 Bft)
27.03.2025 04:42 21,5 °C 3,4 °C 46 % 92 % 1022,8 hPa 0,0 l/m² 1,3 km/h (1 Bft) S-SW 202 ° 0 min 0 W/m² 2,2 °C 3,4 °C 3,2 km/h (1 Bft)
27.03.2025 04:43 21,4 °C 3,4 °C 46 % 92 % 1022,9 hPa 0,0 l/m² 0,3 km/h (0 Bft) S-SW 202 ° 0 min 0 W/m² 2,2 °C 3,4 °C 1,6 km/h (1 Bft)
27.03.2025 04:45 21,5 °C 3,3 °C 46 % 92 % 1022,9 hPa 0,0 l/m² 0,4 km/h (0 Bft) S-SW 202 ° 0 min 0 W/m² 2,1 °C 3,3 °C 1,6 km/h (1 Bft)
27.03.2025 04:47 21,5 °C 3,3 °C 46 % 92 % 1022,8 hPa 0,0 l/m² 0,7 km/h (0 Bft) S-SW 202 ° 0 min 0 W/m² 2,1 °C 3,3 °C 3,2 km/h (1 Bft)
27.03.2025 04:49 21,5 °C 3,4 °C 46 % 92 % 1022,9 hPa 0,0 l/m² 2,5 km/h (1 Bft) S-SW 202 ° 0 min 0 W/m² 2,2 °C 3,4 °C 4,8 km/h (1 Bft)
27.03.2025 04:50 21,5 °C 3,3 °C 46 % 92 % 1022,8 hPa 0,0 l/m² 0,1 km/h (0 Bft) S-SW 202 ° 0 min 0 W/m² 2,1 °C 3,3 °C 1,6 km/h (1 Bft)
27.03.2025 04:52 21,5 °C 3,2 °C 46 % 92 % 1022,9 hPa 0,0 l/m² 0,4 km/h (0 Bft) S-SW 202 ° 0 min 0 W/m² 2,0 °C 3,2 °C 3,2 km/h (1 Bft)
27.03.2025 04:54 21,5 °C 3,3 °C 46 % 92 % 1022,8 hPa 0,0 l/m² 0,1 km/h (0 Bft) S-SW 202 ° 0 min 0 W/m² 2,1 °C 3,3 °C 3,2 km/h (1 Bft)
27.03.2025 04:56 21,6 °C 3,2 °C 46 % 92 % 1022,9 hPa 0,0 l/m² 1,2 km/h (1 Bft) S-SW 202 ° 0 min 0 W/m² 2,0 °C 3,2 °C 3,2 km/h (1 Bft)
27.03.2025 04:58 21,5 °C 3,2 °C 47 % 92 % 1022,9 hPa 0,0 l/m² 2,4 km/h (1 Bft) S-SW 202 ° 0 min 0 W/m² 2,0 °C 3,2 °C 4,8 km/h (1 Bft)
27.03.2025 05:00 21,5 °C 3,2 °C 47 % 92 % 1022,8 hPa 0,0 l/m² 1,3 km/h (1 Bft) S-SW 202 ° 0 min 0 W/m² 2,0 °C 3,2 °C 3,2 km/h (1 Bft)
27.03.2025 05:01 21,6 °C 3,2 °C 47 % 92 % 1022,9 hPa 0,0 l/m² 0,4 km/h (0 Bft) S-SW 202 ° 0 min 0 W/m² 2,0 °C 3,2 °C 1,6 km/h (1 Bft)
27.03.2025 05:02 21,6 °C 3,2 °C 47 % 92 % 1022,9 hPa 0,0 l/m² 1,8 km/h (1 Bft) S-SW 202 ° 0 min 0 W/m² 2,0 °C 3,2 °C 3,2 km/h (1 Bft)
27.03.2025 05:03 21,5 °C 3,2 °C 47 % 92 % 1022,9 hPa 0,0 l/m² 1,9 km/h (1 Bft) S-SW 202 ° 0 min 0 W/m² 2,0 °C 3,2 °C 3,2 km/h (1 Bft)
27.03.2025 05:05 21,5 °C 3,1 °C 47 % 92 % 1022,8 hPa 0,0 l/m² 1,2 km/h (1 Bft) S-SW 202 ° 0 min 0 W/m² 1,9 °C 3,1 °C 3,2 km/h (1 Bft)
27.03.2025 05:07 21,6 °C 3,1 °C 47 % 92 % 1022,8 hPa 0,0 l/m² 0,2 km/h (0 Bft) S-SW 202 ° 0 min 0 W/m² 1,9 °C 3,1 °C 1,6 km/h (1 Bft)
27.03.2025 05:09 21,5 °C 3,1 °C 47 % 92 % 1022,8 hPa 0,0 l/m² 0,2 km/h (0 Bft) S-SW 202 ° 0 min 0 W/m² 1,9 °C 3,1 °C 1,6 km/h (1 Bft)
27.03.2025 05:11 21,5 °C 3,1 °C 47 % 92 % 1022,8 hPa 0,0 l/m² 0,0 km/h (0 Bft) S-SW 202 ° 0 min 0 W/m² 1,9 °C 3,1 °C 0,0 km/h (0 Bft)
27.03.2025 05:12 21,6 °C 3,1 °C 47 % 92 % 1022,9 hPa 0,0 l/m² 0,0 km/h (0 Bft) S-SW 202 ° 0 min 0 W/m² 1,9 °C 3,1 °C 0,0 km/h (0 Bft)
27.03.2025 05:14 21,6 °C 3,1 °C 47 % 92 % 1022,8 hPa 0,0 l/m² 0,0 km/h (0 Bft) S-SW 202 ° 0 min 0 W/m² 1,9 °C 3,1 °C 0,0 km/h (0 Bft)
27.03.2025 05:16 21,6 °C 3,1 °C 47 % 92 % 1022,9 hPa 0,0 l/m² 0,0 km/h (0 Bft) S-SW 202 ° 0 min 0 W/m² 1,9 °C 3,1 °C 0,0 km/h (0 Bft)
27.03.2025 05:18 21,6 °C 3,1 °C 47 % 92 % 1022,9 hPa 0,0 l/m² 0,0 km/h (0 Bft) S-SW 202 ° 0 min 0 W/m² 1,9 °C 3,1 °C 0,0 km/h (0 Bft)
27.03.2025 05:20 21,6 °C 3,1 °C 47 % 92 % 1022,9 hPa 0,0 l/m² 0,0 km/h (0 Bft) S-SW 202 ° 0 min 0 W/m² 1,9 °C 3,1 °C 0,0 km/h (0 Bft)
27.03.2025 05:21 21,6 °C 3,1 °C 47 % 92 % 1022,8 hPa 0,0 l/m² 0,0 km/h (0 Bft) S-SW 202 ° 0 min 0 W/m² 1,9 °C 3,1 °C 0,0 km/h (0 Bft)
27.03.2025 05:23 21,6 °C 3,1 °C 47 % 92 % 1022,8 hPa 0,0 l/m² 0,7 km/h (0 Bft) S-SW 202 ° 0 min 0 W/m² 1,9 °C 3,1 °C 3,2 km/h (1 Bft)
27.03.2025 05:25 21,6 °C 3,1 °C 47 % 92 % 1022,8 hPa 0,0 l/m² 1,7 km/h (1 Bft) S-SW 202 ° 0 min 0 W/m² 1,9 °C 3,1 °C 4,8 km/h (1 Bft)
27.03.2025 05:27 21,5 °C 3,1 °C 47 % 92 % 1022,8 hPa 0,0 l/m² 1,8 km/h (1 Bft) S-SW 202 ° 0 min 0 W/m² 1,9 °C 3,1 °C 3,2 km/h (1 Bft)
27.03.2025 05:29 21,5 °C 3,1 °C 47 % 93 % 1022,9 hPa 0,0 l/m² 0,6 km/h (0 Bft) S-SW 202 ° 0 min 0 W/m² 2,1 °C 3,1 °C 1,6 km/h (1 Bft)
27.03.2025 05:31 21,6 °C 3,1 °C 47 % 92 % 1022,8 hPa 0,0 l/m² 0,1 km/h (0 Bft) S-SW 202 ° 0 min 0 W/m² 1,9 °C 3,1 °C 1,6 km/h (1 Bft)
27.03.2025 05:32 21,5 °C 3,1 °C 47 % 93 % 1022,8 hPa 0,0 l/m² 0,0 km/h (0 Bft) S-SW 202 ° 0 min 0 W/m² 2,1 °C 3,1 °C 0,0 km/h (0 Bft)
27.03.2025 05:34 21,5 °C 3,1 °C 47 % 93 % 1022,8 hPa 0,0 l/m² 0,2 km/h (0 Bft) S-SW 202 ° 0 min 0 W/m² 2,1 °C 3,1 °C 1,6 km/h (1 Bft)
27.03.2025 05:36 21,5 °C 3,1 °C 47 % 93 % 1022,8 hPa 0,0 l/m² 0,0 km/h (0 Bft) S-SW 202 ° 0 min 0 W/m² 2,1 °C 3,1 °C 0,0 km/h (0 Bft)
27.03.2025 05:38 21,5 °C 3,1 °C 47 % 93 % 1022,8 hPa 0,0 l/m² 0,0 km/h (0 Bft) S-SW 202 ° 0 min 0 W/m² 2,1 °C 3,1 °C 0,0 km/h (0 Bft)
27.03.2025 05:40 21,5 °C 3,1 °C 47 % 93 % 1022,8 hPa 0,0 l/m² 0,0 km/h (0 Bft) S-SW 202 ° 0 min 0 W/m² 2,1 °C 3,1 °C 0,0 km/h (0 Bft)
27.03.2025 05:41 21,5 °C 3,1 °C 47 % 93 % 1022,8 hPa 0,0 l/m² 0,0 km/h (0 Bft) S-SW 202 ° 0 min 0 W/m² 2,1 °C 3,1 °C 0,0 km/h (0 Bft)
27.03.2025 05:43 21,5 °C 3,1 °C 47 % 93 % 1022,7 hPa 0,0 l/m² 0,0 km/h (0 Bft) S-SW 202 ° 0 min 0 W/m² 2,1 °C 3,1 °C 0,0 km/h (0 Bft)
27.03.2025 05:45 21,5 °C 3,1 °C 47 % 93 % 1022,7 hPa 0,0 l/m² 0,0 km/h (0 Bft) S-SW 202 ° 0 min 0 W/m² 2,1 °C 3,1 °C 0,0 km/h (0 Bft)
27.03.2025 05:47 21,5 °C 3,1 °C 47 % 93 % 1022,7 hPa 0,0 l/m² 0,0 km/h (0 Bft) S-SW 202 ° 0 min 0 W/m² 2,1 °C 3,1 °C 0,0 km/h (0 Bft)
27.03.2025 05:49 21,5 °C 3,0 °C 47 % 93 % 1022,8 hPa 0,0 l/m² 0,1 km/h (0 Bft) S-SW 202 ° 0 min 0 W/m² 2,0 °C 3,0 °C 1,6 km/h (1 Bft)
27.03.2025 05:51 21,5 °C 2,9 °C 47 % 93 % 1022,8 hPa 0,0 l/m² 0,3 km/h (0 Bft) S-SW 202 ° 0 min 0 W/m² 1,9 °C 2,9 °C 1,6 km/h (1 Bft)
27.03.2025 05:52 21,5 °C 2,9 °C 47 % 93 % 1022,7 hPa 0,0 l/m² 0,1 km/h (0 Bft) S-SW 202 ° 0 min 0 W/m² 1,9 °C 2,9 °C 1,6 km/h (1 Bft)
27.03.2025 05:54 21,5 °C 2,9 °C 47 % 93 % 1022,7 hPa 0,0 l/m² 0,3 km/h (0 Bft) S-SW 202 ° 0 min 0 W/m² 1,9 °C 2,9 °C 1,6 km/h (1 Bft)
27.03.2025 05:56 21,5 °C 2,8 °C 47 % 92 % 1022,8 hPa 0,0 l/m² 1,2 km/h (1 Bft) S-SW 202 ° 0 min 0 W/m² 1,6 °C 2,8 °C 3,2 km/h (1 Bft)
27.03.2025 05:58 21,5 °C 2,8 °C 47 % 92 % 1022,9 hPa 0,0 l/m² 3,1 km/h (1 Bft) S-SW 202 ° 0 min 0 W/m² 1,6 °C 2,8 °C 4,8 km/h (1 Bft)
27.03.2025 06:00 21,5 °C 2,8 °C 47 % 92 % 1022,9 hPa 0,0 l/m² 4,0 km/h (1 Bft) S-SW 202 ° 0 min 0 W/m² 1,6 °C 2,8 °C 4,8 km/h (1 Bft)
27.03.2025 06:01 21,5 °C 2,7 °C 47 % 92 % 1022,9 hPa 0,0 l/m² 2,3 km/h (1 Bft) S-SW 202 ° 0 min 0 W/m² 1,5 °C 2,7 °C 3,2 km/h (1 Bft)
27.03.2025 06:02 21,5 °C 2,7 °C 47 % 92 % 1022,9 hPa 0,0 l/m² 3,4 km/h (1 Bft) S-SW 202 ° 0 min 0 W/m² 1,5 °C 2,7 °C 4,8 km/h (1 Bft)
27.03.2025 06:03 21,5 °C 2,7 °C 47 % 92 % 1022,9 hPa 0,0 l/m² 1,1 km/h (1 Bft) S-SW 202 ° 0 min 0 W/m² 1,5 °C 2,7 °C 3,2 km/h (1 Bft)
27.03.2025 06:05 21,4 °C 2,7 °C 47 % 93 % 1022,9 hPa 0,0 l/m² 1,8 km/h (1 Bft) S-SW 202 ° 0 min 5 W/m² 1,7 °C 2,7 °C 4,8 km/h (1 Bft)
27.03.2025 06:07 21,4 °C 2,7 °C 47 % 93 % 1023,0 hPa 0,0 l/m² 3,5 km/h (1 Bft) S-SW 213 ° 0 min 5 W/m² 1,7 °C 2,7 °C 4,8 km/h (1 Bft)
27.03.2025 06:09 21,5 °C 2,7 °C 47 % 93 % 1022,9 hPa 0,0 l/m² 4,4 km/h (1 Bft) SW 218 ° 0 min 7 W/m² 1,7 °C 2,7 °C 6,4 km/h (2 Bft)
27.03.2025 06:11 21,4 °C 2,7 °C 47 % 93 % 1023,0 hPa 0,0 l/m² 3,2 km/h (1 Bft) SW 218 ° 0 min 7 W/m² 1,7 °C 2,7 °C 4,8 km/h (1 Bft)
27.03.2025 06:12 21,5 °C 2,7 °C 47 % 93 % 1023,0 hPa 0,0 l/m² 1,8 km/h (1 Bft) SW 218 ° 0 min 9 W/m² 1,7 °C 2,7 °C 3,2 km/h (1 Bft)
27.03.2025 06:14 21,5 °C 2,7 °C 47 % 93 % 1022,9 hPa 0,0 l/m² 3,2 km/h (1 Bft) SW 218 ° 0 min 9 W/m² 1,7 °C 2,7 °C 4,8 km/h (1 Bft)
27.03.2025 06:16 21,4 °C 2,6 °C 47 % 93 % 1022,9 hPa 0,0 l/m² 4,7 km/h (1 Bft) SW 218 ° 0 min 11 W/m² 1,6 °C 2,6 °C 6,4 km/h (2 Bft)
27.03.2025 06:18 21,5 °C 2,6 °C 47 % 93 % 1022,9 hPa 0,0 l/m² 4,7 km/h (1 Bft) SW 218 ° 0 min 12 W/m² 1,6 °C 2,6 °C 6,4 km/h (2 Bft)
27.03.2025 06:20 21,5 °C 2,6 °C 47 % 93 % 1022,9 hPa 0,0 l/m² 3,8 km/h (1 Bft) SW 218 ° 0 min 14 W/m² 1,6 °C 2,6 °C 4,8 km/h (1 Bft)
27.03.2025 06:21 21,5 °C 2,6 °C 47 % 93 % 1022,9 hPa 0,0 l/m² 2,4 km/h (1 Bft) SW 218 ° 0 min 14 W/m² 1,6 °C 2,6 °C 4,8 km/h (1 Bft)
27.03.2025 06:22 21,5 °C 2,6 °C 47 % 93 % 1022,9 hPa 0,0 l/m² 2,5 km/h (1 Bft) SW 218 ° 0 min 16 W/m² 1,6 °C 2,6 °C 3,2 km/h (1 Bft)
27.03.2025 06:23 21,4 °C 2,6 °C 47 % 93 % 1022,9 hPa 0,0 l/m² 2,1 km/h (1 Bft) SW 218 ° 0 min 16 W/m² 1,6 °C 2,6 °C 3,2 km/h (1 Bft)
27.03.2025 06:25 21,5 °C 2,6 °C 47 % 93 % 1022,9 hPa 0,0 l/m² 1,6 km/h (1 Bft) SW 218 ° 0 min 18 W/m² 1,6 °C 2,6 °C 3,2 km/h (1 Bft)
27.03.2025 06:27 21,5 °C 2,6 °C 47 % 93 % 1023,0 hPa 0,0 l/m² 1,0 km/h (0 Bft) SW 218 ° 0 min 19 W/m² 1,6 °C 2,6 °C 3,2 km/h (1 Bft)
27.03.2025 06:29 21,4 °C 2,6 °C 47 % 93 % 1023,0 hPa 0,0 l/m² 0,0 km/h (0 Bft) SW 218 ° 0 min 23 W/m² 1,6 °C 2,6 °C 0,0 km/h (0 Bft)
27.03.2025 06:31 21,5 °C 2,6 °C 47 % 93 % 1022,9 hPa 0,0 l/m² 0,0 km/h (0 Bft) SW 218 ° 0 min 25 W/m² 1,6 °C 2,6 °C 0,0 km/h (0 Bft)
27.03.2025 06:32 21,5 °C 2,6 °C 47 % 93 % 1022,9 hPa 0,0 l/m² 0,0 km/h (0 Bft) SW 218 ° 0 min 26 W/m² 1,6 °C 2,6 °C 0,0 km/h (0 Bft)
27.03.2025 06:34 21,5 °C 2,6 °C 47 % 93 % 1022,9 hPa 0,0 l/m² 0,0 km/h (0 Bft) SW 218 ° 0 min 26 W/m² 1,6 °C 2,6 °C 0,0 km/h (0 Bft)
27.03.2025 06:36 21,5 °C 2,6 °C 47 % 93 % 1023,0 hPa 0,0 l/m² 0,4 km/h (0 Bft) SW 218 ° 0 min 30 W/m² 1,6 °C 2,6 °C 3,2 km/h (1 Bft)
27.03.2025 06:38 21,5 °C 2,6 °C 47 % 93 % 1022,9 hPa 0,0 l/m² 1,8 km/h (1 Bft) SW 218 ° 0 min 33 W/m² 1,6 °C 2,6 °C 3,2 km/h (1 Bft)
27.03.2025 06:40 21,5 °C 2,7 °C 47 % 93 % 1022,9 hPa 0,0 l/m² 1,5 km/h (1 Bft) SW 218 ° 0 min 35 W/m² 1,7 °C 2,7 °C 3,2 km/h (1 Bft)
27.03.2025 06:41 21,5 °C 2,7 °C 47 % 93 % 1022,9 hPa 0,0 l/m² 2,3 km/h (1 Bft) SW 218 ° 0 min 35 W/m² 1,7 °C 2,7 °C 3,2 km/h (1 Bft)
27.03.2025 06:43 21,5 °C 2,7 °C 47 % 93 % 1023,0 hPa 0,0 l/m² 1,2 km/h (1 Bft) SW 218 ° 0 min 37 W/m² 1,7 °C 2,7 °C 3,2 km/h (1 Bft)
27.03.2025 06:45 21,5 °C 2,8 °C 46 % 93 % 1022,9 hPa 0,0 l/m² 1,7 km/h (1 Bft) SW 218 ° 0 min 40 W/m² 1,8 °C 2,8 °C 3,2 km/h (1 Bft)
27.03.2025 06:48 21,5 °C 2,8 °C 46 % 93 % 1022,9 hPa 0,0 l/m² 0,8 km/h (0 Bft) SW 218 ° 0 min 46 W/m² 1,8 °C 2,8 °C 3,2 km/h (1 Bft)
27.03.2025 06:50 21,4 °C 2,8 °C 46 % 93 % 1022,9 hPa 0,0 l/m² 0,9 km/h (0 Bft) SW 218 ° 0 min 44 W/m² 1,8 °C 2,8 °C 3,2 km/h (1 Bft)
27.03.2025 06:51 21,4 °C 2,8 °C 46 % 93 % 1022,9 hPa 0,0 l/m² 0,0 km/h (0 Bft) SW 218 ° 0 min 46 W/m² 1,8 °C 2,8 °C 0,0 km/h (0 Bft)
27.03.2025 06:53 21,4 °C 2,8 °C 46 % 93 % 1022,9 hPa 0,0 l/m² 0,0 km/h (0 Bft) SW 218 ° 0 min 44 W/m² 1,8 °C 2,8 °C 0,0 km/h (0 Bft)
27.03.2025 06:55 21,4 °C 2,8 °C 46 % 93 % 1022,9 hPa 0,0 l/m² 0,0 km/h (0 Bft) SW 218 ° 2 min 53 W/m² 1,8 °C 2,8 °C 1,6 km/h (1 Bft)
27.03.2025 06:57 21,4 °C 2,8 °C 46 % 93 % 1022,9 hPa 0,0 l/m² 0,0 km/h (0 Bft) SW 218 ° 2 min 58 W/m² 1,8 °C 2,8 °C 1,6 km/h (1 Bft)
27.03.2025 06:59 21,4 °C 2,8 °C 46 % 93 % 1023,0 hPa 0,0 l/m² 0,1 km/h (0 Bft) SW 218 ° 2 min 58 W/m² 1,8 °C 2,8 °C 1,6 km/h (1 Bft)
27.03.2025 07:01 21,4 °C 2,9 °C 46 % 93 % 1023,0 hPa 0,0 l/m² 0,8 km/h (0 Bft) SW 218 ° 2 min 58 W/m² 1,9 °C 2,9 °C 3,2 km/h (1 Bft)
27.03.2025 07:02 21,4 °C 2,9 °C 46 % 93 % 1022,9 hPa 0,0 l/m² 0,7 km/h (0 Bft) SW 218 ° 1 min 54 W/m² 1,9 °C 2,9 °C 1,6 km/h (1 Bft)
27.03.2025 07:04 21,4 °C 3,1 °C 46 % 93 % 1023,0 hPa 0,0 l/m² 1,0 km/h (0 Bft) SW 218 ° 0 min 46 W/m² 2,1 °C 3,1 °C 3,2 km/h (1 Bft)
27.03.2025 07:06 21,4 °C 3,2 °C 46 % 93 % 1023,0 hPa 0,0 l/m² 1,9 km/h (1 Bft) SW 218 ° 0 min 42 W/m² 2,2 °C 3,2 °C 4,8 km/h (1 Bft)
27.03.2025 07:08 21,4 °C 3,2 °C 46 % 93 % 1023,1 hPa 0,0 l/m² 2,0 km/h (1 Bft) SW 218 ° 0 min 39 W/m² 2,2 °C 3,2 °C 3,2 km/h (1 Bft)
27.03.2025 07:10 21,4 °C 3,2 °C 46 % 93 % 1023,0 hPa 0,0 l/m² 2,5 km/h (1 Bft) SW 218 ° 0 min 44 W/m² 2,2 °C 3,2 °C 3,2 km/h (1 Bft)
27.03.2025 07:11 21,4 °C 3,2 °C 46 % 93 % 1023,0 hPa 0,0 l/m² 1,4 km/h (1 Bft) SW 218 ° 0 min 39 W/m² 2,2 °C 3,2 °C 3,2 km/h (1 Bft)
27.03.2025 07:13 21,4 °C 3,2 °C 46 % 93 % 1023,1 hPa 0,0 l/m² 0,0 km/h (0 Bft) SW 218 ° 0 min 42 W/m² 2,2 °C 3,2 °C 0,0 km/h (0 Bft)
27.03.2025 07:15 21,4 °C 3,3 °C 46 % 93 % 1023,1 hPa 0,0 l/m² 0,7 km/h (0 Bft) SW 218 ° 0 min 40 W/m² 2,3 °C 3,3 °C 3,2 km/h (1 Bft)
27.03.2025 07:17 21,4 °C 3,4 °C 45 % 93 % 1023,0 hPa 0,0 l/m² 0,3 km/h (0 Bft) SW 218 ° 0 min 47 W/m² 2,4 °C 3,4 °C 1,6 km/h (1 Bft)
27.03.2025 07:19 21,4 °C 3,4 °C 45 % 93 % 1023,0 hPa 0,0 l/m² 0,3 km/h (0 Bft) SW 218 ° 0 min 44 W/m² 2,4 °C 3,4 °C 1,6 km/h (1 Bft)
27.03.2025 07:21 21,4 °C 3,6 °C 45 % 93 % 1023,0 hPa 0,0 l/m² 1,0 km/h (0 Bft) SW 218 ° 0 min 39 W/m² 2,6 °C 3,6 °C 3,2 km/h (1 Bft)
27.03.2025 07:23 21,4 °C 3,6 °C 45 % 93 % 1023,1 hPa 0,0 l/m² 0,8 km/h (0 Bft) SW 218 ° 0 min 37 W/m² 2,6 °C 3,6 °C 3,2 km/h (1 Bft)
27.03.2025 07:25 21,4 °C 3,7 °C 45 % 93 % 1023,0 hPa 0,0 l/m² 1,6 km/h (1 Bft) SW 218 ° 0 min 42 W/m² 2,7 °C 3,7 °C 3,2 km/h (1 Bft)
27.03.2025 07:27 21,4 °C 3,7 °C 45 % 93 % 1023,0 hPa 0,0 l/m² 1,1 km/h (1 Bft) SW 218 ° 0 min 46 W/m² 2,7 °C 3,7 °C 3,2 km/h (1 Bft)
27.03.2025 07:29 21,4 °C 3,7 °C 45 % 93 % 1023,0 hPa 0,0 l/m² 1,5 km/h (1 Bft) SW 218 ° 0 min 40 W/m² 2,7 °C 3,7 °C 3,2 km/h (1 Bft)
27.03.2025 07:31 21,4 °C 3,7 °C 45 % 93 % 1023,0 hPa 0,0 l/m² 2,2 km/h (1 Bft) SW 218 ° 0 min 33 W/m² 2,7 °C 3,7 °C 4,8 km/h (1 Bft)
27.03.2025 07:33 21,4 °C 3,8 °C 45 % 93 % 1023,0 hPa 0,0 l/m² 0,9 km/h (0 Bft) SW 218 ° 0 min 35 W/m² 2,8 °C 3,8 °C 3,2 km/h (1 Bft)
27.03.2025 07:35 21,4 °C 3,8 °C 45 % 93 % 1023,0 hPa 0,0 l/m² 0,8 km/h (0 Bft) SW 218 ° 0 min 39 W/m² 2,8 °C 3,8 °C 3,2 km/h (1 Bft)
27.03.2025 07:37 21,4 °C 3,9 °C 45 % 93 % 1023,0 hPa 0,0 l/m² 1,5 km/h (1 Bft) SW 218 ° 0 min 49 W/m² 2,9 °C 3,9 °C 3,2 km/h (1 Bft)
27.03.2025 07:39 21,4 °C 3,9 °C 45 % 93 % 1023,0 hPa 0,0 l/m² 3,3 km/h (1 Bft) SW 218 ° 2 min 56 W/m² 2,9 °C 3,9 °C 4,8 km/h (1 Bft)
27.03.2025 07:41 21,4 °C 4,0 °C 45 % 93 % 1023,0 hPa 0,0 l/m² 2,3 km/h (1 Bft) SW 218 ° 2 min 60 W/m² 3,0 °C 4,0 °C 4,8 km/h (1 Bft)
27.03.2025 07:43 21,4 °C 4,1 °C 45 % 93 % 1023,0 hPa 0,0 l/m² 1,9 km/h (1 Bft) SW 218 ° 2 min 63 W/m² 3,1 °C 4,1 °C 4,8 km/h (1 Bft)
27.03.2025 07:45 21,4 °C 4,2 °C 45 % 93 % 1023,0 hPa 0,0 l/m² 1,5 km/h (1 Bft) SW 218 ° 2 min 60 W/m² 3,2 °C 4,2 °C 3,2 km/h (1 Bft)
27.03.2025 07:47 21,4 °C 4,2 °C 45 % 93 % 1023,0 hPa 0,0 l/m² 3,2 km/h (1 Bft) SW 218 ° 2 min 56 W/m² 3,2 °C 4,2 °C 6,4 km/h (2 Bft)
27.03.2025 07:49 21,4 °C 4,2 °C 45 % 93 % 1023,1 hPa 0,0 l/m² 4,0 km/h (1 Bft) SW 218 ° 2 min 56 W/m² 3,2 °C 4,2 °C 6,4 km/h (2 Bft)
27.03.2025 07:51 21,4 °C 4,3 °C 45 % 92 % 1023,1 hPa 0,0 l/m² 2,1 km/h (1 Bft) SW 218 ° 2 min 53 W/m² 3,1 °C 4,3 °C 3,2 km/h (1 Bft)
27.03.2025 07:53 21,4 °C 4,3 °C 45 % 93 % 1023,1 hPa 0,0 l/m² 0,9 km/h (0 Bft) SW 218 ° 0 min 49 W/m² 3,3 °C 4,3 °C 3,2 km/h (1 Bft)
27.03.2025 07:55 21,4 °C 4,4 °C 45 % 93 % 1023,1 hPa 0,0 l/m² 1,4 km/h (1 Bft) SW 218 ° 0 min 49 W/m² 3,4 °C 4,4 °C 4,8 km/h (1 Bft)
27.03.2025 07:57 21,4 °C 4,6 °C 45 % 93 % 1023,1 hPa 0,0 l/m² 0,9 km/h (0 Bft) SW 218 ° 2 min 53 W/m² 3,6 °C 4,6 °C 3,2 km/h (1 Bft)
27.03.2025 07:59 21,5 °C 4,7 °C 45 % 93 % 1023,2 hPa 0,0 l/m² 0,6 km/h (0 Bft) SW 218 ° 2 min 56 W/m² 3,7 °C 4,7 °C 3,2 km/h (1 Bft)
27.03.2025 08:01 21,4 °C 4,7 °C 45 % 92 % 1023,0 hPa 0,0 l/m² 4,3 km/h (1 Bft) W 268 ° 2 min 54 W/m² 3,5 °C 4,7 °C 6,4 km/h (2 Bft)
27.03.2025 08:03 21,4 °C 4,7 °C 45 % 92 % 1023,0 hPa 0,0 l/m² 3,8 km/h (1 Bft) W 272 ° 2 min 56 W/m² 3,5 °C 4,7 °C 6,4 km/h (2 Bft)
27.03.2025 08:05 21,4 °C 4,8 °C 45 % 92 % 1023,1 hPa 0,0 l/m² 1,1 km/h (1 Bft) W 273 ° 2 min 56 W/m² 3,6 °C 4,8 °C 3,2 km/h (1 Bft)
27.03.2025 08:07 21,4 °C 4,8 °C 45 % 92 % 1023,1 hPa 0,0 l/m² 3,6 km/h (1 Bft) W 273 ° 2 min 58 W/m² 3,6 °C 4,8 °C 6,4 km/h (2 Bft)
27.03.2025 08:09 21,4 °C 4,8 °C 45 % 92 % 1023,1 hPa 0,0 l/m² 4,7 km/h (1 Bft) N-NW 329 ° 2 min 63 W/m² 3,6 °C 4,8 °C 11,3 km/h (2 Bft)
27.03.2025 08:11 21,4 °C 4,8 °C 45 % 92 % 1023,2 hPa 0,0 l/m² 6,3 km/h (2 Bft) NW 312 ° 2 min 60 W/m² 3,6 °C 4,8 °C 9,7 km/h (2 Bft)
27.03.2025 08:13 21,5 °C 4,9 °C 45 % 91 % 1023,1 hPa 0,0 l/m² 3,8 km/h (1 Bft) W 271 ° 0 min 44 W/m² 3,6 °C 4,9 °C 6,4 km/h (2 Bft)
27.03.2025 08:15 21,5 °C 4,9 °C 45 % 91 % 1023,2 hPa 0,0 l/m² 2,8 km/h (1 Bft) W 271 ° 0 min 42 W/m² 3,6 °C 4,9 °C 6,4 km/h (2 Bft)
27.03.2025 08:17 21,5 °C 4,9 °C 45 % 91 % 1023,2 hPa 0,0 l/m² 4,8 km/h (1 Bft) W 271 ° 0 min 46 W/m² 3,6 °C 4,9 °C 6,4 km/h (2 Bft)
27.03.2025 08:19 21,5 °C 4,9 °C 45 % 91 % 1023,2 hPa 0,0 l/m² 7,9 km/h (2 Bft) W-NW 282 ° 0 min 44 W/m² 3,6 °C 3,6 °C 12,9 km/h (3 Bft)
27.03.2025 08:20 21,5 °C 4,9 °C 45 % 91 % 1023,2 hPa 0,0 l/m² 6,1 km/h (2 Bft) W 277 ° 0 min 47 W/m² 3,6 °C 4,9 °C 9,7 km/h (2 Bft)
27.03.2025 08:22 21,5 °C 4,9 °C 45 % 91 % 1023,2 hPa 0,0 l/m² 2,8 km/h (1 Bft) NW 318 ° 2 min 53 W/m² 3,6 °C 4,9 °C 6,4 km/h (2 Bft)
27.03.2025 08:24 21,5 °C 4,9 °C 45 % 91 % 1023,1 hPa 0,0 l/m² 3,4 km/h (1 Bft) NW 312 ° 0 min 49 W/m² 3,6 °C 4,9 °C 8,0 km/h (2 Bft)
27.03.2025 08:26 21,5 °C 4,9 °C 45 % 91 % 1023,3 hPa 0,0 l/m² 3,8 km/h (1 Bft) W-NW 299 ° 0 min 42 W/m² 3,6 °C 4,9 °C 6,4 km/h (2 Bft)
27.03.2025 08:28 21,5 °C 4,9 °C 45 % 91 % 1023,2 hPa 0,0 l/m² 2,4 km/h (1 Bft) W-NW 297 ° 0 min 44 W/m² 3,6 °C 4,9 °C 6,4 km/h (2 Bft)
27.03.2025 08:30 21,5 °C 5,0 °C 45 % 91 % 1023,2 hPa 0,0 l/m² 0,0 km/h (0 Bft) W-NW 297 ° 0 min 49 W/m² 3,7 °C 5,0 °C 0,0 km/h (0 Bft)
27.03.2025 08:32 21,5 °C 5,0 °C 45 % 91 % 1023,2 hPa 0,0 l/m² 2,5 km/h (1 Bft) W-NW 295 ° 0 min 47 W/m² 3,7 °C 5,0 °C 4,8 km/h (1 Bft)
27.03.2025 08:34 21,5 °C 5,1 °C 45 % 91 % 1023,3 hPa 0,0 l/m² 1,5 km/h (1 Bft) W-NW 297 ° 0 min 46 W/m² 3,8 °C 5,1 °C 4,8 km/h (1 Bft)
27.03.2025 08:36 21,5 °C 5,1 °C 45 % 91 % 1023,3 hPa 0,0 l/m² 6,0 km/h (2 Bft) W-SW 254 ° 0 min 46 W/m² 3,8 °C 5,1 °C 11,3 km/h (2 Bft)
27.03.2025 08:38 21,5 °C 5,1 °C 45 % 90 % 1023,3 hPa 0,0 l/m² 7,3 km/h (2 Bft) W 261 ° 0 min 46 W/m² 3,6 °C 4,3 °C 12,9 km/h (3 Bft)
27.03.2025 08:40 21,5 °C 5,0 °C 45 % 90 % 1023,3 hPa 0,0 l/m² 3,6 km/h (1 Bft) W-NW 286 ° 0 min 46 W/m² 3,5 °C 5,0 °C 6,4 km/h (2 Bft)
27.03.2025 08:42 21,5 °C 5,0 °C 45 % 90 % 1023,3 hPa 0,0 l/m² 4,7 km/h (1 Bft) N-NW 328 ° 2 min 54 W/m² 3,5 °C 5,0 °C 8,0 km/h (2 Bft)
27.03.2025 08:44 21,5 °C 5,0 °C 45 % 90 % 1023,3 hPa 0,0 l/m² 4,9 km/h (1 Bft) N-NW 338 ° 2 min 62 W/m² 3,5 °C 5,0 °C 6,4 km/h (2 Bft)
27.03.2025 08:46 21,5 °C 5,0 °C 45 % 90 % 1023,3 hPa 0,0 l/m² 3,2 km/h (1 Bft) N-NW 341 ° 2 min 63 W/m² 3,5 °C 5,0 °C 6,4 km/h (2 Bft)
27.03.2025 08:48 21,5 °C 5,0 °C 45 % 90 % 1023,3 hPa 0,0 l/m² 4,0 km/h (1 Bft) N-NW 341 ° 2 min 65 W/m² 3,5 °C 5,0 °C 6,4 km/h (2 Bft)
27.03.2025 08:50 21,5 °C 5,1 °C 45 % 90 % 1023,3 hPa 0,0 l/m² 1,3 km/h (1 Bft) N-NW 341 ° 2 min 63 W/m² 3,6 °C 5,1 °C 3,2 km/h (1 Bft)
27.03.2025 08:52 21,5 °C 5,2 °C 45 % 91 % 1023,4 hPa 0,0 l/m² 5,1 km/h (1 Bft) W 262 ° 2 min 65 W/m² 3,9 °C 5,2 °C 11,3 km/h (2 Bft)
27.03.2025 08:54 21,5 °C 5,3 °C 45 % 90 % 1023,4 hPa 0,0 l/m² 7,0 km/h (2 Bft) W-SW 255 ° 2 min 69 W/m² 3,8 °C 4,8 °C 11,3 km/h (2 Bft)
27.03.2025 08:56 21,5 °C 5,3 °C 45 % 90 % 1023,4 hPa 0,0 l/m² 7,1 km/h (2 Bft) W 274 ° 2 min 70 W/m² 3,8 °C 4,7 °C 11,3 km/h (2 Bft)
27.03.2025 08:58 21,6 °C 5,2 °C 45 % 90 % 1023,4 hPa 0,0 l/m² 7,7 km/h (2 Bft) W 267 ° 2 min 72 W/m² 3,7 °C 4,1 °C 12,9 km/h (3 Bft)
27.03.2025 09:00 21,5 °C 5,2 °C 45 % 90 % 1023,5 hPa 0,0 l/m² 4,2 km/h (1 Bft) W 265 ° 2 min 76 W/m² 3,7 °C 5,2 °C 6,4 km/h (2 Bft)
27.03.2025 09:02 21,5 °C 5,2 °C 45 % 90 % 1023,4 hPa 0,0 l/m² 1,8 km/h (1 Bft) W 265 ° 2 min 76 W/m² 3,7 °C 5,2 °C 4,8 km/h (1 Bft)
27.03.2025 09:04 21,5 °C 5,2 °C 45 % 90 % 1023,4 hPa 0,0 l/m² 0,0 km/h (0 Bft) W 265 ° 2 min 81 W/m² 3,7 °C 5,2 °C 0,0 km/h (0 Bft)
27.03.2025 09:06 21,5 °C 5,3 °C 45 % 90 % 1023,4 hPa 0,0 l/m² 0,4 km/h (0 Bft) W 265 ° 2 min 77 W/m² 3,8 °C 5,3 °C 3,2 km/h (1 Bft)
27.03.2025 09:08 21,5 °C 5,4 °C 45 % 90 % 1023,4 hPa 0,0 l/m² 1,9 km/h (1 Bft) W 265 ° 2 min 79 W/m² 3,9 °C 5,4 °C 6,4 km/h (2 Bft)
27.03.2025 09:10 21,5 °C 5,4 °C 45 % 90 % 1023,3 hPa 0,0 l/m² 3,3 km/h (1 Bft) W 265 ° 2 min 86 W/m² 3,9 °C 5,4 °C 6,4 km/h (2 Bft)
27.03.2025 09:12 21,5 °C 5,4 °C 45 % 90 % 1023,4 hPa 0,0 l/m² 4,8 km/h (1 Bft) W 263 ° 2 min 90 W/m² 3,9 °C 5,4 °C 11,3 km/h (2 Bft)
27.03.2025 09:14 21,5 °C 5,4 °C 45 % 89 % 1023,3 hPa 0,0 l/m² 5,6 km/h (2 Bft) W 275 ° 2 min 93 W/m² 3,7 °C 5,4 °C 9,7 km/h (2 Bft)
27.03.2025 09:16 21,5 °C 5,4 °C 45 % 89 % 1023,4 hPa 0,0 l/m² 1,4 km/h (1 Bft) W 275 ° 2 min 102 W/m² 3,7 °C 5,4 °C 4,8 km/h (1 Bft)
27.03.2025 09:18 21,5 °C 5,4 °C 45 % 89 % 1023,4 hPa 0,0 l/m² 0,5 km/h (0 Bft) W 275 ° 2 min 100 W/m² 3,7 °C 5,4 °C 1,6 km/h (1 Bft)
27.03.2025 09:20 21,5 °C 5,4 °C 45 % 89 % 1023,4 hPa 0,0 l/m² 2,6 km/h (1 Bft) W 275 ° 2 min 91 W/m² 3,7 °C 5,4 °C 4,8 km/h (1 Bft)
27.03.2025 09:22 21,5 °C 5,5 °C 45 % 89 % 1023,4 hPa 0,0 l/m² 0,6 km/h (0 Bft) W 275 ° 2 min 91 W/m² 3,8 °C 5,5 °C 3,2 km/h (1 Bft)
27.03.2025 09:24 21,5 °C 5,5 °C 45 % 89 % 1023,4 hPa 0,0 l/m² 5,2 km/h (1 Bft) W 267 ° 2 min 91 W/m² 3,8 °C 5,5 °C 11,3 km/h (2 Bft)
27.03.2025 09:26 21,5 °C 5,6 °C 45 % 89 % 1023,4 hPa 0,0 l/m² 5,1 km/h (1 Bft) W-SW 250 ° 2 min 98 W/m² 3,9 °C 5,6 °C 9,7 km/h (2 Bft)
27.03.2025 09:28 21,5 °C 5,7 °C 45 % 89 % 1023,4 hPa 0,0 l/m² 4,8 km/h (1 Bft) W 267 ° 2 min 109 W/m² 4,0 °C 5,7 °C 8,0 km/h (2 Bft)
27.03.2025 09:30 21,5 °C 5,7 °C 45 % 88 % 1023,4 hPa 0,0 l/m² 2,1 km/h (1 Bft) W 267 ° 2 min 105 W/m² 3,9 °C 5,7 °C 4,8 km/h (1 Bft)
27.03.2025 09:32 21,5 °C 5,7 °C 45 % 88 % 1023,5 hPa 0,0 l/m² 2,6 km/h (1 Bft) W 267 ° 2 min 98 W/m² 3,9 °C 5,7 °C 4,8 km/h (1 Bft)
27.03.2025 09:34 21,5 °C 5,6 °C 45 % 88 % 1023,4 hPa 0,0 l/m² 1,3 km/h (1 Bft) W 266 ° 2 min 100 W/m² 3,8 °C 5,6 °C 3,2 km/h (1 Bft)
27.03.2025 09:36 21,4 °C 5,6 °C 45 % 88 % 1023,5 hPa 0,0 l/m² 0,3 km/h (0 Bft) W 266 ° 2 min 105 W/m² 3,8 °C 5,6 °C 1,6 km/h (1 Bft)
27.03.2025 09:38 21,5 °C 5,7 °C 45 % 89 % 1023,5 hPa 0,0 l/m² 1,0 km/h (0 Bft) W 268 ° 2 min 104 W/m² 4,0 °C 5,7 °C 4,8 km/h (1 Bft)
27.03.2025 09:40 21,5 °C 5,7 °C 45 % 89 % 1023,5 hPa 0,0 l/m² 1,3 km/h (1 Bft) W 268 ° 2 min 104 W/m² 4,0 °C 5,7 °C 4,8 km/h (1 Bft)
27.03.2025 09:42 21,5 °C 5,7 °C 45 % 88 % 1023,6 hPa 0,0 l/m² 3,7 km/h (1 Bft) W 270 ° 2 min 102 W/m² 3,9 °C 5,7 °C 6,4 km/h (2 Bft)
27.03.2025 09:44 21,5 °C 5,8 °C 45 % 88 % 1023,5 hPa 0,0 l/m² 2,7 km/h (1 Bft) W 270 ° 2 min 104 W/m² 4,0 °C 5,8 °C 6,4 km/h (2 Bft)
27.03.2025 09:45 21,5 °C 5,8 °C 45 % 88 % 1023,5 hPa 0,0 l/m² 3,2 km/h (1 Bft) W 270 ° 1 min 111 W/m² 4,0 °C 5,8 °C 4,8 km/h (1 Bft)
27.03.2025 09:46 21,5 °C 5,7 °C 45 % 87 % 1023,5 hPa 0,0 l/m² 2,2 km/h (1 Bft) W 270 ° 1 min 113 W/m² 3,7 °C 5,7 °C 4,8 km/h (1 Bft)
27.03.2025 09:47 21,5 °C 5,8 °C 45 % 88 % 1023,5 hPa 0,0 l/m² 2,4 km/h (1 Bft) W 270 ° 1 min 113 W/m² 4,0 °C 5,8 °C 4,8 km/h (1 Bft)
27.03.2025 09:49 21,5 °C 5,8 °C 45 % 88 % 1023,5 hPa 0,0 l/m² 4,7 km/h (1 Bft) W 271 ° 2 min 111 W/m² 4,0 °C 5,8 °C 6,4 km/h (2 Bft)
27.03.2025 09:51 21,5 °C 5,8 °C 45 % 87 % 1023,4 hPa 0,0 l/m² 3,7 km/h (1 Bft) W 271 ° 2 min 109 W/m² 3,8 °C 5,8 °C 6,4 km/h (2 Bft)
27.03.2025 09:53 21,5 °C 5,8 °C 45 % 87 % 1023,5 hPa 0,0 l/m² 3,9 km/h (1 Bft) W 276 ° 2 min 118 W/m² 3,8 °C 5,8 °C 6,4 km/h (2 Bft)
27.03.2025 09:55 21,5 °C 5,9 °C 45 % 87 % 1023,5 hPa 0,0 l/m² 2,7 km/h (1 Bft) W 278 ° 2 min 118 W/m² 3,9 °C 5,9 °C 6,4 km/h (2 Bft)
27.03.2025 09:57 21,5 °C 5,9 °C 45 % 87 % 1023,5 hPa 0,0 l/m² 2,9 km/h (1 Bft) W 277 ° 2 min 120 W/m² 3,9 °C 5,9 °C 6,4 km/h (2 Bft)
27.03.2025 09:59 21,5 °C 5,9 °C 45 % 87 % 1023,5 hPa 0,0 l/m² 0,8 km/h (0 Bft) W 277 ° 2 min 123 W/m² 3,9 °C 5,9 °C 3,2 km/h (1 Bft)
27.03.2025 10:01 21,5 °C 6,1 °C 45 % 87 % 1023,5 hPa 0,0 l/m² 1,0 km/h (0 Bft) W 277 ° 2 min 123 W/m² 4,1 °C 6,1 °C 3,2 km/h (1 Bft)
27.03.2025 10:03 21,5 °C 6,1 °C 45 % 87 % 1023,6 hPa 0,0 l/m² 0,4 km/h (0 Bft) W 277 ° 2 min 118 W/m² 4,1 °C 6,1 °C 1,6 km/h (1 Bft)
27.03.2025 10:05 21,4 °C 6,2 °C 45 % 87 % 1023,6 hPa 0,0 l/m² 0,7 km/h (0 Bft) W 277 ° 2 min 113 W/m² 4,2 °C 6,2 °C 3,2 km/h (1 Bft)
27.03.2025 10:07 21,4 °C 6,1 °C 45 % 87 % 1023,6 hPa 0,0 l/m² 0,1 km/h (0 Bft) W 277 ° 2 min 107 W/m² 4,1 °C 6,1 °C 1,6 km/h (1 Bft)
27.03.2025 10:09 21,5 °C 6,2 °C 45 % 88 % 1023,6 hPa 0,0 l/m² 0,0 km/h (0 Bft) W 277 ° 2 min 102 W/m² 4,4 °C 6,2 °C 0,0 km/h (0 Bft)
27.03.2025 10:11 21,5 °C 6,2 °C 45 % 88 % 1023,6 hPa 0,0 l/m² 0,3 km/h (0 Bft) W 277 ° 2 min 104 W/m² 4,4 °C 6,2 °C 1,6 km/h (1 Bft)
27.03.2025 10:13 21,5 °C 6,3 °C 45 % 88 % 1023,6 hPa 0,0 l/m² 0,2 km/h (0 Bft) W 277 ° 2 min 105 W/m² 4,5 °C 6,3 °C 1,6 km/h (1 Bft)
27.03.2025 10:15 21,5 °C 6,3 °C 45 % 87 % 1023,5 hPa 0,0 l/m² 1,6 km/h (1 Bft) W 277 ° 2 min 111 W/m² 4,3 °C 6,3 °C 3,2 km/h (1 Bft)
27.03.2025 10:17 21,5 °C 6,2 °C 45 % 87 % 1023,5 hPa 0,0 l/m² 1,6 km/h (1 Bft) W 277 ° 2 min 118 W/m² 4,2 °C 6,2 °C 3,2 km/h (1 Bft)
27.03.2025 10:19 21,5 °C 6,1 °C 45 % 87 % 1023,5 hPa 0,0 l/m² 1,2 km/h (1 Bft) W 277 ° 2 min 132 W/m² 4,1 °C 6,1 °C 3,2 km/h (1 Bft)
27.03.2025 10:21 21,5 °C 6,2 °C 45 % 87 % 1023,5 hPa 0,0 l/m² 0,3 km/h (0 Bft) W 277 ° 2 min 144 W/m² 4,2 °C 6,2 °C 1,6 km/h (1 Bft)
27.03.2025 10:23 21,5 °C 6,2 °C 45 % 87 % 1023,5 hPa 0,0 l/m² 0,7 km/h (0 Bft) W 277 ° 2 min 139 W/m² 4,2 °C 6,2 °C 3,2 km/h (1 Bft)
27.03.2025 10:25 21,4 °C 6,2 °C 45 % 87 % 1023,5 hPa 0,0 l/m² 0,1 km/h (0 Bft) W 277 ° 2 min 137 W/m² 4,2 °C 6,2 °C 1,6 km/h (1 Bft)
27.03.2025 10:27 21,4 °C 6,2 °C 45 % 87 % 1023,5 hPa 0,0 l/m² 0,0 km/h (0 Bft) W 277 ° 2 min 139 W/m² 4,2 °C 6,2 °C 0,0 km/h (0 Bft)
27.03.2025 10:29 21,5 °C 6,3 °C 45 % 87 % 1023,5 hPa 0,0 l/m² 0,0 km/h (0 Bft) W 277 ° 2 min 142 W/m² 4,3 °C 6,3 °C 0,0 km/h (0 Bft)
27.03.2025 10:31 21,5 °C 6,4 °C 45 % 87 % 1023,5 hPa 0,0 l/m² 0,0 km/h (0 Bft) W 277 ° 2 min 144 W/m² 4,4 °C 6,4 °C 0,0 km/h (0 Bft)
27.03.2025 10:33 21,5 °C 6,5 °C 45 % 87 % 1023,4 hPa 0,0 l/m² 1,2 km/h (1 Bft) W 277 ° 2 min 151 W/m² 4,5 °C 6,5 °C 4,8 km/h (1 Bft)
27.03.2025 10:35 21,4 °C 6,6 °C 45 % 87 % 1023,4 hPa 0,0 l/m² 1,9 km/h (1 Bft) W 277 ° 2 min 163 W/m² 4,6 °C 6,6 °C 4,8 km/h (1 Bft)
27.03.2025 10:37 21,4 °C 6,7 °C 45 % 87 % 1023,3 hPa 0,0 l/m² 2,3 km/h (1 Bft) W 277 ° 2 min 174 W/m² 4,7 °C 6,7 °C 3,2 km/h (1 Bft)
27.03.2025 10:39 21,5 °C 6,7 °C 45 % 87 % 1023,4 hPa 0,0 l/m² 0,2 km/h (0 Bft) W 277 ° 2 min 179 W/m² 4,7 °C 6,7 °C 1,6 km/h (1 Bft)
27.03.2025 10:41 21,4 °C 6,7 °C 45 % 87 % 1023,3 hPa 0,0 l/m² 0,1 km/h (0 Bft) W 277 ° 2 min 193 W/m² 4,7 °C 6,7 °C 1,6 km/h (1 Bft)
27.03.2025 10:43 21,4 °C 6,8 °C 45 % 86 % 1023,3 hPa 0,0 l/m² 1,6 km/h (1 Bft) W 277 ° 2 min 188 W/m² 4,6 °C 6,8 °C 3,2 km/h (1 Bft)
27.03.2025 10:45 21,4 °C 6,7 °C 45 % 86 % 1023,2 hPa 0,0 l/m² 1,6 km/h (1 Bft) W 277 ° 2 min 195 W/m² 4,5 °C 6,7 °C 3,2 km/h (1 Bft)
27.03.2025 10:47 21,5 °C 6,8 °C 45 % 86 % 1023,3 hPa 0,0 l/m² 0,1 km/h (0 Bft) W 277 ° 2 min 225 W/m² 4,6 °C 6,8 °C 1,6 km/h (1 Bft)
27.03.2025 10:49 21,5 °C 7,0 °C 45 % 86 % 1023,2 hPa 0,0 l/m² 0,6 km/h (0 Bft) W 277 ° 2 min 241 W/m² 4,8 °C 7,0 °C 3,2 km/h (1 Bft)
27.03.2025 10:51 21,4 °C 7,3 °C 45 % 86 % 1023,2 hPa 0,0 l/m² 2,0 km/h (1 Bft) W 277 ° 2 min 202 W/m² 5,1 °C 7,3 °C 4,8 km/h (1 Bft)
27.03.2025 10:53 21,5 °C 7,3 °C 45 % 85 % 1023,2 hPa 0,0 l/m² 3,7 km/h (1 Bft) SW 223 ° 2 min 193 W/m² 4,9 °C 7,3 °C 6,4 km/h (2 Bft)
27.03.2025 10:55 21,5 °C 7,4 °C 45 % 85 % 1023,1 hPa 0,0 l/m² 0,8 km/h (0 Bft) SW 223 ° 2 min 207 W/m² 5,0 °C 7,4 °C 4,8 km/h (1 Bft)
27.03.2025 10:57 21,5 °C 7,6 °C 45 % 86 % 1023,2 hPa 0,0 l/m² 1,4 km/h (1 Bft) SW 221 ° 2 min 186 W/m² 5,4 °C 7,6 °C 3,2 km/h (1 Bft)
27.03.2025 10:59 21,5 °C 7,6 °C 45 % 84 % 1023,2 hPa 0,0 l/m² 1,4 km/h (1 Bft) SW 221 ° 2 min 186 W/m² 5,1 °C 7,6 °C 3,2 km/h (1 Bft)
27.03.2025 11:01 21,5 °C 7,7 °C 45 % 84 % 1023,2 hPa 0,0 l/m² 2,7 km/h (1 Bft) SW 221 ° 2 min 410 W/m² 5,2 °C 7,7 °C 4,8 km/h (1 Bft)
27.03.2025 11:03 21,5 °C 7,7 °C 45 % 84 % 1023,1 hPa 0,0 l/m² 1,5 km/h (1 Bft) S-SW 213 ° 2 min 343 W/m² 5,2 °C 7,7 °C 4,8 km/h (1 Bft)
27.03.2025 11:05 21,6 °C 8,0 °C 45 % 84 % 1023,1 hPa 0,0 l/m² 2,6 km/h (1 Bft) SO 126 ° 2 min 294 W/m² 5,5 °C 8,0 °C 8,0 km/h (2 Bft)
27.03.2025 11:06 21,6 °C 8,2 °C 45 % 84 % 1023,1 hPa 0,0 l/m² 5,0 km/h (1 Bft) S-SO 147 ° 1 min 294 W/m² 5,7 °C 8,2 °C 8,0 km/h (2 Bft)
27.03.2025 11:08 21,6 °C 8,4 °C 45 % 85 % 1023,1 hPa 0,0 l/m² 5,0 km/h (1 Bft) SO 143 ° 2 min 279 W/m² 6,0 °C 8,4 °C 8,0 km/h (2 Bft)
27.03.2025 11:10 21,6 °C 8,5 °C 45 % 84 % 1023,1 hPa 0,0 l/m² 2,3 km/h (1 Bft) S-SO 159 ° 2 min 274 W/m² 6,0 °C 8,5 °C 6,4 km/h (2 Bft)
27.03.2025 11:12 21,6 °C 8,4 °C 45 % 82 % 1023,1 hPa 0,0 l/m² 0,9 km/h (0 Bft) S-SO 159 ° 2 min 450 W/m² 5,5 °C 8,4 °C 6,4 km/h (2 Bft)
27.03.2025 11:14 21,6 °C 8,6 °C 45 % 84 % 1023,1 hPa 0,0 l/m² 4,7 km/h (1 Bft) S-SO 160 ° 2 min 459 W/m² 6,1 °C 8,6 °C 8,0 km/h (2 Bft)
27.03.2025 11:16 21,6 °C 8,9 °C 45 % 85 % 1023,2 hPa 0,0 l/m² 4,9 km/h (1 Bft) W-SW 240 ° 2 min 448 W/m² 6,5 °C 8,9 °C 8,0 km/h (2 Bft)
27.03.2025 11:18 21,6 °C 8,8 °C 45 % 81 % 1023,1 hPa 0,0 l/m² 2,8 km/h (1 Bft) S-SW 199 ° 2 min 452 W/m² 5,7 °C 8,8 °C 8,0 km/h (2 Bft)
27.03.2025 11:20 21,6 °C 8,9 °C 45 % 82 % 1023,0 hPa 0,0 l/m² 0,8 km/h (0 Bft) W-SW 248 ° 2 min 464 W/m² 6,0 °C 8,9 °C 3,2 km/h (1 Bft)
27.03.2025 11:22 21,6 °C 9,2 °C 45 % 81 % 1023,1 hPa 0,0 l/m² 3,6 km/h (1 Bft) S-SW 205 ° 2 min 461 W/m² 6,1 °C 9,2 °C 6,4 km/h (2 Bft)
27.03.2025 11:24 21,6 °C 9,2 °C 45 % 81 % 1023,1 hPa 0,0 l/m² 3,0 km/h (1 Bft) S-SW 210 ° 2 min 475 W/m² 6,1 °C 9,2 °C 4,8 km/h (1 Bft)
27.03.2025 11:26 21,6 °C 9,1 °C 45 % 81 % 1023,1 hPa 0,0 l/m² 3,3 km/h (1 Bft) S 179 ° 2 min 468 W/m² 6,0 °C 9,1 °C 6,4 km/h (2 Bft)
27.03.2025 11:28 21,6 °C 9,3 °C 45 % 83 % 1023,0 hPa 0,0 l/m² 6,5 km/h (2 Bft) S 188 ° 2 min 420 W/m² 6,6 °C 9,3 °C 9,7 km/h (2 Bft)
27.03.2025 11:30 21,7 °C 9,3 °C 45 % 83 % 1023,1 hPa 0,0 l/m² 6,9 km/h (2 Bft) SW 217 ° 2 min 422 W/m² 6,6 °C 8,9 °C 11,3 km/h (2 Bft)
27.03.2025 11:31 21,7 °C 9,3 °C 45 % 82 % 1023,0 hPa 0,0 l/m² 7,6 km/h (2 Bft) S-SW 196 ° 1 min 420 W/m² 6,4 °C 8,4 °C 11,3 km/h (2 Bft)
27.03.2025 11:33 21,7 °C 9,2 °C 45 % 82 % 1023,0 hPa 0,0 l/m² 2,6 km/h (1 Bft) S-SW 196 ° 2 min 411 W/m² 6,3 °C 9,2 °C 4,8 km/h (1 Bft)
27.03.2025 11:35 21,7 °C 9,1 °C 45 % 82 % 1023,0 hPa 0,0 l/m² 1,7 km/h (1 Bft) S-SW 196 ° 2 min 448 W/m² 6,2 °C 9,1 °C 3,2 km/h (1 Bft)
27.03.2025 11:37 21,7 °C 9,0 °C 45 % 81 % 1023,0 hPa 0,0 l/m² 2,3 km/h (1 Bft) S-SW 196 ° 2 min 475 W/m² 5,9 °C 9,0 °C 4,8 km/h (1 Bft)
27.03.2025 11:39 21,7 °C 9,4 °C 45 % 83 % 1023,0 hPa 0,0 l/m² 3,6 km/h (1 Bft) S-SW 195 ° 2 min 446 W/m² 6,7 °C 9,4 °C 6,4 km/h (2 Bft)
27.03.2025 11:41 21,7 °C 9,4 °C 45 % 82 % 1023,0 hPa 0,0 l/m² 3,3 km/h (1 Bft) S 174 ° 2 min 230 W/m² 6,5 °C 9,4 °C 6,4 km/h (2 Bft)
27.03.2025 11:43 21,7 °C 9,4 °C 45 % 81 % 1022,9 hPa 0,0 l/m² 5,4 km/h (2 Bft) SO 130 ° 2 min 165 W/m² 6,3 °C 9,4 °C 8,0 km/h (2 Bft)
27.03.2025 11:45 21,7 °C 9,5 °C 45 % 81 % 1022,9 hPa 0,0 l/m² 3,9 km/h (1 Bft) SO 128 ° 2 min 330 W/m² 6,4 °C 9,5 °C 6,4 km/h (2 Bft)
27.03.2025 11:47 21,7 °C 9,5 °C 45 % 80 % 1022,8 hPa 0,0 l/m² 4,7 km/h (1 Bft) O-SO 119 ° 2 min 378 W/m² 6,2 °C 9,5 °C 6,4 km/h (2 Bft)
27.03.2025 11:49 21,7 °C 9,4 °C 45 % 80 % 1022,8 hPa 0,0 l/m² 4,3 km/h (1 Bft) O-SO 119 ° 2 min 378 W/m² 6,1 °C 9,4 °C 4,8 km/h (1 Bft)
27.03.2025 11:51 21,7 °C 9,5 °C 45 % 81 % 1022,8 hPa 0,0 l/m² 1,5 km/h (1 Bft) O-SO 119 ° 2 min 411 W/m² 6,4 °C 9,5 °C 4,8 km/h (1 Bft)
27.03.2025 11:53 21,7 °C 9,6 °C 45 % 82 % 1022,7 hPa 0,0 l/m² 0,9 km/h (0 Bft) O-SO 119 ° 2 min 422 W/m² 6,7 °C 9,6 °C 3,2 km/h (1 Bft)
27.03.2025 11:55 21,7 °C 9,9 °C 45 % 83 % 1022,7 hPa 0,0 l/m² 4,7 km/h (1 Bft) O-SO 117 ° 2 min 299 W/m² 7,2 °C 9,9 °C 6,4 km/h (2 Bft)
27.03.2025 11:57 21,7 °C 10,1 °C 45 % 81 % 1022,8 hPa 0,0 l/m² 3,4 km/h (1 Bft) O-SO 119 ° 2 min 336 W/m² 7,0 °C 10,1 °C 6,4 km/h (2 Bft)
27.03.2025 11:59 21,7 °C 9,9 °C 45 % 79 % 1022,8 hPa 0,0 l/m² 2,6 km/h (1 Bft) O-SO 111 ° 2 min 387 W/m² 6,4 °C 9,9 °C 9,7 km/h (2 Bft)
27.03.2025 12:01 21,7 °C 9,8 °C 45 % 80 % 1022,7 hPa 0,0 l/m² 2,3 km/h (1 Bft) O-SO 110 ° 2 min 209 W/m² 6,5 °C 9,8 °C 6,4 km/h (2 Bft)
27.03.2025 12:03 21,7 °C 10,1 °C 45 % 83 % 1022,7 hPa 0,0 l/m² 4,6 km/h (1 Bft) O-SO 103 ° 2 min 399 W/m² 7,3 °C 10,1 °C 6,4 km/h (2 Bft)
27.03.2025 12:05 21,7 °C 10,5 °C 45 % 82 % 1022,6 hPa 0,0 l/m² 5,0 km/h (1 Bft) O 96 ° 2 min 452 W/m² 7,6 °C 10,5 °C 9,7 km/h (2 Bft)
27.03.2025 12:07 21,7 °C 10,4 °C 45 % 80 % 1022,7 hPa 0,0 l/m² 5,0 km/h (1 Bft) S-SO 163 ° 2 min 418 W/m² 7,1 °C 10,4 °C 9,7 km/h (2 Bft)
27.03.2025 12:09 21,7 °C 9,8 °C 45 % 77 % 1022,6 hPa 0,0 l/m² 3,5 km/h (1 Bft) S-SO 164 ° 2 min 251 W/m² 6,0 °C 9,8 °C 8,0 km/h (2 Bft)
27.03.2025 12:11 21,7 °C 9,8 °C 45 % 79 % 1022,6 hPa 0,0 l/m² 0,0 km/h (0 Bft) S-SO 164 ° 2 min 378 W/m² 6,3 °C 9,8 °C 1,6 km/h (1 Bft)
27.03.2025 12:13 21,7 °C 10,2 °C 45 % 77 % 1022,6 hPa 0,0 l/m² 1,2 km/h (1 Bft) S-SO 167 ° 2 min 464 W/m² 6,4 °C 10,2 °C 4,8 km/h (1 Bft)
27.03.2025 12:15 21,7 °C 10,9 °C 45 % 81 % 1022,6 hPa 0,0 l/m² 0,7 km/h (0 Bft) S-SO 165 ° 2 min 464 W/m² 7,8 °C 10,9 °C 3,2 km/h (1 Bft)
27.03.2025 12:17 21,7 °C 11,3 °C 45 % 77 % 1022,5 hPa 0,0 l/m² 1,2 km/h (1 Bft) O-SO 114 ° 2 min 385 W/m² 7,4 °C 11,3 °C 4,8 km/h (1 Bft)
27.03.2025 12:19 21,7 °C 11,1 °C 45 % 73 % 1022,5 hPa 0,0 l/m² 2,5 km/h (1 Bft) O 96 ° 2 min 345 W/m² 6,4 °C 11,1 °C 4,8 km/h (1 Bft)
27.03.2025 12:21 21,7 °C 11,2 °C 45 % 79 % 1022,4 hPa 0,0 l/m² 2,1 km/h (1 Bft) O 94 ° 2 min 443 W/m² 7,7 °C 11,2 °C 4,8 km/h (1 Bft)
27.03.2025 12:23 21,7 °C 11,4 °C 45 % 75 % 1022,3 hPa 0,0 l/m² 3,1 km/h (1 Bft) NO 49 ° 2 min 473 W/m² 7,1 °C 11,4 °C 8,0 km/h (2 Bft)
27.03.2025 12:25 21,7 °C 11,6 °C 45 % 74 % 1022,4 hPa 0,0 l/m² 5,0 km/h (1 Bft) N-NO 26 ° 2 min 446 W/m² 7,1 °C 11,6 °C 8,0 km/h (2 Bft)
27.03.2025 12:27 21,7 °C 11,4 °C 45 % 74 % 1022,3 hPa 0,0 l/m² 4,8 km/h (1 Bft) N 9 ° 2 min 429 W/m² 6,9 °C 11,4 °C 8,0 km/h (2 Bft)
27.03.2025 12:29 21,7 °C 11,4 °C 45 % 78 % 1022,4 hPa 0,0 l/m² 2,7 km/h (1 Bft) O 80 ° 2 min 436 W/m² 7,7 °C 11,4 °C 4,8 km/h (1 Bft)
27.03.2025 12:31 21,7 °C 11,5 °C 45 % 77 % 1022,2 hPa 0,0 l/m² 2,1 km/h (1 Bft) W-SW 246 ° 2 min 406 W/m² 7,6 °C 11,5 °C 4,8 km/h (1 Bft)
27.03.2025 12:33 21,8 °C 11,2 °C 45 % 73 % 1022,2 hPa 0,0 l/m² 2,0 km/h (1 Bft) W-SW 252 ° 2 min 432 W/m² 6,5 °C 11,2 °C 4,8 km/h (1 Bft)
27.03.2025 12:35 21,7 °C 11,2 °C 45 % 76 % 1022,1 hPa 0,0 l/m² 1,7 km/h (1 Bft) W-SW 250 ° 2 min 425 W/m² 7,1 °C 11,2 °C 3,2 km/h (1 Bft)
27.03.2025 12:37 21,7 °C 11,2 °C 45 % 77 % 1022,2 hPa 0,0 l/m² 3,2 km/h (1 Bft) O-SO 119 ° 2 min 432 W/m² 7,3 °C 11,2 °C 6,4 km/h (2 Bft)
27.03.2025 12:39 21,7 °C 11,2 °C 45 % 79 % 1022,1 hPa 0,0 l/m² 5,6 km/h (2 Bft) O-SO 119 ° 2 min 425 W/m² 7,7 °C 11,2 °C 8,0 km/h (2 Bft)
27.03.2025 12:41 21,7 °C 11,4 °C 45 % 78 % 1022,2 hPa 0,0 l/m² 5,1 km/h (1 Bft) O-SO 111 ° 2 min 434 W/m² 7,7 °C 11,4 °C 11,3 km/h (2 Bft)
27.03.2025 12:43 21,7 °C 11,7 °C 45 % 79 % 1022,1 hPa 0,0 l/m² 6,7 km/h (2 Bft) SO 135 ° 2 min 443 W/m² 8,2 °C 11,5 °C 11,3 km/h (2 Bft)
27.03.2025 12:45 21,7 °C 11,5 °C 45 % 76 % 1022,1 hPa 0,0 l/m² 9,8 km/h (2 Bft) SO 130 ° 2 min 452 W/m² 7,4 °C 9,4 °C 16,1 km/h (3 Bft)
27.03.2025 12:48 21,7 °C 11,3 °C 45 % 74 % 1022,1 hPa 0,0 l/m² 4,7 km/h (1 Bft) SO 142 ° 3 min 186 W/m² 6,8 °C 11,3 °C 14,5 km/h (3 Bft)
27.03.2025 12:50 21,7 °C 11,2 °C 45 % 75 % 1022,0 hPa 0,0 l/m² 0,8 km/h (0 Bft) SO 140 ° 2 min 216 W/m² 6,9 °C 11,2 °C 3,2 km/h (1 Bft)
27.03.2025 12:52 21,8 °C 11,3 °C 45 % 73 % 1022,1 hPa 0,0 l/m² 0,0 km/h (0 Bft) SO 140 ° 2 min 410 W/m² 6,6 °C 11,3 °C 1,6 km/h (1 Bft)
27.03.2025 12:54 21,7 °C 11,5 °C 45 % 74 % 1022,0 hPa 0,0 l/m² 2,8 km/h (1 Bft) SO 139 ° 2 min 209 W/m² 7,0 °C 11,5 °C 4,8 km/h (1 Bft)
27.03.2025 12:56 21,7 °C 11,7 °C 45 % 75 % 1022,0 hPa 0,0 l/m² 4,9 km/h (1 Bft) SO 130 ° 2 min 438 W/m² 7,4 °C 11,7 °C 8,0 km/h (2 Bft)
27.03.2025 12:58 21,7 °C 11,6 °C 45 % 75 % 1021,9 hPa 0,0 l/m² 7,7 km/h (2 Bft) O-SO 117 ° 2 min 434 W/m² 7,3 °C 10,7 °C 12,9 km/h (3 Bft)
27.03.2025 13:00 21,8 °C 11,4 °C 45 % 75 % 1021,9 hPa 0,0 l/m² 4,9 km/h (1 Bft) O-SO 107 ° 2 min 128 W/m² 7,1 °C 11,4 °C 9,7 km/h (2 Bft)
27.03.2025 13:01 21,7 °C 11,3 °C 45 % 74 % 1021,9 hPa 0,0 l/m² 3,2 km/h (1 Bft) O-SO 117 ° 1 min 130 W/m² 6,8 °C 11,3 °C 6,4 km/h (2 Bft)
27.03.2025 13:03 21,7 °C 11,2 °C 45 % 77 % 1021,9 hPa 0,0 l/m² 2,0 km/h (1 Bft) O-SO 123 ° 2 min 130 W/m² 7,3 °C 11,2 °C 11,3 km/h (2 Bft)
27.03.2025 13:05 21,8 °C 10,9 °C 45 % 75 % 1021,9 hPa 0,0 l/m² 7,4 km/h (2 Bft) O 99 ° 2 min 114 W/m² 6,6 °C 10,2 °C 11,3 km/h (2 Bft)
27.03.2025 13:07 21,7 °C 10,8 °C 45 % 75 % 1021,9 hPa 0,0 l/m² 9,3 km/h (2 Bft) SO 146 ° 2 min 206 W/m² 6,5 °C 8,9 °C 12,9 km/h (3 Bft)
27.03.2025 13:09 21,7 °C 10,6 °C 45 % 75 % 1021,9 hPa 0,0 l/m² 3,5 km/h (1 Bft) S 188 ° 2 min 188 W/m² 6,4 °C 10,6 °C 6,4 km/h (2 Bft)
27.03.2025 13:11 21,7 °C 10,7 °C 45 % 74 % 1021,9 hPa 0,0 l/m² 2,5 km/h (1 Bft) O-SO 108 ° 2 min 274 W/m² 6,3 °C 10,7 °C 8,0 km/h (2 Bft)
27.03.2025 13:13 21,7 °C 10,8 °C 45 % 75 % 1021,9 hPa 0,0 l/m² 1,2 km/h (1 Bft) O-SO 105 ° 2 min 183 W/m² 6,5 °C 10,8 °C 4,8 km/h (1 Bft)
27.03.2025 13:15 21,7 °C 11,1 °C 45 % 74 % 1021,7 hPa 0,0 l/m² 1,9 km/h (1 Bft) O 100 ° 2 min 183 W/m² 6,6 °C 11,1 °C 4,8 km/h (1 Bft)
27.03.2025 13:17 21,7 °C 11,1 °C 45 % 75 % 1021,7 hPa 0,0 l/m² 1,2 km/h (1 Bft) O 100 ° 2 min 171 W/m² 6,8 °C 11,1 °C 3,2 km/h (1 Bft)
27.03.2025 13:19 21,7 °C 11,5 °C 45 % 74 % 1021,7 hPa 0,0 l/m² 0,9 km/h (0 Bft) N 5 ° 2 min 445 W/m² 7,0 °C 11,5 °C 4,8 km/h (1 Bft)
27.03.2025 13:21 21,7 °C 12,0 °C 45 % 73 % 1021,7 hPa 0,0 l/m² 2,3 km/h (1 Bft) N 5 ° 2 min 420 W/m² 7,3 °C 12,0 °C 3,2 km/h (1 Bft)
27.03.2025 13:23 21,7 °C 11,9 °C 45 % 69 % 1021,6 hPa 0,0 l/m² 0,9 km/h (0 Bft) N 5 ° 2 min 410 W/m² 6,4 °C 11,9 °C 3,2 km/h (1 Bft)
27.03.2025 13:25 21,7 °C 12,3 °C 45 % 74 % 1021,6 hPa 0,0 l/m² 2,9 km/h (1 Bft) O-NO 73 ° 2 min 408 W/m² 7,8 °C 12,3 °C 6,4 km/h (2 Bft)
27.03.2025 13:26 21,7 °C 12,2 °C 45 % 71 % 1021,6 hPa 0,0 l/m² 0,7 km/h (0 Bft) O-NO 72 ° 1 min 404 W/m² 7,1 °C 12,2 °C 1,6 km/h (1 Bft)
27.03.2025 13:27 21,7 °C 12,2 °C 45 % 71 % 1021,6 hPa 0,0 l/m² 0,0 km/h (0 Bft) O-NO 72 ° 1 min 404 W/m² 7,1 °C 12,2 °C 0,0 km/h (0 Bft)
27.03.2025 13:29 21,7 °C 12,3 °C 45 % 70 % 1021,5 hPa 0,0 l/m² 3,6 km/h (1 Bft) N-NW 345 ° 2 min 394 W/m² 7,0 °C 12,3 °C 6,4 km/h (2 Bft)
27.03.2025 13:31 21,7 °C 12,6 °C 45 % 70 % 1021,6 hPa 0,0 l/m² 7,0 km/h (2 Bft) O-NO 69 ° 2 min 399 W/m² 7,3 °C 12,2 °C 14,5 km/h (3 Bft)
27.03.2025 13:33 21,7 °C 13,1 °C 45 % 70 % 1021,5 hPa 0,0 l/m² 7,1 km/h (2 Bft) N-NO 31 ° 2 min 396 W/m² 7,8 °C 12,7 °C 9,7 km/h (2 Bft)
27.03.2025 13:35 21,7 °C 12,9 °C 45 % 69 % 1021,4 hPa 0,0 l/m² 2,3 km/h (1 Bft) N-NW 332 ° 2 min 385 W/m² 7,4 °C 12,9 °C 6,4 km/h (2 Bft)
27.03.2025 13:37 21,7 °C 12,9 °C 45 % 69 % 1021,4 hPa 0,0 l/m² 7,4 km/h (2 Bft) NW 321 ° 2 min 381 W/m² 7,4 °C 12,3 °C 11,3 km/h (2 Bft)
27.03.2025 13:39 21,7 °C 12,8 °C 45 % 68 % 1021,4 hPa 0,0 l/m² 5,5 km/h (2 Bft) O-NO 72 ° 2 min 380 W/m² 7,0 °C 12,8 °C 12,9 km/h (3 Bft)
27.03.2025 13:41 21,7 °C 12,9 °C 45 % 70 % 1021,3 hPa 0,0 l/m² 6,8 km/h (2 Bft) NO 44 ° 2 min 380 W/m² 7,6 °C 12,7 °C 12,9 km/h (3 Bft)
27.03.2025 13:43 21,8 °C 12,9 °C 45 % 71 % 1021,3 hPa 0,0 l/m² 5,9 km/h (2 Bft) O 80 ° 2 min 388 W/m² 7,8 °C 12,9 °C 11,3 km/h (2 Bft)
27.03.2025 13:45 21,7 °C 13,1 °C 45 % 69 % 1021,3 hPa 0,0 l/m² 8,9 km/h (2 Bft) O-SO 118 ° 2 min 357 W/m² 7,5 °C 11,6 °C 14,5 km/h (3 Bft)
27.03.2025 13:47 21,8 °C 12,5 °C 45 % 69 % 1021,4 hPa 0,0 l/m² 4,3 km/h (1 Bft) O-SO 115 ° 2 min 397 W/m² 7,0 °C 12,5 °C 6,4 km/h (2 Bft)
27.03.2025 13:49 21,7 °C 12,5 °C 45 % 72 % 1021,3 hPa 0,0 l/m² 7,2 km/h (2 Bft) O 97 ° 2 min 390 W/m² 7,6 °C 12,0 °C 11,3 km/h (2 Bft)
27.03.2025 13:51 21,7 °C 12,4 °C 45 % 71 % 1021,2 hPa 0,0 l/m² 4,3 km/h (1 Bft) O-SO 103 ° 2 min 388 W/m² 7,3 °C 12,4 °C 6,4 km/h (2 Bft)
27.03.2025 13:53 21,7 °C 12,5 °C 45 % 71 % 1021,2 hPa 0,0 l/m² 5,9 km/h (2 Bft) O 85 ° 2 min 387 W/m² 7,4 °C 12,5 °C 11,3 km/h (2 Bft)
27.03.2025 13:55 21,8 °C 12,7 °C 45 % 72 % 1021,3 hPa 0,0 l/m² 7,2 km/h (2 Bft) S-SO 168 ° 2 min 381 W/m² 7,8 °C 12,2 °C 11,3 km/h (2 Bft)
27.03.2025 13:57 21,8 °C 12,4 °C 45 % 69 % 1021,2 hPa 0,0 l/m² 6,8 km/h (2 Bft) S-SO 159 ° 2 min 380 W/m² 6,9 °C 12,1 °C 9,7 km/h (2 Bft)
27.03.2025 13:59 21,8 °C 12,4 °C 45 % 71 % 1021,2 hPa 0,0 l/m² 7,3 km/h (2 Bft) S 173 ° 2 min 380 W/m² 7,3 °C 11,8 °C 11,3 km/h (2 Bft)
27.03.2025 14:01 21,7 °C 12,4 °C 45 % 71 % 1021,3 hPa 0,0 l/m² 7,0 km/h (2 Bft) S 182 ° 2 min 383 W/m² 7,3 °C 12,0 °C 11,3 km/h (2 Bft)
27.03.2025 14:03 21,8 °C 12,3 °C 45 % 68 % 1021,2 hPa 0,0 l/m² 4,3 km/h (1 Bft) S 184 ° 2 min 383 W/m² 6,6 °C 12,3 °C 8,0 km/h (2 Bft)
27.03.2025 14:05 21,8 °C 12,3 °C 45 % 71 % 1021,1 hPa 0,0 l/m² 3,2 km/h (1 Bft) S 183 ° 2 min 302 W/m² 7,2 °C 12,3 °C 6,4 km/h (2 Bft)
27.03.2025 14:06 21,7 °C 12,3 °C 45 % 70 % 1021,1 hPa 0,0 l/m² 0,2 km/h (0 Bft) S 183 ° 1 min 376 W/m² 7,0 °C 12,3 °C 1,6 km/h (1 Bft)
27.03.2025 14:08 21,8 °C 12,3 °C 45 % 70 % 1021,1 hPa 0,0 l/m² 2,7 km/h (1 Bft) S-SO 159 ° 2 min 345 W/m² 7,0 °C 12,3 °C 8,0 km/h (2 Bft)
27.03.2025 14:10 21,8 °C 12,4 °C 45 % 71 % 1021,1 hPa 0,0 l/m² 3,6 km/h (1 Bft) S-SO 161 ° 2 min 376 W/m² 7,3 °C 12,4 °C 9,7 km/h (2 Bft)
27.03.2025 14:11 21,7 °C 12,4 °C 45 % 71 % 1021,0 hPa 0,0 l/m² 2,1 km/h (1 Bft) S-SO 161 ° 1 min 385 W/m² 7,3 °C 12,4 °C 3,2 km/h (1 Bft)
27.03.2025 14:13 21,8 °C 12,2 °C 45 % 68 % 1021,0 hPa 0,0 l/m² 2,5 km/h (1 Bft) S-SO 161 ° 2 min 367 W/m² 6,5 °C 12,2 °C 6,4 km/h (2 Bft)
27.03.2025 14:15 21,8 °C 12,1 °C 45 % 69 % 1021,1 hPa 0,0 l/m² 1,4 km/h (1 Bft) S-SO 161 ° 2 min 183 W/m² 6,6 °C 12,1 °C 3,2 km/h (1 Bft)
27.03.2025 14:16 21,7 °C 12,2 °C 45 % 67 % 1021,1 hPa 0,0 l/m² 0,0 km/h (0 Bft) S-SO 161 ° 1 min 183 W/m² 6,3 °C 12,2 °C 0,0 km/h (0 Bft)
27.03.2025 14:18 21,7 °C 12,2 °C 45 % 71 % 1021,0 hPa 0,0 l/m² 7,0 km/h (2 Bft) O-SO 114 ° 2 min 183 W/m² 7,1 °C 11,8 °C 14,5 km/h (3 Bft)
27.03.2025 14:20 21,7 °C 12,1 °C 45 % 70 % 1021,0 hPa 0,0 l/m² 12,2 km/h (2 Bft) O-SO 113 ° 2 min 79 W/m² 6,8 °C 8,8 °C 17,7 km/h (3 Bft)
27.03.2025 14:22 21,7 °C 11,7 °C 45 % 70 % 1021,0 hPa 0,0 l/m² 12,8 km/h (3 Bft) O-SO 105 ° 2 min 84 W/m² 6,4 °C 8,1 °C 17,7 km/h (3 Bft)
27.03.2025 14:24 21,7 °C 11,6 °C 45 % 73 % 1021,0 hPa 0,0 l/m² 7,9 km/h (2 Bft) O 101 ° 2 min 315 W/m² 6,9 °C 10,6 °C 11,3 km/h (2 Bft)
27.03.2025 14:26 21,7 °C 11,8 °C 45 % 73 % 1021,0 hPa 0,0 l/m² 10,0 km/h (2 Bft) O-SO 109 ° 2 min 371 W/m² 7,1 °C 9,6 °C 12,9 km/h (3 Bft)
27.03.2025 14:28 21,7 °C 12,1 °C 45 % 74 % 1021,0 hPa 0,0 l/m² 8,9 km/h (2 Bft) O 82 ° 2 min 297 W/m² 7,6 °C 10,5 °C 12,9 km/h (3 Bft)
27.03.2025 14:30 21,7 °C 12,1 °C 45 % 70 % 1021,0 hPa 0,0 l/m² 7,8 km/h (2 Bft) O-NO 76 ° 2 min 297 W/m² 6,8 °C 11,2 °C 11,3 km/h (2 Bft)
27.03.2025 14:32 21,7 °C 12,1 °C 45 % 72 % 1020,9 hPa 0,0 l/m² 5,9 km/h (2 Bft) O-NO 70 ° 2 min 105 W/m² 7,2 °C 12,1 °C 8,0 km/h (2 Bft)
27.03.2025 14:34 21,7 °C 12,1 °C 45 % 71 % 1020,9 hPa 0,0 l/m² 6,3 km/h (2 Bft) O-NO 74 ° 2 min 107 W/m² 7,0 °C 12,1 °C 8,0 km/h (2 Bft)
27.03.2025 14:36 21,7 °C 11,8 °C 45 % 72 % 1021,0 hPa 0,0 l/m² 5,0 km/h (1 Bft) O-NO 76 ° 2 min 84 W/m² 6,9 °C 11,8 °C 6,4 km/h (2 Bft)
27.03.2025 14:38 21,7 °C 11,6 °C 45 % 72 % 1020,9 hPa 0,0 l/m² 4,9 km/h (1 Bft) O 80 ° 2 min 77 W/m² 6,7 °C 11,6 °C 6,4 km/h (2 Bft)
27.03.2025 14:40 21,7 °C 11,4 °C 45 % 72 % 1020,9 hPa 0,0 l/m² 3,2 km/h (1 Bft) O 80 ° 2 min 118 W/m² 6,5 °C 11,4 °C 4,8 km/h (1 Bft)
27.03.2025 14:42 21,7 °C 11,6 °C 45 % 73 % 1020,9 hPa 0,0 l/m² 4,7 km/h (1 Bft) SO 128 ° 2 min 332 W/m² 6,9 °C 11,6 °C 8,0 km/h (2 Bft)
27.03.2025 14:44 21,7 °C 11,9 °C 45 % 74 % 1020,9 hPa 0,0 l/m² 5,7 km/h (2 Bft) S-SO 148 ° 2 min 332 W/m² 7,4 °C 11,9 °C 11,3 km/h (2 Bft)
27.03.2025 14:46 21,7 °C 12,2 °C 45 % 72 % 1020,8 hPa 0,0 l/m² 2,7 km/h (1 Bft) S-SO 155 ° 2 min 338 W/m² 7,3 °C 12,2 °C 4,8 km/h (1 Bft)
27.03.2025 14:48 21,7 °C 12,6 °C 45 % 71 % 1020,8 hPa 0,0 l/m² 1,0 km/h (0 Bft) S-SO 155 ° 2 min 338 W/m² 7,5 °C 12,6 °C 3,2 km/h (1 Bft)
27.03.2025 14:50 21,7 °C 12,5 °C 45 % 68 % 1020,8 hPa 0,0 l/m² 3,1 km/h (1 Bft) S-SW 192 ° 2 min 134 W/m² 6,8 °C 12,5 °C 6,4 km/h (2 Bft)
27.03.2025 14:52 21,7 °C 12,4 °C 45 % 67 % 1020,8 hPa 0,0 l/m² 0,9 km/h (0 Bft) S-SW 193 ° 2 min 88 W/m² 6,4 °C 12,4 °C 3,2 km/h (1 Bft)
27.03.2025 14:54 21,7 °C 12,2 °C 45 % 72 % 1020,8 hPa 0,0 l/m² 0,8 km/h (0 Bft) S-SW 193 ° 2 min 107 W/m² 7,3 °C 12,2 °C 1,6 km/h (1 Bft)
27.03.2025 14:56 21,7 °C 12,1 °C 45 % 69 % 1020,7 hPa 0,0 l/m² 0,0 km/h (0 Bft) S-SW 193 ° 2 min 318 W/m² 6,6 °C 12,1 °C 1,6 km/h (1 Bft)
27.03.2025 14:58 21,7 °C 12,6 °C 45 % 72 % 1020,8 hPa 0,0 l/m² 1,6 km/h (1 Bft) O 92 ° 2 min 304 W/m² 7,7 °C 12,6 °C 4,8 km/h (1 Bft)
27.03.2025 15:00 21,7 °C 12,7 °C 45 % 68 % 1020,7 hPa 0,0 l/m² 3,9 km/h (1 Bft) O 90 ° 2 min 295 W/m² 6,9 °C 12,7 °C 6,4 km/h (2 Bft)
27.03.2025 15:02 21,7 °C 12,8 °C 45 % 70 % 1020,7 hPa 0,0 l/m² 3,8 km/h (1 Bft) O 101 ° 2 min 301 W/m² 7,5 °C 12,8 °C 6,4 km/h (2 Bft)
27.03.2025 15:04 21,7 °C 12,7 °C 45 % 68 % 1020,7 hPa 0,0 l/m² 7,3 km/h (2 Bft) O-SO 119 ° 2 min 306 W/m² 6,9 °C 12,1 °C 12,9 km/h (3 Bft)
27.03.2025 15:06 21,7 °C 12,7 °C 45 % 70 % 1020,6 hPa 0,0 l/m² 8,3 km/h (2 Bft) O 90 ° 2 min 301 W/m² 7,4 °C 11,5 °C 11,3 km/h (2 Bft)
27.03.2025 15:08 21,7 °C 12,8 °C 45 % 69 % 1020,6 hPa 0,0 l/m² 4,8 km/h (1 Bft) O 88 ° 2 min 294 W/m² 7,3 °C 12,8 °C 6,4 km/h (2 Bft)
27.03.2025 15:10 21,7 °C 12,8 °C 45 % 68 % 1020,6 hPa 0,0 l/m² 5,2 km/h (1 Bft) O 94 ° 2 min 292 W/m² 7,0 °C 12,8 °C 11,3 km/h (2 Bft)
27.03.2025 15:12 21,7 °C 12,8 °C 45 % 69 % 1020,6 hPa 0,0 l/m² 2,3 km/h (1 Bft) O 94 ° 2 min 285 W/m² 7,3 °C 12,8 °C 4,8 km/h (1 Bft)
27.03.2025 15:14 21,7 °C 12,7 °C 45 % 67 % 1020,5 hPa 0,0 l/m² 4,2 km/h (1 Bft) O 98 ° 2 min 283 W/m² 6,7 °C 12,7 °C 6,4 km/h (2 Bft)
27.03.2025 15:16 21,7 °C 12,8 °C 45 % 67 % 1020,6 hPa 0,0 l/m² 0,5 km/h (0 Bft) O 98 ° 2 min 279 W/m² 6,8 °C 12,8 °C 4,8 km/h (1 Bft)
27.03.2025 15:18 21,7 °C 13,0 °C 45 % 65 % 1020,5 hPa 0,0 l/m² 0,3 km/h (0 Bft) O 98 ° 2 min 279 W/m² 6,6 °C 13,0 °C 4,8 km/h (1 Bft)
27.03.2025 15:20 21,7 °C 13,0 °C 45 % 67 % 1020,5 hPa 0,0 l/m² 4,8 km/h (1 Bft) O-SO 107 ° 2 min 279 W/m² 7,0 °C 13,0 °C 9,7 km/h (2 Bft)
27.03.2025 15:22 21,7 °C 13,1 °C 45 % 70 % 1020,4 hPa 0,0 l/m² 2,6 km/h (1 Bft) NO 43 ° 2 min 278 W/m² 7,8 °C 13,1 °C 4,8 km/h (1 Bft)
27.03.2025 15:24 21,7 °C 13,4 °C 45 % 69 % 1020,3 hPa 0,0 l/m² 2,1 km/h (1 Bft) NO 44 ° 2 min 274 W/m² 7,8 °C 13,4 °C 4,8 km/h (1 Bft)
27.03.2025 15:26 21,7 °C 13,4 °C 45 % 66 % 1020,3 hPa 0,0 l/m² 4,0 km/h (1 Bft) NO 50 ° 2 min 269 W/m² 7,2 °C 13,4 °C 6,4 km/h (2 Bft)
27.03.2025 15:28 21,7 °C 13,1 °C 45 % 66 % 1020,3 hPa 0,0 l/m² 2,6 km/h (1 Bft) O-SO 123 ° 2 min 265 W/m² 6,9 °C 13,1 °C 6,4 km/h (2 Bft)
27.03.2025 15:30 21,7 °C 13,0 °C 45 % 68 % 1020,4 hPa 0,0 l/m² 5,1 km/h (1 Bft) S-SO 149 ° 2 min 262 W/m² 7,2 °C 13,0 °C 8,0 km/h (2 Bft)
27.03.2025 15:32 21,7 °C 13,0 °C 45 % 69 % 1020,3 hPa 0,0 l/m² 7,2 km/h (2 Bft) SO 125 ° 2 min 262 W/m² 7,4 °C 12,5 °C 12,9 km/h (3 Bft)
27.03.2025 15:34 21,7 °C 13,1 °C 45 % 69 % 1020,3 hPa 0,0 l/m² 1,7 km/h (1 Bft) SO 124 ° 2 min 258 W/m² 7,5 °C 13,1 °C 4,8 km/h (1 Bft)
27.03.2025 15:36 21,7 °C 13,2 °C 45 % 65 % 1020,2 hPa 0,0 l/m² 0,1 km/h (0 Bft) SO 124 ° 2 min 257 W/m² 6,8 °C 13,2 °C 1,6 km/h (1 Bft)
27.03.2025 15:38 21,7 °C 13,2 °C 45 % 67 % 1020,3 hPa 0,0 l/m² 5,3 km/h (1 Bft) O 89 ° 2 min 251 W/m² 7,2 °C 13,2 °C 12,9 km/h (3 Bft)
27.03.2025 15:40 21,7 °C 13,1 °C 45 % 66 % 1020,2 hPa 0,0 l/m² 6,4 km/h (2 Bft) O 101 ° 2 min 250 W/m² 6,9 °C 13,1 °C 11,3 km/h (2 Bft)
27.03.2025 15:42 21,7 °C 12,9 °C 45 % 69 % 1020,2 hPa 0,0 l/m² 7,9 km/h (2 Bft) O-SO 118 ° 2 min 248 W/m² 7,4 °C 12,0 °C 11,3 km/h (2 Bft)
27.03.2025 15:44 21,7 °C 12,7 °C 45 % 66 % 1020,3 hPa 0,0 l/m² 4,4 km/h (1 Bft) O-SO 116 ° 2 min 244 W/m² 6,5 °C 12,7 °C 9,7 km/h (2 Bft)
27.03.2025 15:47 21,7 °C 12,8 °C 45 % 65 % 1020,2 hPa 0,0 l/m² 1,4 km/h (1 Bft) N-NW 346 ° 3 min 239 W/m² 6,4 °C 12,8 °C 8,0 km/h (2 Bft)
27.03.2025 15:49 21,7 °C 13,0 °C 45 % 65 % 1020,1 hPa 0,0 l/m² 3,8 km/h (1 Bft) NO 44 ° 2 min 234 W/m² 6,6 °C 13,0 °C 9,7 km/h (2 Bft)
27.03.2025 15:51 21,7 °C 13,1 °C 45 % 65 % 1020,1 hPa 0,0 l/m² 0,3 km/h (0 Bft) NO 44 ° 2 min 234 W/m² 6,7 °C 13,1 °C 3,2 km/h (1 Bft)
27.03.2025 15:53 21,7 °C 13,1 °C 45 % 67 % 1020,1 hPa 0,0 l/m² 6,6 km/h (2 Bft) O-SO 117 ° 2 min 230 W/m² 7,1 °C 13,0 °C 11,3 km/h (2 Bft)
27.03.2025 15:55 21,7 °C 13,0 °C 45 % 66 % 1020,0 hPa 0,0 l/m² 5,4 km/h (2 Bft) O 96 ° 2 min 225 W/m² 6,8 °C 13,0 °C 9,7 km/h (2 Bft)
27.03.2025 15:57 21,7 °C 12,9 °C 45 % 67 % 1020,0 hPa 0,0 l/m² 2,2 km/h (1 Bft) O 97 ° 2 min 223 W/m² 6,9 °C 12,9 °C 6,4 km/h (2 Bft)
27.03.2025 15:59 21,7 °C 12,8 °C 45 % 66 % 1020,0 hPa 0,0 l/m² 2,0 km/h (1 Bft) O 88 ° 2 min 221 W/m² 6,6 °C 12,8 °C 9,7 km/h (2 Bft)
27.03.2025 16:01 21,7 °C 13,0 °C 45 % 68 % 1020,0 hPa 0,0 l/m² 7,3 km/h (2 Bft) O-SO 117 ° 2 min 218 W/m² 7,2 °C 12,4 °C 9,7 km/h (2 Bft)
27.03.2025 16:03 21,7 °C 12,9 °C 45 % 67 % 1020,0 hPa 0,0 l/m² 5,9 km/h (2 Bft) O-SO 117 ° 2 min 216 W/m² 6,9 °C 12,9 °C 9,7 km/h (2 Bft)
27.03.2025 16:05 21,7 °C 12,8 °C 45 % 67 % 1020,0 hPa 0,0 l/m² 2,1 km/h (1 Bft) O-SO 117 ° 2 min 213 W/m² 6,8 °C 12,8 °C 4,8 km/h (1 Bft)
27.03.2025 16:06 21,7 °C 12,7 °C 45 % 65 % 1020,0 hPa 0,0 l/m² 3,8 km/h (1 Bft) O-SO 107 ° 1 min 211 W/m² 6,3 °C 12,7 °C 6,4 km/h (2 Bft)
27.03.2025 16:07 21,7 °C 12,7 °C 45 % 69 % 1020,0 hPa 0,0 l/m² 5,2 km/h (1 Bft) O-SO 115 ° 1 min 209 W/m² 7,2 °C 12,7 °C 6,4 km/h (2 Bft)
27.03.2025 16:08 21,7 °C 12,8 °C 45 % 69 % 1020,0 hPa 0,0 l/m² 4,9 km/h (1 Bft) SO 146 ° 1 min 207 W/m² 7,3 °C 12,8 °C 6,4 km/h (2 Bft)
27.03.2025 16:09 21,7 °C 12,7 °C 45 % 67 % 1020,0 hPa 0,0 l/m² 4,2 km/h (1 Bft) S-SO 157 ° 1 min 204 W/m² 6,7 °C 12,7 °C 9,7 km/h (2 Bft)
27.03.2025 16:10 21,7 °C 12,7 °C 45 % 66 % 1019,9 hPa 0,0 l/m² 1,8 km/h (1 Bft) S-SO 157 ° 1 min 204 W/m² 6,5 °C 12,7 °C 4,8 km/h (1 Bft)
27.03.2025 16:11 21,7 °C 12,7 °C 45 % 66 % 1019,9 hPa 0,0 l/m² 0,5 km/h (0 Bft) S-SO 157 ° 1 min 202 W/m² 6,5 °C 12,7 °C 1,6 km/h (1 Bft)
27.03.2025 16:12 21,7 °C 12,7 °C 45 % 65 % 1019,9 hPa 0,0 l/m² 0,7 km/h (0 Bft) S-SO 157 ° 1 min 200 W/m² 6,3 °C 12,7 °C 1,6 km/h (1 Bft)
27.03.2025 16:13 21,7 °C 12,7 °C 45 % 64 % 1019,9 hPa 0,0 l/m² 0,0 km/h (0 Bft) S-SO 157 ° 1 min 199 W/m² 6,1 °C 12,7 °C 0,0 km/h (0 Bft)
27.03.2025 16:14 21,7 °C 12,7 °C 45 % 67 % 1019,9 hPa 0,0 l/m² 1,7 km/h (1 Bft) S-SO 153 ° 1 min 197 W/m² 6,7 °C 12,7 °C 6,4 km/h (2 Bft)
27.03.2025 16:15 21,7 °C 12,8 °C 45 % 68 % 1019,8 hPa 0,0 l/m² 10,5 km/h (2 Bft) SO 126 ° 1 min 197 W/m² 7,0 °C 10,4 °C 12,9 km/h (3 Bft)
27.03.2025 16:16 21,7 °C 12,7 °C 45 % 66 % 1019,9 hPa 0,0 l/m² 10,3 km/h (2 Bft) O-SO 113 ° 1 min 195 W/m² 6,5 °C 10,4 °C 14,5 km/h (3 Bft)
27.03.2025 16:17 21,7 °C 12,7 °C 45 % 68 % 1019,8 hPa 0,0 l/m² 7,1 km/h (2 Bft) SO 127 ° 1 min 195 W/m² 6,9 °C 12,3 °C 11,3 km/h (2 Bft)
27.03.2025 16:18 21,7 °C 12,7 °C 45 % 68 % 1019,8 hPa 0,0 l/m² 9,3 km/h (2 Bft) O-SO 123 ° 1 min 193 W/m² 6,9 °C 10,9 °C 12,9 km/h (3 Bft)
27.03.2025 16:19 21,7 °C 12,7 °C 45 % 66 % 1019,8 hPa 0,0 l/m² 4,4 km/h (1 Bft) O-SO 123 ° 1 min 192 W/m² 6,5 °C 12,7 °C 6,4 km/h (2 Bft)
27.03.2025 16:20 21,7 °C 12,7 °C 45 % 67 % 1019,8 hPa 0,0 l/m² 3,8 km/h (1 Bft) SO 124 ° 1 min 192 W/m² 6,7 °C 12,7 °C 4,8 km/h (1 Bft)
27.03.2025 16:21 21,7 °C 12,7 °C 45 % 69 % 1019,8 hPa 0,0 l/m² 7,4 km/h (2 Bft) O-SO 113 ° 1 min 190 W/m² 7,2 °C 12,1 °C 9,7 km/h (2 Bft)
27.03.2025 16:22 21,7 °C 12,7 °C 45 % 66 % 1019,8 hPa 0,0 l/m² 4,4 km/h (1 Bft) O-SO 113 ° 1 min 188 W/m² 6,5 °C 12,7 °C 6,4 km/h (2 Bft)
27.03.2025 16:23 21,7 °C 12,7 °C 45 % 66 % 1019,8 hPa 0,0 l/m² 3,4 km/h (1 Bft) O-SO 113 ° 1 min 186 W/m² 6,5 °C 12,7 °C 4,8 km/h (1 Bft)
27.03.2025 16:24 21,7 °C 12,8 °C 45 % 67 % 1019,8 hPa 0,0 l/m² 2,5 km/h (1 Bft) O-SO 113 ° 1 min 183 W/m² 6,8 °C 12,8 °C 4,8 km/h (1 Bft)
27.03.2025 16:25 21,7 °C 12,8 °C 45 % 65 % 1019,8 hPa 0,0 l/m² 3,8 km/h (1 Bft) O-SO 117 ° 1 min 179 W/m² 6,4 °C 12,8 °C 12,9 km/h (3 Bft)
27.03.2025 16:26 21,7 °C 12,8 °C 45 % 67 % 1019,9 hPa 0,0 l/m² 7,8 km/h (2 Bft) S-SO 159 ° 1 min 178 W/m² 6,8 °C 11,9 °C 11,3 km/h (2 Bft)
27.03.2025 16:27 21,7 °C 12,8 °C 45 % 69 % 1019,8 hPa 0,0 l/m² 8,1 km/h (2 Bft) S-SO 153 ° 1 min 176 W/m² 7,3 °C 11,7 °C 9,7 km/h (2 Bft)
27.03.2025 16:28 21,7 °C 12,8 °C 45 % 67 % 1019,8 hPa 0,0 l/m² 6,6 km/h (2 Bft) S-SO 148 ° 1 min 174 W/m² 6,8 °C 12,7 °C 8,0 km/h (2 Bft)
27.03.2025 16:29 21,7 °C 12,8 °C 45 % 67 % 1019,7 hPa 0,0 l/m² 5,2 km/h (1 Bft) S-SO 147 ° 1 min 174 W/m² 6,8 °C 12,8 °C 6,4 km/h (2 Bft)
27.03.2025 16:30 21,7 °C 12,7 °C 45 % 69 % 1019,8 hPa 0,0 l/m² 4,6 km/h (1 Bft) S-SO 147 ° 1 min 172 W/m² 7,2 °C 12,7 °C 4,8 km/h (1 Bft)
27.03.2025 16:31 21,7 °C 12,7 °C 45 % 69 % 1019,7 hPa 0,0 l/m² 5,0 km/h (1 Bft) S-SO 151 ° 1 min 171 W/m² 7,2 °C 12,7 °C 6,4 km/h (2 Bft)
27.03.2025 16:32 21,7 °C 12,7 °C 45 % 68 % 1019,7 hPa 0,0 l/m² 6,4 km/h (2 Bft) S-SO 158 ° 1 min 171 W/m² 6,9 °C 12,7 °C 9,7 km/h (2 Bft)
27.03.2025 16:33 21,7 °C 12,7 °C 45 % 67 % 1019,8 hPa 0,0 l/m² 7,4 km/h (2 Bft) S-SO 157 ° 1 min 169 W/m² 6,7 °C 12,1 °C 9,7 km/h (2 Bft)
27.03.2025 16:34 21,7 °C 12,7 °C 45 % 68 % 1019,7 hPa 0,0 l/m² 6,7 km/h (2 Bft) S-SO 161 ° 1 min 169 W/m² 6,9 °C 12,5 °C 8,0 km/h (2 Bft)
27.03.2025 16:35 21,7 °C 12,7 °C 45 % 69 % 1019,8 hPa 0,0 l/m² 6,8 km/h (2 Bft) S-SO 161 ° 1 min 167 W/m² 7,2 °C 12,5 °C 8,0 km/h (2 Bft)
27.03.2025 16:36 21,7 °C 12,6 °C 45 % 67 % 1019,8 hPa 0,0 l/m² 7,3 km/h (2 Bft) S-SO 161 ° 1 min 165 W/m² 6,6 °C 12,0 °C 8,0 km/h (2 Bft)
27.03.2025 16:37 21,7 °C 12,6 °C 45 % 67 % 1019,7 hPa 0,0 l/m² 5,4 km/h (2 Bft) S-SO 160 ° 1 min 162 W/m² 6,6 °C 12,6 °C 8,0 km/h (2 Bft)
27.03.2025 16:38 21,7 °C 12,6 °C 45 % 67 % 1019,7 hPa 0,0 l/m² 5,5 km/h (2 Bft) S-SO 159 ° 1 min 162 W/m² 6,6 °C 12,6 °C 8,0 km/h (2 Bft)
27.03.2025 16:39 21,7 °C 12,6 °C 45 % 66 % 1019,6 hPa 0,0 l/m² 4,0 km/h (1 Bft) S-SO 159 ° 1 min 160 W/m² 6,4 °C 12,6 °C 6,4 km/h (2 Bft)
27.03.2025 16:40 21,7 °C 12,6 °C 45 % 68 % 1019,7 hPa 0,0 l/m² 4,0 km/h (1 Bft) SO 140 ° 1 min 158 W/m² 6,9 °C 12,6 °C 8,0 km/h (2 Bft)
27.03.2025 16:41 21,7 °C 12,6 °C 45 % 69 % 1019,7 hPa 0,0 l/m² 9,3 km/h (2 Bft) O-SO 116 ° 1 min 155 W/m² 7,1 °C 10,8 °C 12,9 km/h (3 Bft)
27.03.2025 16:42 21,7 °C 12,5 °C 45 % 68 % 1019,7 hPa 0,0 l/m² 7,0 km/h (2 Bft) SO 131 ° 1 min 155 W/m² 6,8 °C 12,1 °C 9,7 km/h (2 Bft)
27.03.2025 16:43 21,7 °C 12,4 °C 45 % 67 % 1019,7 hPa 0,0 l/m² 7,1 km/h (2 Bft) SO 141 ° 1 min 153 W/m² 6,4 °C 11,9 °C 8,0 km/h (2 Bft)
27.03.2025 16:44 21,7 °C 12,4 °C 45 % 67 % 1019,7 hPa 0,0 l/m² 6,0 km/h (2 Bft) S-SO 159 ° 1 min 153 W/m² 6,4 °C 12,4 °C 9,7 km/h (2 Bft)
27.03.2025 16:45 21,7 °C 12,4 °C 45 % 68 % 1019,6 hPa 0,0 l/m² 6,0 km/h (2 Bft) SO 146 ° 1 min 151 W/m² 6,7 °C 12,4 °C 8,0 km/h (2 Bft)
27.03.2025 16:46 21,7 °C 12,4 °C 45 % 68 % 1019,6 hPa 0,0 l/m² 6,6 km/h (2 Bft) O 96 ° 1 min 149 W/m² 6,7 °C 12,3 °C 9,7 km/h (2 Bft)
27.03.2025 16:47 21,7 °C 12,4 °C 45 % 69 % 1019,6 hPa 0,0 l/m² 7,0 km/h (2 Bft) O-SO 123 ° 1 min 146 W/m² 6,9 °C 12,0 °C 9,7 km/h (2 Bft)
27.03.2025 16:48 21,7 °C 12,5 °C 45 % 71 % 1019,6 hPa 0,0 l/m² 6,2 km/h (2 Bft) SO 129 ° 1 min 144 W/m² 7,4 °C 12,5 °C 8,0 km/h (2 Bft)
27.03.2025 16:49 21,7 °C 12,4 °C 45 % 70 % 1019,6 hPa 0,0 l/m² 7,9 km/h (2 Bft) SO 131 ° 1 min 142 W/m² 7,1 °C 11,4 °C 11,3 km/h (2 Bft)
27.03.2025 16:50 21,7 °C 12,4 °C 45 % 69 % 1019,6 hPa 0,0 l/m² 5,4 km/h (2 Bft) SO 126 ° 1 min 141 W/m² 6,9 °C 12,4 °C 8,0 km/h (2 Bft)
27.03.2025 16:51 21,7 °C 12,4 °C 45 % 68 % 1019,6 hPa 0,0 l/m² 7,8 km/h (2 Bft) SO 127 ° 1 min 139 W/m² 6,7 °C 11,5 °C 11,3 km/h (2 Bft)
27.03.2025 16:52 21,7 °C 12,4 °C 45 % 70 % 1019,6 hPa 0,0 l/m² 6,4 km/h (2 Bft) SO 132 ° 1 min 137 W/m² 7,1 °C 12,4 °C 11,3 km/h (2 Bft)
27.03.2025 16:53 21,7 °C 12,4 °C 45 % 70 % 1019,6 hPa 0,0 l/m² 8,7 km/h (2 Bft) SO 140 ° 1 min 130 W/m² 7,1 °C 11,0 °C 12,9 km/h (3 Bft)
27.03.2025 16:54 21,7 °C 12,4 °C 45 % 70 % 1019,6 hPa 0,0 l/m² 6,2 km/h (2 Bft) SO 138 ° 1 min 127 W/m² 7,1 °C 12,4 °C 11,3 km/h (2 Bft)
27.03.2025 16:55 21,7 °C 12,3 °C 45 % 70 % 1019,6 hPa 0,0 l/m² 5,0 km/h (1 Bft) SO 144 ° 1 min 125 W/m² 7,0 °C 12,3 °C 6,4 km/h (2 Bft)
27.03.2025 16:56 21,7 °C 12,3 °C 45 % 70 % 1019,6 hPa 0,0 l/m² 7,3 km/h (2 Bft) SO 142 ° 1 min 123 W/m² 7,0 °C 11,7 °C 9,7 km/h (2 Bft)
27.03.2025 16:57 21,7 °C 12,3 °C 45 % 70 % 1019,5 hPa 0,0 l/m² 6,1 km/h (2 Bft) SO 142 ° 1 min 123 W/m² 7,0 °C 12,3 °C 8,0 km/h (2 Bft)
27.03.2025 16:58 21,7 °C 12,2 °C 45 % 70 % 1019,5 hPa 0,0 l/m² 7,8 km/h (2 Bft) O-SO 117 ° 1 min 121 W/m² 6,9 °C 11,3 °C 11,3 km/h (2 Bft)
27.03.2025 16:59 21,7 °C 12,2 °C 45 % 69 % 1019,5 hPa 0,0 l/m² 6,7 km/h (2 Bft) O-SO 114 ° 1 min 120 W/m² 6,7 °C 12,0 °C 9,7 km/h (2 Bft)
27.03.2025 17:00 21,7 °C 12,2 °C 45 % 69 % 1019,5 hPa 0,0 l/m² 5,8 km/h (2 Bft) O-SO 112 ° 1 min 118 W/m² 6,7 °C 12,2 °C 6,4 km/h (2 Bft)
27.03.2025 17:01 21,7 °C 12,1 °C 45 % 69 % 1019,5 hPa 0,0 l/m² 4,2 km/h (1 Bft) O-SO 113 ° 1 min 116 W/m² 6,6 °C 12,1 °C 4,8 km/h (1 Bft)
27.03.2025 17:02 21,7 °C 12,1 °C 45 % 69 % 1019,5 hPa 0,0 l/m² 9,7 km/h (2 Bft) SO 124 ° 1 min 114 W/m² 6,6 °C 10,1 °C 14,5 km/h (3 Bft)
27.03.2025 17:03 21,7 °C 12,1 °C 45 % 69 % 1019,5 hPa 0,0 l/m² 10,0 km/h (2 Bft) SO 129 ° 1 min 111 W/m² 6,6 °C 9,9 °C 12,9 km/h (3 Bft)
27.03.2025 17:04 21,7 °C 12,1 °C 45 % 69 % 1019,5 hPa 0,0 l/m² 6,2 km/h (2 Bft) SO 141 ° 1 min 109 W/m² 6,6 °C 12,1 °C 8,0 km/h (2 Bft)
27.03.2025 17:05 21,7 °C 12,1 °C 45 % 70 % 1019,5 hPa 0,0 l/m² 4,5 km/h (1 Bft) SO 140 ° 1 min 102 W/m² 6,8 °C 12,1 °C 6,4 km/h (2 Bft)
27.03.2025 17:06 21,7 °C 12,1 °C 45 % 71 % 1019,5 hPa 0,0 l/m² 5,8 km/h (2 Bft) SO 133 ° 1 min 93 W/m² 7,0 °C 12,1 °C 8,0 km/h (2 Bft)
27.03.2025 17:07 21,7 °C 12,0 °C 45 % 70 % 1019,6 hPa 0,0 l/m² 5,4 km/h (2 Bft) SO 132 ° 1 min 88 W/m² 6,7 °C 12,0 °C 6,4 km/h (2 Bft)
27.03.2025 17:08 21,7 °C 12,0 °C 45 % 70 % 1019,5 hPa 0,0 l/m² 6,5 km/h (2 Bft) O-SO 117 ° 1 min 84 W/m² 6,7 °C 12,0 °C 9,7 km/h (2 Bft)
27.03.2025 17:09 21,7 °C 12,0 °C 45 % 70 % 1019,5 hPa 0,0 l/m² 8,3 km/h (2 Bft) O-SO 121 ° 1 min 83 W/m² 6,7 °C 10,8 °C 11,3 km/h (2 Bft)
27.03.2025 17:10 21,7 °C 11,9 °C 45 % 70 % 1019,6 hPa 0,0 l/m² 6,2 km/h (2 Bft) O-SO 119 ° 1 min 79 W/m² 6,6 °C 11,9 °C 8,0 km/h (2 Bft)
27.03.2025 17:11 21,7 °C 11,9 °C 45 % 70 % 1019,5 hPa 0,0 l/m² 4,6 km/h (1 Bft) O-SO 119 ° 1 min 81 W/m² 6,6 °C 11,9 °C 6,4 km/h (2 Bft)
27.03.2025 17:12 21,7 °C 11,8 °C 45 % 71 % 1019,6 hPa 0,0 l/m² 5,7 km/h (2 Bft) O-SO 122 ° 1 min 79 W/m² 6,7 °C 11,8 °C 8,0 km/h (2 Bft)
27.03.2025 17:13 21,7 °C 11,9 °C 45 % 70 % 1019,6 hPa 0,0 l/m² 6,2 km/h (2 Bft) O-SO 121 ° 1 min 81 W/m² 6,6 °C 11,9 °C 8,0 km/h (2 Bft)
27.03.2025 17:14 21,7 °C 11,8 °C 45 % 70 % 1019,5 hPa 0,0 l/m² 5,1 km/h (1 Bft) O-SO 121 ° 1 min 79 W/m² 6,5 °C 11,8 °C 6,4 km/h (2 Bft)
27.03.2025 17:15 21,6 °C 11,8 °C 45 % 71 % 1019,6 hPa 0,0 l/m² 5,8 km/h (2 Bft) SO 130 ° 1 min 83 W/m² 6,7 °C 11,8 °C 8,0 km/h (2 Bft)
27.03.2025 17:16 21,7 °C 11,8 °C 45 % 70 % 1019,6 hPa 0,0 l/m² 6,2 km/h (2 Bft) SO 125 ° 1 min 79 W/m² 6,5 °C 11,8 °C 8,0 km/h (2 Bft)
27.03.2025 17:17 21,6 °C 11,8 °C 45 % 70 % 1019,5 hPa 0,0 l/m² 6,8 km/h (2 Bft) SO 125 ° 1 min 74 W/m² 6,5 °C 11,5 °C 8,0 km/h (2 Bft)
27.03.2025 17:18 21,7 °C 11,8 °C 45 % 70 % 1019,5 hPa 0,0 l/m² 6,8 km/h (2 Bft) SO 130 ° 1 min 74 W/m² 6,5 °C 11,5 °C 11,3 km/h (2 Bft)
27.03.2025 17:19 21,6 °C 11,8 °C 45 % 71 % 1019,6 hPa 0,0 l/m² 8,0 km/h (2 Bft) SO 136 ° 1 min 62 W/m² 6,7 °C 10,7 °C 11,3 km/h (2 Bft)
27.03.2025 17:20 21,7 °C 11,8 °C 45 % 71 % 1019,5 hPa 0,0 l/m² 7,2 km/h (2 Bft) SO 144 ° 1 min 70 W/m² 6,7 °C 11,3 °C 9,7 km/h (2 Bft)
27.03.2025 17:21 21,6 °C 11,7 °C 45 % 71 % 1019,5 hPa 0,0 l/m² 9,2 km/h (2 Bft) S-SO 150 ° 1 min 65 W/m² 6,6 °C 9,9 °C 12,9 km/h (3 Bft)
27.03.2025 17:22 21,7 °C 11,7 °C 45 % 72 % 1019,6 hPa 0,0 l/m² 5,9 km/h (2 Bft) S-SO 147 ° 1 min 65 W/m² 6,8 °C 11,7 °C 6,4 km/h (2 Bft)
27.03.2025 17:23 21,6 °C 11,6 °C 45 % 72 % 1019,5 hPa 0,0 l/m² 5,2 km/h (1 Bft) S-SO 147 ° 1 min 65 W/m² 6,7 °C 11,6 °C 6,4 km/h (2 Bft)
27.03.2025 17:24 21,6 °C 11,6 °C 45 % 72 % 1019,6 hPa 0,0 l/m² 5,4 km/h (2 Bft) SO 144 ° 1 min 60 W/m² 6,7 °C 11,6 °C 8,0 km/h (2 Bft)
27.03.2025 17:25 21,6 °C 11,6 °C 45 % 72 % 1019,6 hPa 0,0 l/m² 6,2 km/h (2 Bft) SO 144 ° 1 min 62 W/m² 6,7 °C 11,6 °C 9,7 km/h (2 Bft)
27.03.2025 17:26 21,7 °C 11,4 °C 45 % 73 % 1019,5 hPa 0,0 l/m² 5,6 km/h (2 Bft) SO 138 ° 1 min 60 W/m² 6,7 °C 11,4 °C 11,3 km/h (2 Bft)
27.03.2025 17:27 21,6 °C 11,5 °C 45 % 72 % 1019,5 hPa 0,0 l/m² 6,4 km/h (2 Bft) SO 133 ° 1 min 54 W/m² 6,6 °C 11,5 °C 11,3 km/h (2 Bft)
27.03.2025 17:28 21,6 °C 11,4 °C 45 % 72 % 1019,6 hPa 0,0 l/m² 6,2 km/h (2 Bft) SO 134 ° 0 min 49 W/m² 6,5 °C 11,4 °C 8,0 km/h (2 Bft)
27.03.2025 17:29 21,6 °C 11,4 °C 45 % 72 % 1019,6 hPa 0,0 l/m² 5,6 km/h (2 Bft) SO 133 ° 0 min 49 W/m² 6,5 °C 11,4 °C 6,4 km/h (2 Bft)
27.03.2025 17:30 21,6 °C 11,4 °C 45 % 72 % 1019,5 hPa 0,0 l/m² 5,7 km/h (2 Bft) SO 130 ° 0 min 46 W/m² 6,5 °C 11,4 °C 8,0 km/h (2 Bft)
27.03.2025 17:31 21,6 °C 11,4 °C 45 % 73 % 1019,5 hPa 0,0 l/m² 7,9 km/h (2 Bft) SO 128 ° 1 min 53 W/m² 6,7 °C 10,4 °C 11,3 km/h (2 Bft)
27.03.2025 17:32 21,6 °C 11,3 °C 45 % 72 % 1019,5 hPa 0,0 l/m² 9,2 km/h (2 Bft) O-SO 123 ° 0 min 44 W/m² 6,4 °C 9,5 °C 11,3 km/h (2 Bft)
27.03.2025 17:33 21,6 °C 11,3 °C 45 % 72 % 1019,5 hPa 0,0 l/m² 8,3 km/h (2 Bft) SO 133 ° 0 min 39 W/m² 6,4 °C 10,0 °C 14,5 km/h (3 Bft)
27.03.2025 17:34 21,6 °C 11,3 °C 45 % 72 % 1019,5 hPa 0,0 l/m² 10,1 km/h (2 Bft) O-SO 122 ° 0 min 32 W/m² 6,4 °C 9,0 °C 12,9 km/h (3 Bft)
27.03.2025 17:35 21,6 °C 11,3 °C 45 % 72 % 1019,4 hPa 0,0 l/m² 6,4 km/h (2 Bft) O-SO 123 ° 0 min 33 W/m² 6,4 °C 11,3 °C 11,3 km/h (2 Bft)
27.03.2025 17:36 21,6 °C 11,3 °C 45 % 72 % 1019,5 hPa 0,0 l/m² 8,9 km/h (2 Bft) SO 134 ° 0 min 35 W/m² 6,4 °C 9,7 °C 12,9 km/h (3 Bft)
27.03.2025 17:37 21,6 °C 11,3 °C 45 % 72 % 1019,4 hPa 0,0 l/m² 7,9 km/h (2 Bft) SO 126 ° 0 min 35 W/m² 6,4 °C 10,3 °C 11,3 km/h (2 Bft)
27.03.2025 17:38 21,6 °C 11,3 °C 45 % 73 % 1019,6 hPa 0,0 l/m² 7,0 km/h (2 Bft) SO 130 ° 0 min 35 W/m² 6,6 °C 10,9 °C 8,0 km/h (2 Bft)
27.03.2025 17:39 21,6 °C 11,2 °C 45 % 72 % 1019,5 hPa 0,0 l/m² 6,8 km/h (2 Bft) SO 132 ° 0 min 35 W/m² 6,3 °C 10,9 °C 8,0 km/h (2 Bft)
27.03.2025 17:40 21,6 °C 11,2 °C 45 % 73 % 1019,5 hPa 0,0 l/m² 5,4 km/h (2 Bft) SO 132 ° 0 min 32 W/m² 6,5 °C 11,2 °C 8,0 km/h (2 Bft)
27.03.2025 17:41 21,6 °C 11,1 °C 45 % 73 % 1019,5 hPa 0,0 l/m² 4,8 km/h (1 Bft) SO 135 ° 0 min 32 W/m² 6,4 °C 11,1 °C 6,4 km/h (2 Bft)
27.03.2025 17:42 21,6 °C 11,1 °C 45 % 74 % 1019,5 hPa 0,0 l/m² 5,0 km/h (1 Bft) SO 133 ° 0 min 30 W/m² 6,6 °C 11,1 °C 6,4 km/h (2 Bft)
27.03.2025 17:43 21,6 °C 10,9 °C 45 % 74 % 1019,5 hPa 0,0 l/m² 6,4 km/h (2 Bft) SO 138 ° 0 min 28 W/m² 6,5 °C 10,9 °C 8,0 km/h (2 Bft)
27.03.2025 17:44 21,6 °C 10,9 °C 45 % 73 % 1019,5 hPa 0,0 l/m² 4,3 km/h (1 Bft) SO 136 ° 0 min 28 W/m² 6,3 °C 10,9 °C 6,4 km/h (2 Bft)
27.03.2025 17:45 21,6 °C 10,9 °C 45 % 74 % 1019,5 hPa 0,0 l/m² 6,7 km/h (2 Bft) SO 133 ° 0 min 28 W/m² 6,5 °C 10,7 °C 11,3 km/h (2 Bft)
27.03.2025 17:46 21,6 °C 10,8 °C 45 % 74 % 1019,5 hPa 0,0 l/m² 8,2 km/h (2 Bft) SO 128 ° 0 min 28 W/m² 6,4 °C 9,6 °C 12,9 km/h (3 Bft)
27.03.2025 17:47 21,6 °C 10,8 °C 45 % 74 % 1019,6 hPa 0,0 l/m² 6,5 km/h (2 Bft) SO 130 ° 0 min 28 W/m² 6,4 °C 10,8 °C 8,0 km/h (2 Bft)
27.03.2025 17:48 21,6 °C 10,7 °C 45 % 74 % 1019,6 hPa 0,0 l/m² 7,1 km/h (2 Bft) SO 134 ° 0 min 28 W/m² 6,3 °C 10,2 °C 11,3 km/h (2 Bft)
27.03.2025 17:49 21,6 °C 10,7 °C 45 % 74 % 1019,6 hPa 0,0 l/m² 5,6 km/h (2 Bft) SO 134 ° 0 min 26 W/m² 6,3 °C 10,7 °C 8,0 km/h (2 Bft)
27.03.2025 17:50 21,6 °C 10,6 °C 45 % 75 % 1019,6 hPa 0,0 l/m² 5,7 km/h (2 Bft) SO 132 ° 0 min 25 W/m² 6,4 °C 10,6 °C 8,0 km/h (2 Bft)
27.03.2025 17:51 21,6 °C 10,6 °C 45 % 75 % 1019,6 hPa 0,0 l/m² 6,0 km/h (2 Bft) SO 135 ° 0 min 23 W/m² 6,4 °C 10,6 °C 8,0 km/h (2 Bft)
27.03.2025 17:52 21,6 °C 10,5 °C 45 % 75 % 1019,5 hPa 0,0 l/m² 7,8 km/h (2 Bft) SO 130 ° 0 min 25 W/m² 6,3 °C 9,5 °C 11,3 km/h (2 Bft)
27.03.2025 17:53 21,6 °C 10,4 °C 45 % 75 % 1019,4 hPa 0,0 l/m² 7,3 km/h (2 Bft) SO 127 ° 0 min 25 W/m² 6,2 °C 9,8 °C 8,0 km/h (2 Bft)
27.03.2025 17:54 21,6 °C 10,4 °C 45 % 75 % 1019,6 hPa 0,0 l/m² 7,2 km/h (2 Bft) SO 129 ° 0 min 25 W/m² 6,2 °C 9,8 °C 11,3 km/h (2 Bft)
27.03.2025 17:55 21,6 °C 10,4 °C 45 % 75 % 1019,5 hPa 0,0 l/m² 8,9 km/h (2 Bft) SO 126 ° 0 min 23 W/m² 6,2 °C 8,7 °C 11,3 km/h (2 Bft)
27.03.2025 17:56 21,6 °C 10,3 °C 45 % 76 % 1019,5 hPa 0,0 l/m² 7,1 km/h (2 Bft) SO 129 ° 0 min 21 W/m² 6,3 °C 9,8 °C 8,0 km/h (2 Bft)
27.03.2025 17:57 21,6 °C 10,3 °C 45 % 76 % 1019,5 hPa 0,0 l/m² 8,4 km/h (2 Bft) SO 130 ° 0 min 21 W/m² 6,3 °C 8,9 °C 11,3 km/h (2 Bft)
27.03.2025 17:58 21,6 °C 10,3 °C 45 % 76 % 1019,5 hPa 0,0 l/m² 10,1 km/h (2 Bft) SO 130 ° 0 min 19 W/m² 6,3 °C 7,9 °C 14,5 km/h (3 Bft)
27.03.2025 17:59 21,6 °C 10,3 °C 45 % 76 % 1019,5 hPa 0,0 l/m² 10,8 km/h (2 Bft) SO 132 ° 0 min 19 W/m² 6,3 °C 7,5 °C 14,5 km/h (3 Bft)
27.03.2025 18:00 21,6 °C 10,3 °C 45 % 76 % 1019,5 hPa 0,0 l/m² 8,2 km/h (2 Bft) SO 133 ° 0 min 18 W/m² 6,3 °C 9,0 °C 11,3 km/h (2 Bft)
27.03.2025 18:01 21,6 °C 10,2 °C 45 % 76 % 1019,5 hPa 0,0 l/m² 7,4 km/h (2 Bft) SO 134 ° 0 min 18 W/m² 6,2 °C 9,5 °C 12,9 km/h (3 Bft)
27.03.2025 18:02 21,6 °C 10,2 °C 45 % 76 % 1019,5 hPa 0,0 l/m² 8,1 km/h (2 Bft) SO 128 ° 0 min 18 W/m² 6,2 °C 9,0 °C 11,3 km/h (2 Bft)
27.03.2025 18:03 21,6 °C 10,2 °C 45 % 76 % 1019,5 hPa 0,0 l/m² 6,6 km/h (2 Bft) SO 128 ° 0 min 18 W/m² 6,2 °C 10,1 °C 8,0 km/h (2 Bft)
27.03.2025 18:04 21,6 °C 10,1 °C 45 % 76 % 1019,6 hPa 0,0 l/m² 8,4 km/h (2 Bft) SO 133 ° 0 min 16 W/m² 6,1 °C 8,7 °C 12,9 km/h (3 Bft)
27.03.2025 18:05 21,6 °C 10,1 °C 45 % 76 % 1019,6 hPa 0,0 l/m² 10,8 km/h (2 Bft) SO 126 ° 0 min 16 W/m² 6,1 °C 7,3 °C 14,5 km/h (3 Bft)
27.03.2025 18:06 21,5 °C 10,1 °C 45 % 76 % 1019,5 hPa 0,0 l/m² 7,8 km/h (2 Bft) SO 127 ° 0 min 16 W/m² 6,1 °C 9,1 °C 12,9 km/h (3 Bft)
27.03.2025 18:07 21,5 °C 10,1 °C 45 % 76 % 1019,5 hPa 0,0 l/m² 9,7 km/h (2 Bft) SO 126 ° 0 min 14 W/m² 6,1 °C 7,9 °C 12,9 km/h (3 Bft)
27.03.2025 18:08 21,5 °C 10,0 °C 45 % 76 % 1019,5 hPa 0,0 l/m² 8,5 km/h (2 Bft) O-SO 121 ° 0 min 14 W/m² 6,0 °C 8,5 °C 11,3 km/h (2 Bft)
27.03.2025 18:09 21,5 °C 9,9 °C 45 % 76 % 1019,5 hPa 0,0 l/m² 7,8 km/h (2 Bft) O-SO 119 ° 0 min 14 W/m² 5,9 °C 8,9 °C 12,9 km/h (3 Bft)
27.03.2025 18:10 21,5 °C 9,9 °C 44 % 76 % 1019,5 hPa 0,0 l/m² 8,7 km/h (2 Bft) O-SO 118 ° 0 min 14 W/m² 5,9 °C 8,3 °C 12,9 km/h (3 Bft)
27.03.2025 18:11 21,5 °C 9,8 °C 44 % 77 % 1019,5 hPa 0,0 l/m² 7,7 km/h (2 Bft) O-SO 122 ° 0 min 12 W/m² 6,0 °C 8,9 °C 11,3 km/h (2 Bft)
27.03.2025 18:12 21,5 °C 9,8 °C 44 % 77 % 1019,5 hPa 0,0 l/m² 10,7 km/h (2 Bft) SO 124 ° 0 min 12 W/m² 6,0 °C 7,0 °C 12,9 km/h (3 Bft)
27.03.2025 18:13 21,5 °C 9,8 °C 44 % 77 % 1019,5 hPa 0,0 l/m² 8,5 km/h (2 Bft) SO 124 ° 0 min 12 W/m² 6,0 °C 8,3 °C 12,9 km/h (3 Bft)
27.03.2025 18:14 21,5 °C 9,7 °C 44 % 77 % 1019,6 hPa 0,0 l/m² 7,3 km/h (2 Bft) O-SO 123 ° 0 min 12 W/m² 5,9 °C 9,0 °C 11,3 km/h (2 Bft)
27.03.2025 18:15 21,5 °C 9,7 °C 44 % 77 % 1019,5 hPa 0,0 l/m² 7,1 km/h (2 Bft) O-SO 121 ° 0 min 11 W/m² 5,9 °C 9,2 °C 11,3 km/h (2 Bft)
27.03.2025 18:16 21,4 °C 9,6 °C 44 % 77 % 1019,6 hPa 0,0 l/m² 6,6 km/h (2 Bft) O-SO 119 ° 0 min 11 W/m² 5,8 °C 9,5 °C 8,0 km/h (2 Bft)
27.03.2025 18:17 21,4 °C 9,6 °C 44 % 77 % 1019,6 hPa 0,0 l/m² 5,4 km/h (2 Bft) O-SO 117 ° 0 min 11 W/m² 5,8 °C 9,6 °C 6,4 km/h (2 Bft)
27.03.2025 18:18 21,4 °C 9,5 °C 44 % 78 % 1019,6 hPa 0,0 l/m² 5,1 km/h (1 Bft) O-SO 117 ° 0 min 11 W/m² 5,9 °C 9,5 °C 6,4 km/h (2 Bft)
27.03.2025 18:19 21,5 °C 9,4 °C 45 % 78 % 1019,6 hPa 0,0 l/m² 5,9 km/h (2 Bft) O-SO 114 ° 0 min 9 W/m² 5,8 °C 9,4 °C 9,7 km/h (2 Bft)
27.03.2025 18:20 21,4 °C 9,3 °C 45 % 78 % 1019,3 hPa 0,0 l/m² 7,3 km/h (2 Bft) O-SO 107 ° 0 min 9 W/m² 5,7 °C 8,6 °C 11,3 km/h (2 Bft)
27.03.2025 18:21 21,4 °C 9,2 °C 45 % 78 % 1019,2 hPa 0,0 l/m² 9,8 km/h (2 Bft) O-SO 115 ° 0 min 9 W/m² 5,6 °C 6,8 °C 12,9 km/h (3 Bft)
27.03.2025 18:22 21,4 °C 9,2 °C 44 % 78 % 1019,3 hPa 0,0 l/m² 9,3 km/h (2 Bft) O-SO 109 ° 0 min 9 W/m² 5,6 °C 7,1 °C 11,3 km/h (2 Bft)
27.03.2025 18:23 21,4 °C 9,2 °C 44 % 78 % 1019,3 hPa 0,0 l/m² 9,8 km/h (2 Bft) O-SO 112 ° 0 min 7 W/m² 5,6 °C 6,8 °C 11,3 km/h (2 Bft)
27.03.2025 18:24 21,4 °C 9,1 °C 44 % 78 % 1019,3 hPa 0,0 l/m² 9,7 km/h (2 Bft) O-SO 114 ° 0 min 7 W/m² 5,5 °C 6,8 °C 12,9 km/h (3 Bft)
27.03.2025 18:25 21,4 °C 9,1 °C 44 % 78 % 1019,3 hPa 0,0 l/m² 9,5 km/h (2 Bft) O-SO 112 ° 0 min 7 W/m² 5,5 °C 6,9 °C 12,9 km/h (3 Bft)
27.03.2025 18:26 21,4 °C 9,1 °C 44 % 78 % 1019,6 hPa 0,0 l/m² 8,0 km/h (2 Bft) O-SO 112 ° 0 min 7 W/m² 5,5 °C 7,9 °C 11,3 km/h (2 Bft)
27.03.2025 18:27 21,4 °C 9,0 °C 44 % 79 % 1019,6 hPa 0,0 l/m² 6,3 km/h (2 Bft) O-SO 113 ° 0 min 5 W/m² 5,6 °C 9,0 °C 6,4 km/h (2 Bft)
27.03.2025 18:28 21,4 °C 8,9 °C 44 % 79 % 1019,6 hPa 0,0 l/m² 5,5 km/h (2 Bft) O-SO 112 ° 0 min 5 W/m² 5,5 °C 8,9 °C 6,4 km/h (2 Bft)
27.03.2025 18:29 21,4 °C 8,9 °C 45 % 79 % 1019,6 hPa 0,0 l/m² 6,9 km/h (2 Bft) O-SO 112 ° 0 min 5 W/m² 5,5 °C 8,5 °C 9,7 km/h (2 Bft)
27.03.2025 18:30 21,4 °C 8,8 °C 45 % 79 % 1019,6 hPa 0,0 l/m² 5,2 km/h (1 Bft) O-SO 111 ° 0 min 5 W/m² 5,4 °C 8,8 °C 6,4 km/h (2 Bft)
27.03.2025 18:31 21,4 °C 8,8 °C 45 % 79 % 1019,6 hPa 0,0 l/m² 6,0 km/h (2 Bft) O-SO 110 ° 0 min 5 W/m² 5,4 °C 8,8 °C 9,7 km/h (2 Bft)
27.03.2025 18:32 21,4 °C 8,8 °C 45 % 79 % 1019,7 hPa 0,0 l/m² 8,6 km/h (2 Bft) O-SO 105 ° 0 min 5 W/m² 5,4 °C 7,2 °C 9,7 km/h (2 Bft)
27.03.2025 18:33 21,4 °C 8,7 °C 45 % 79 % 1019,6 hPa 0,0 l/m² 7,5 km/h (2 Bft) O-SO 109 ° 0 min 0 W/m² 5,3 °C 7,9 °C 9,7 km/h (2 Bft)
27.03.2025 18:34 21,4 °C 8,7 °C 45 % 79 % 1019,6 hPa 0,0 l/m² 7,2 km/h (2 Bft) O-SO 108 ° 0 min 0 W/m² 5,3 °C 8,1 °C 9,7 km/h (2 Bft)
27.03.2025 18:35 21,4 °C 8,7 °C 45 % 79 % 1019,6 hPa 0,0 l/m² 6,4 km/h (2 Bft) O-SO 105 ° 0 min 0 W/m² 5,3 °C 8,7 °C 9,7 km/h (2 Bft)
27.03.2025 18:36 21,4 °C 8,7 °C 45 % 79 % 1019,6 hPa 0,0 l/m² 6,0 km/h (2 Bft) O-SO 104 ° 0 min 0 W/m² 5,3 °C 8,7 °C 9,7 km/h (2 Bft)
27.03.2025 18:37 21,4 °C 8,6 °C 45 % 79 % 1019,7 hPa 0,0 l/m² 7,6 km/h (2 Bft) O-SO 103 ° 0 min 0 W/m² 5,2 °C 7,7 °C 11,3 km/h (2 Bft)
27.03.2025 18:38 21,4 °C 8,6 °C 45 % 79 % 1019,6 hPa 0,0 l/m² 6,0 km/h (2 Bft) O-SO 104 ° 0 min 0 W/m² 5,2 °C 8,6 °C 9,7 km/h (2 Bft)
27.03.2025 18:39 21,4 °C 8,6 °C 45 % 79 % 1019,7 hPa 0,0 l/m² 4,6 km/h (1 Bft) O-SO 104 ° 0 min 0 W/m² 5,2 °C 8,6 °C 6,4 km/h (2 Bft)
27.03.2025 18:40 21,4 °C 8,5 °C 45 % 79 % 1019,6 hPa 0,0 l/m² 5,7 km/h (2 Bft) O-SO 104 ° 0 min 0 W/m² 5,1 °C 8,5 °C 6,4 km/h (2 Bft)
27.03.2025 18:41 21,4 °C 8,5 °C 45 % 79 % 1019,7 hPa 0,0 l/m² 5,7 km/h (2 Bft) O-SO 104 ° 0 min 0 W/m² 5,1 °C 8,5 °C 6,4 km/h (2 Bft)
27.03.2025 18:42 21,4 °C 8,4 °C 45 % 80 % 1019,7 hPa 0,0 l/m² 5,1 km/h (1 Bft) O-SO 104 ° 0 min 0 W/m² 5,2 °C 8,4 °C 6,4 km/h (2 Bft)
27.03.2025 18:43 21,4 °C 8,4 °C 45 % 80 % 1019,6 hPa 0,0 l/m² 5,9 km/h (2 Bft) O-SO 103 ° 0 min 0 W/m² 5,2 °C 8,4 °C 6,4 km/h (2 Bft)
27.03.2025 18:44 21,4 °C 8,4 °C 45 % 80 % 1019,7 hPa 0,0 l/m² 5,2 km/h (1 Bft) O-SO 103 ° 0 min 0 W/m² 5,2 °C 8,4 °C 6,4 km/h (2 Bft)
27.03.2025 18:46 21,4 °C 8,3 °C 45 % 80 % 1019,6 hPa 0,0 l/m² 5,1 km/h (1 Bft) O-SO 103 ° 0 min 0 W/m² 5,1 °C 8,3 °C 6,4 km/h (2 Bft)
27.03.2025 18:47 21,4 °C 8,3 °C 46 % 80 % 1019,6 hPa 0,0 l/m² 5,0 km/h (1 Bft) O-SO 103 ° 0 min 0 W/m² 5,1 °C 8,3 °C 6,4 km/h (2 Bft)
27.03.2025 18:48 21,4 °C 8,2 °C 46 % 80 % 1019,6 hPa 0,0 l/m² 5,8 km/h (2 Bft) O-SO 103 ° 0 min 0 W/m² 5,0 °C 8,2 °C 6,4 km/h (2 Bft)
27.03.2025 18:49 21,4 °C 8,2 °C 46 % 80 % 1019,7 hPa 0,0 l/m² 4,6 km/h (1 Bft) O-SO 103 ° 0 min 0 W/m² 5,0 °C 8,2 °C 6,4 km/h (2 Bft)
27.03.2025 18:50 21,4 °C 8,1 °C 46 % 80 % 1019,7 hPa 0,0 l/m² 4,6 km/h (1 Bft) O-SO 103 ° 0 min 0 W/m² 4,9 °C 8,1 °C 6,4 km/h (2 Bft)
27.03.2025 18:51 21,4 °C 8,1 °C 46 % 80 % 1019,7 hPa 0,0 l/m² 4,1 km/h (1 Bft) O-SO 103 ° 0 min 0 W/m² 4,9 °C 8,1 °C 6,4 km/h (2 Bft)
27.03.2025 18:52 21,4 °C 8,0 °C 46 % 80 % 1019,6 hPa 0,0 l/m² 3,9 km/h (1 Bft) O-SO 103 ° 0 min 0 W/m² 4,8 °C 8,0 °C 4,8 km/h (1 Bft)
27.03.2025 18:53 21,4 °C 8,0 °C 46 % 80 % 1019,7 hPa 0,0 l/m² 5,6 km/h (2 Bft) O-SO 103 ° 0 min 0 W/m² 4,8 °C 8,0 °C 9,7 km/h (2 Bft)
27.03.2025 18:54 21,4 °C 7,9 °C 46 % 80 % 1019,7 hPa 0,0 l/m² 6,6 km/h (2 Bft) O 100 ° 0 min 0 W/m² 4,7 °C 7,8 °C 9,7 km/h (2 Bft)
27.03.2025 18:55 21,4 °C 7,9 °C 46 % 81 % 1019,6 hPa 0,0 l/m² 6,2 km/h (2 Bft) O 96 ° 0 min 0 W/m² 4,8 °C 7,9 °C 9,7 km/h (2 Bft)
27.03.2025 18:56 21,4 °C 7,9 °C 46 % 81 % 1019,7 hPa 0,0 l/m² 6,4 km/h (2 Bft) O 96 ° 0 min 0 W/m² 4,8 °C 7,9 °C 9,7 km/h (2 Bft)
27.03.2025 18:57 21,4 °C 7,9 °C 46 % 81 % 1019,6 hPa 0,0 l/m² 6,5 km/h (2 Bft) O 96 ° 0 min 0 W/m² 4,8 °C 7,8 °C 9,7 km/h (2 Bft)
27.03.2025 18:58 21,4 °C 7,8 °C 46 % 81 % 1019,7 hPa 0,0 l/m² 8,6 km/h (2 Bft) O 96 ° 0 min 0 W/m² 4,7 °C 6,1 °C 11,3 km/h (2 Bft)
27.03.2025 18:59 21,4 °C 7,9 °C 46 % 81 % 1019,7 hPa 0,0 l/m² 6,5 km/h (2 Bft) O 96 ° 0 min 0 W/m² 4,8 °C 7,8 °C 9,7 km/h (2 Bft)
27.03.2025 19:00 21,4 °C 7,9 °C 46 % 81 % 1019,7 hPa 0,0 l/m² 6,1 km/h (2 Bft) O 95 ° 0 min 0 W/m² 4,8 °C 7,9 °C 6,4 km/h (2 Bft)
27.03.2025 19:01 21,4 °C 7,8 °C 46 % 81 % 1019,7 hPa 0,0 l/m² 6,2 km/h (2 Bft) O 94 ° 0 min 0 W/m² 4,7 °C 7,8 °C 9,7 km/h (2 Bft)
27.03.2025 19:02 21,4 °C 7,8 °C 46 % 81 % 1019,7 hPa 0,0 l/m² 5,1 km/h (1 Bft) O 94 ° 0 min 0 W/m² 4,7 °C 7,8 °C 6,4 km/h (2 Bft)
27.03.2025 19:03 21,4 °C 7,7 °C 46 % 81 % 1019,7 hPa 0,0 l/m² 5,9 km/h (2 Bft) O 95 ° 0 min 0 W/m² 4,7 °C 7,7 °C 9,7 km/h (2 Bft)
27.03.2025 19:04 21,4 °C 7,7 °C 46 % 81 % 1019,7 hPa 0,0 l/m² 3,7 km/h (1 Bft) O 95 ° 0 min 0 W/m² 4,7 °C 7,7 °C 4,8 km/h (1 Bft)
27.03.2025 19:05 21,4 °C 7,7 °C 46 % 81 % 1019,7 hPa 0,0 l/m² 3,5 km/h (1 Bft) O 95 ° 0 min 0 W/m² 4,7 °C 7,7 °C 4,8 km/h (1 Bft)
27.03.2025 19:06 21,4 °C 7,6 °C 46 % 81 % 1019,6 hPa 0,0 l/m² 4,1 km/h (1 Bft) O 95 ° 0 min 0 W/m² 4,6 °C 7,6 °C 4,8 km/h (1 Bft)
27.03.2025 19:07 21,4 °C 7,4 °C 46 % 81 % 1019,7 hPa 0,0 l/m² 4,0 km/h (1 Bft) O 95 ° 0 min 0 W/m² 4,4 °C 7,4 °C 4,8 km/h (1 Bft)
27.03.2025 19:08 21,4 °C 7,4 °C 46 % 81 % 1019,8 hPa 0,0 l/m² 3,8 km/h (1 Bft) O 95 ° 0 min 0 W/m² 4,4 °C 7,4 °C 4,8 km/h (1 Bft)
27.03.2025 19:09 21,4 °C 7,4 °C 46 % 82 % 1019,7 hPa 0,0 l/m² 2,4 km/h (1 Bft) O 95 ° 0 min 0 W/m² 4,5 °C 7,4 °C 4,8 km/h (1 Bft)
27.03.2025 19:10 21,4 °C 7,4 °C 46 % 82 % 1019,7 hPa 0,0 l/m² 2,5 km/h (1 Bft) O 95 ° 0 min 0 W/m² 4,5 °C 7,4 °C 4,8 km/h (1 Bft)
27.03.2025 19:11 21,4 °C 7,4 °C 46 % 82 % 1019,8 hPa 0,0 l/m² 2,5 km/h (1 Bft) O 95 ° 0 min 0 W/m² 4,5 °C 7,4 °C 3,2 km/h (1 Bft)
27.03.2025 19:12 21,4 °C 7,4 °C 46 % 82 % 1019,7 hPa 0,0 l/m² 2,5 km/h (1 Bft) O 95 ° 0 min 0 W/m² 4,5 °C 7,4 °C 3,2 km/h (1 Bft)
27.03.2025 19:13 21,4 °C 7,3 °C 46 % 82 % 1019,8 hPa 0,0 l/m² 2,7 km/h (1 Bft) O 95 ° 0 min 0 W/m² 4,4 °C 7,3 °C 4,8 km/h (1 Bft)
27.03.2025 19:14 21,4 °C 7,3 °C 46 % 82 % 1019,7 hPa 0,0 l/m² 3,0 km/h (1 Bft) O 95 ° 0 min 0 W/m² 4,4 °C 7,3 °C 4,8 km/h (1 Bft)
27.03.2025 19:15 21,4 °C 7,3 °C 46 % 82 % 1019,7 hPa 0,0 l/m² 3,4 km/h (1 Bft) O 95 ° 0 min 0 W/m² 4,4 °C 7,3 °C 4,8 km/h (1 Bft)
27.03.2025 19:16 21,4 °C 7,3 °C 46 % 82 % 1019,7 hPa 0,0 l/m² 3,4 km/h (1 Bft) O 95 ° 0 min 0 W/m² 4,4 °C 7,3 °C 4,8 km/h (1 Bft)
27.03.2025 19:17 21,4 °C 7,3 °C 46 % 82 % 1019,7 hPa 0,0 l/m² 3,8 km/h (1 Bft) O 95 ° 0 min 0 W/m² 4,4 °C 7,3 °C 4,8 km/h (1 Bft)
27.03.2025 19:18 21,4 °C 7,3 °C 46 % 83 % 1019,8 hPa 0,0 l/m² 3,2 km/h (1 Bft) O 95 ° 0 min 0 W/m² 4,6 °C 7,3 °C 4,8 km/h (1 Bft)
27.03.2025 19:19 21,4 °C 7,3 °C 46 % 82 % 1019,7 hPa 0,0 l/m² 2,7 km/h (1 Bft) O 95 ° 0 min 0 W/m² 4,4 °C 7,3 °C 4,8 km/h (1 Bft)
27.03.2025 19:20 21,4 °C 7,3 °C 46 % 83 % 1019,8 hPa 0,0 l/m² 2,5 km/h (1 Bft) O 95 ° 0 min 0 W/m² 4,6 °C 7,3 °C 4,8 km/h (1 Bft)
27.03.2025 19:21 21,4 °C 7,2 °C 46 % 82 % 1019,7 hPa 0,0 l/m² 0,9 km/h (0 Bft) O 95 ° 0 min 0 W/m² 4,3 °C 7,2 °C 3,2 km/h (1 Bft)
27.03.2025 19:22 21,4 °C 7,2 °C 46 % 82 % 1019,7 hPa 0,0 l/m² 2,6 km/h (1 Bft) O 95 ° 0 min 0 W/m² 4,3 °C 7,2 °C 4,8 km/h (1 Bft)
27.03.2025 19:23 21,4 °C 7,1 °C 46 % 82 % 1019,8 hPa 0,0 l/m² 2,5 km/h (1 Bft) O 95 ° 0 min 0 W/m² 4,2 °C 7,1 °C 3,2 km/h (1 Bft)
27.03.2025 19:24 21,4 °C 6,9 °C 46 % 82 % 1019,8 hPa 0,0 l/m² 2,8 km/h (1 Bft) O 95 ° 0 min 0 W/m² 4,0 °C 6,9 °C 6,4 km/h (2 Bft)
27.03.2025 19:25 21,4 °C 6,8 °C 46 % 82 % 1019,8 hPa 0,0 l/m² 4,7 km/h (1 Bft) O 94 ° 0 min 0 W/m² 3,9 °C 6,8 °C 9,7 km/h (2 Bft)
27.03.2025 19:26 21,4 °C 6,7 °C 46 % 82 % 1019,8 hPa 0,0 l/m² 5,5 km/h (2 Bft) O 94 ° 0 min 0 W/m² 3,8 °C 6,7 °C 6,4 km/h (2 Bft)
27.03.2025 19:27 21,4 °C 6,7 °C 46 % 82 % 1019,8 hPa 0,0 l/m² 4,2 km/h (1 Bft) O 94 ° 0 min 0 W/m² 3,8 °C 6,7 °C 6,4 km/h (2 Bft)
27.03.2025 19:28 21,4 °C 6,6 °C 46 % 83 % 1019,8 hPa 0,0 l/m² 5,4 km/h (2 Bft) O 94 ° 0 min 0 W/m² 3,9 °C 6,6 °C 9,7 km/h (2 Bft)
27.03.2025 19:29 21,4 °C 6,5 °C 46 % 83 % 1019,7 hPa 0,0 l/m² 5,3 km/h (1 Bft) O 95 ° 0 min 0 W/m² 3,8 °C 6,5 °C 6,4 km/h (2 Bft)
27.03.2025 19:30 21,4 °C 6,5 °C 46 % 83 % 1019,7 hPa 0,0 l/m² 4,7 km/h (1 Bft) O 95 ° 0 min 0 W/m² 3,8 °C 6,5 °C 6,4 km/h (2 Bft)
27.03.2025 19:31 21,4 °C 6,4 °C 46 % 83 % 1019,8 hPa 0,0 l/m² 3,4 km/h (1 Bft) O 95 ° 0 min 0 W/m² 3,7 °C 6,4 °C 4,8 km/h (1 Bft)
27.03.2025 19:32 21,4 °C 6,4 °C 46 % 83 % 1019,8 hPa 0,0 l/m² 4,3 km/h (1 Bft) O 94 ° 0 min 0 W/m² 3,7 °C 6,4 °C 6,4 km/h (2 Bft)
27.03.2025 19:33 21,4 °C 6,4 °C 46 % 83 % 1019,8 hPa 0,0 l/m² 4,4 km/h (1 Bft) O 94 ° 0 min 0 W/m² 3,7 °C 6,4 °C 6,4 km/h (2 Bft)
27.03.2025 19:34 21,4 °C 6,4 °C 46 % 84 % 1019,8 hPa 0,0 l/m² 6,2 km/h (2 Bft) O 94 ° 0 min 0 W/m² 3,9 °C 6,4 °C 9,7 km/h (2 Bft)
27.03.2025 19:35 21,4 °C 6,4 °C 46 % 84 % 1019,8 hPa 0,0 l/m² 4,8 km/h (1 Bft) O 94 ° 0 min 0 W/m² 3,9 °C 6,4 °C 6,4 km/h (2 Bft)
27.03.2025 19:36 21,4 °C 6,4 °C 46 % 84 % 1019,7 hPa 0,0 l/m² 5,1 km/h (1 Bft) O 94 ° 0 min 0 W/m² 3,9 °C 6,4 °C 6,4 km/h (2 Bft)
27.03.2025 19:37 21,4 °C 6,3 °C 46 % 84 % 1019,8 hPa 0,0 l/m² 5,4 km/h (2 Bft) O 94 ° 0 min 0 W/m² 3,8 °C 6,3 °C 9,7 km/h (2 Bft)
27.03.2025 19:38 21,4 °C 6,3 °C 46 % 84 % 1019,8 hPa 0,0 l/m² 6,2 km/h (2 Bft) O 94 ° 0 min 0 W/m² 3,8 °C 6,3 °C 9,7 km/h (2 Bft)
27.03.2025 19:39 21,4 °C 6,3 °C 46 % 84 % 1019,8 hPa 0,0 l/m² 5,7 km/h (2 Bft) O 94 ° 0 min 0 W/m² 3,8 °C 6,3 °C 6,4 km/h (2 Bft)
27.03.2025 19:40 21,4 °C 6,3 °C 46 % 84 % 1019,8 hPa 0,0 l/m² 5,7 km/h (2 Bft) O 94 ° 0 min 0 W/m² 3,8 °C 6,3 °C 9,7 km/h (2 Bft)
27.03.2025 19:41 21,4 °C 6,4 °C 46 % 84 % 1019,8 hPa 0,0 l/m² 7,0 km/h (2 Bft) O 94 ° 0 min 0 W/m² 3,9 °C 5,9 °C 9,7 km/h (2 Bft)
27.03.2025 19:42 21,4 °C 6,4 °C 46 % 84 % 1019,8 hPa 0,0 l/m² 6,4 km/h (2 Bft) O 94 ° 0 min 0 W/m² 3,9 °C 6,4 °C 9,7 km/h (2 Bft)
27.03.2025 19:43 21,4 °C 6,5 °C 46 % 84 % 1019,8 hPa 0,0 l/m² 6,2 km/h (2 Bft) O 94 ° 0 min 0 W/m² 4,0 °C 6,5 °C 9,7 km/h (2 Bft)
27.03.2025 19:44 21,4 °C 6,4 °C 46 % 84 % 1019,9 hPa 0,0 l/m² 5,2 km/h (1 Bft) O 94 ° 0 min 0 W/m² 3,9 °C 6,4 °C 6,4 km/h (2 Bft)
27.03.2025 19:45 21,4 °C 6,4 °C 46 % 84 % 1019,8 hPa 0,0 l/m² 5,2 km/h (1 Bft) O 94 ° 0 min 0 W/m² 3,9 °C 6,4 °C 6,4 km/h (2 Bft)
27.03.2025 19:46 21,4 °C 6,4 °C 46 % 84 % 1019,8 hPa 0,0 l/m² 5,6 km/h (2 Bft) O 94 ° 0 min 0 W/m² 3,9 °C 6,4 °C 6,4 km/h (2 Bft)
27.03.2025 19:47 21,4 °C 6,4 °C 47 % 84 % 1019,9 hPa 0,0 l/m² 5,1 km/h (1 Bft) O 94 ° 0 min 0 W/m² 3,9 °C 6,4 °C 6,4 km/h (2 Bft)
27.03.2025 19:48 21,4 °C 6,5 °C 47 % 84 % 1019,9 hPa 0,0 l/m² 4,0 km/h (1 Bft) O 94 ° 0 min 0 W/m² 4,0 °C 6,5 °C 6,4 km/h (2 Bft)
27.03.2025 19:49 21,4 °C 6,6 °C 47 % 84 % 1019,8 hPa 0,0 l/m² 4,7 km/h (1 Bft) O 94 ° 0 min 0 W/m² 4,1 °C 6,6 °C 6,4 km/h (2 Bft)
27.03.2025 19:50 21,4 °C 6,6 °C 47 % 84 % 1019,9 hPa 0,0 l/m² 3,8 km/h (1 Bft) O 94 ° 0 min 0 W/m² 4,1 °C 6,6 °C 4,8 km/h (1 Bft)
27.03.2025 19:51 21,4 °C 6,6 °C 47 % 84 % 1019,9 hPa 0,0 l/m² 3,6 km/h (1 Bft) O 94 ° 0 min 0 W/m² 4,1 °C 6,6 °C 6,4 km/h (2 Bft)
27.03.2025 19:52 21,4 °C 6,7 °C 47 % 84 % 1019,8 hPa 0,0 l/m² 2,7 km/h (1 Bft) O 94 ° 0 min 0 W/m² 4,2 °C 6,7 °C 4,8 km/h (1 Bft)
27.03.2025 19:53 21,4 °C 6,7 °C 47 % 84 % 1019,9 hPa 0,0 l/m² 2,1 km/h (1 Bft) O 94 ° 0 min 0 W/m² 4,2 °C 6,7 °C 3,2 km/h (1 Bft)
27.03.2025 19:54 21,4 °C 6,7 °C 47 % 84 % 1019,8 hPa 0,0 l/m² 3,3 km/h (1 Bft) O 94 ° 0 min 0 W/m² 4,2 °C 6,7 °C 4,8 km/h (1 Bft)
27.03.2025 19:55 21,4 °C 6,7 °C 47 % 84 % 1019,8 hPa 0,0 l/m² 2,2 km/h (1 Bft) O 94 ° 0 min 0 W/m² 4,2 °C 6,7 °C 4,8 km/h (1 Bft)
27.03.2025 19:56 21,4 °C 6,7 °C 47 % 83 % 1019,8 hPa 0,0 l/m² 2,0 km/h (1 Bft) O 94 ° 0 min 0 W/m² 4,0 °C 6,7 °C 4,8 km/h (1 Bft)
27.03.2025 19:57 21,4 °C 6,4 °C 47 % 82 % 1019,8 hPa 0,0 l/m² 0,0 km/h (0 Bft) O 94 ° 0 min 0 W/m² 3,6 °C 6,4 °C 0,0 km/h (0 Bft)
27.03.2025 19:58 21,4 °C 6,4 °C 47 % 83 % 1019,8 hPa 0,0 l/m² 0,1 km/h (0 Bft) O 94 ° 0 min 0 W/m² 3,7 °C 6,4 °C 1,6 km/h (1 Bft)
27.03.2025 19:59 21,4 °C 6,3 °C 47 % 83 % 1019,7 hPa 0,0 l/m² 0,1 km/h (0 Bft) O 94 ° 0 min 0 W/m² 3,6 °C 6,3 °C 1,6 km/h (1 Bft)
27.03.2025 20:00 21,4 °C 6,2 °C 47 % 83 % 1019,7 hPa 0,0 l/m² 0,1 km/h (0 Bft) O 94 ° 0 min 0 W/m² 3,5 °C 6,2 °C 1,6 km/h (1 Bft)
27.03.2025 20:01 21,4 °C 6,1 °C 47 % 83 % 1019,8 hPa 0,0 l/m² 0,2 km/h (0 Bft) O 94 ° 0 min 0 W/m² 3,4 °C 6,1 °C 1,6 km/h (1 Bft)
27.03.2025 20:02 21,4 °C 5,9 °C 47 % 83 % 1019,7 hPa 0,0 l/m² 0,0 km/h (0 Bft) O 94 ° 0 min 0 W/m² 3,2 °C 5,9 °C 0,0 km/h (0 Bft)
27.03.2025 20:03 21,4 °C 5,8 °C 47 % 84 % 1019,7 hPa 0,0 l/m² 0,2 km/h (0 Bft) O 94 ° 0 min 0 W/m² 3,3 °C 5,8 °C 1,6 km/h (1 Bft)
27.03.2025 20:04 21,4 °C 5,8 °C 47 % 84 % 1019,8 hPa 0,0 l/m² 0,0 km/h (0 Bft) O 94 ° 0 min 0 W/m² 3,3 °C 5,8 °C 0,0 km/h (0 Bft)
27.03.2025 20:05 21,4 °C 5,7 °C 47 % 84 % 1019,7 hPa 0,0 l/m² 0,7 km/h (0 Bft) O 94 ° 0 min 0 W/m² 3,2 °C 5,7 °C 3,2 km/h (1 Bft)
27.03.2025 20:06 21,4 °C 5,7 °C 47 % 84 % 1019,7 hPa 0,0 l/m² 1,1 km/h (1 Bft) O 94 ° 0 min 0 W/m² 3,2 °C 5,7 °C 3,2 km/h (1 Bft)
27.03.2025 20:07 21,4 °C 5,7 °C 47 % 85 % 1019,8 hPa 0,0 l/m² 0,2 km/h (0 Bft) O 94 ° 0 min 0 W/m² 3,4 °C 5,7 °C 1,6 km/h (1 Bft)
27.03.2025 20:08 21,4 °C 5,6 °C 47 % 85 % 1019,7 hPa 0,0 l/m² 0,0 km/h (0 Bft) O 94 ° 0 min 0 W/m² 3,3 °C 5,6 °C 0,0 km/h (0 Bft)
27.03.2025 20:09 21,4 °C 5,6 °C 48 % 85 % 1019,7 hPa 0,0 l/m² 0,0 km/h (0 Bft) O 94 ° 0 min 0 W/m² 3,3 °C 5,6 °C 0,0 km/h (0 Bft)
27.03.2025 20:10 21,4 °C 5,5 °C 48 % 85 % 1019,7 hPa 0,0 l/m² 0,0 km/h (0 Bft) O 94 ° 0 min 0 W/m² 3,2 °C 5,5 °C 0,0 km/h (0 Bft)
27.03.2025 20:11 21,4 °C 5,4 °C 48 % 85 % 1019,7 hPa 0,0 l/m² 0,0 km/h (0 Bft) O 94 ° 0 min 0 W/m² 3,1 °C 5,4 °C 0,0 km/h (0 Bft)
27.03.2025 20:12 21,4 °C 5,4 °C 48 % 86 % 1019,7 hPa 0,0 l/m² 0,0 km/h (0 Bft) O 94 ° 0 min 0 W/m² 3,3 °C 5,4 °C 0,0 km/h (0 Bft)
27.03.2025 20:13 21,4 °C 5,3 °C 48 % 86 % 1019,7 hPa 0,0 l/m² 0,0 km/h (0 Bft) O 94 ° 0 min 0 W/m² 3,2 °C 5,3 °C 0,0 km/h (0 Bft)
27.03.2025 20:14 21,4 °C 5,3 °C 48 % 86 % 1019,8 hPa 0,0 l/m² 0,0 km/h (0 Bft) O 94 ° 0 min 0 W/m² 3,2 °C 5,3 °C 0,0 km/h (0 Bft)
27.03.2025 20:15 21,4 °C 5,3 °C 48 % 86 % 1019,8 hPa 0,0 l/m² 0,0 km/h (0 Bft) O 94 ° 0 min 0 W/m² 3,2 °C 5,3 °C 0,0 km/h (0 Bft)
27.03.2025 20:16 21,4 °C 5,2 °C 48 % 86 % 1019,8 hPa 0,0 l/m² 0,0 km/h (0 Bft) O 94 ° 0 min 0 W/m² 3,1 °C 5,2 °C 0,0 km/h (0 Bft)
27.03.2025 20:17 21,5 °C 5,1 °C 48 % 86 % 1019,8 hPa 0,0 l/m² 0,0 km/h (0 Bft) O 94 ° 0 min 0 W/m² 3,0 °C 5,1 °C 0,0 km/h (0 Bft)
27.03.2025 20:18 21,4 °C 5,1 °C 48 % 86 % 1019,8 hPa 0,0 l/m² 0,0 km/h (0 Bft) O 94 ° 0 min 0 W/m² 3,0 °C 5,1 °C 0,0 km/h (0 Bft)
27.03.2025 20:19 21,4 °C 5,0 °C 48 % 86 % 1019,7 hPa 0,0 l/m² 0,0 km/h (0 Bft) O 94 ° 0 min 0 W/m² 2,9 °C 5,0 °C 0,0 km/h (0 Bft)
27.03.2025 20:20 21,4 °C 4,9 °C 48 % 87 % 1019,8 hPa 0,0 l/m² 0,0 km/h (0 Bft) O 94 ° 0 min 0 W/m² 2,9 °C 4,9 °C 0,0 km/h (0 Bft)
27.03.2025 20:21 21,5 °C 4,9 °C 48 % 87 % 1019,8 hPa 0,0 l/m² 0,0 km/h (0 Bft) O 94 ° 0 min 0 W/m² 2,9 °C 4,9 °C 0,0 km/h (0 Bft)
27.03.2025 20:22 21,4 °C 4,9 °C 48 % 87 % 1019,7 hPa 0,0 l/m² 0,0 km/h (0 Bft) O 94 ° 0 min 0 W/m² 2,9 °C 4,9 °C 0,0 km/h (0 Bft)
27.03.2025 20:23 21,5 °C 4,9 °C 48 % 87 % 1019,8 hPa 0,0 l/m² 0,0 km/h (0 Bft) O 94 ° 0 min 0 W/m² 2,9 °C 4,9 °C 0,0 km/h (0 Bft)
27.03.2025 20:24 21,5 °C 4,9 °C 48 % 87 % 1019,8 hPa 0,0 l/m² 0,0 km/h (0 Bft) O 94 ° 0 min 0 W/m² 2,9 °C 4,9 °C 0,0 km/h (0 Bft)
27.03.2025 20:25 21,5 °C 4,9 °C 48 % 88 % 1019,7 hPa 0,0 l/m² 0,0 km/h (0 Bft) O 94 ° 0 min 0 W/m² 3,1 °C 4,9 °C 0,0 km/h (0 Bft)
27.03.2025 20:26 21,4 °C 4,8 °C 48 % 88 % 1019,7 hPa 0,0 l/m² 0,0 km/h (0 Bft) O 94 ° 0 min 0 W/m² 3,0 °C 4,8 °C 0,0 km/h (0 Bft)
27.03.2025 20:27 21,5 °C 4,8 °C 48 % 88 % 1019,8 hPa 0,0 l/m² 0,1 km/h (0 Bft) O 94 ° 0 min 0 W/m² 3,0 °C 4,8 °C 1,6 km/h (1 Bft)
27.03.2025 20:28 21,5 °C 4,8 °C 48 % 88 % 1019,7 hPa 0,0 l/m² 1,2 km/h (1 Bft) O 94 ° 0 min 0 W/m² 3,0 °C 4,8 °C 3,2 km/h (1 Bft)
27.03.2025 20:29 21,5 °C 4,7 °C 48 % 88 % 1019,7 hPa 0,0 l/m² 1,9 km/h (1 Bft) O 94 ° 0 min 0 W/m² 2,9 °C 4,7 °C 3,2 km/h (1 Bft)
27.03.2025 20:30 21,5 °C 4,7 °C 48 % 88 % 1019,8 hPa 0,0 l/m² 0,9 km/h (0 Bft) O 94 ° 0 min 0 W/m² 2,9 °C 4,7 °C 1,6 km/h (1 Bft)
27.03.2025 20:31 21,5 °C 4,6 °C 48 % 88 % 1019,7 hPa 0,0 l/m² 0,4 km/h (0 Bft) O 94 ° 0 min 0 W/m² 2,8 °C 4,6 °C 1,6 km/h (1 Bft)
27.03.2025 20:32 21,4 °C 4,5 °C 48 % 88 % 1019,7 hPa 0,0 l/m² 0,3 km/h (0 Bft) O 94 ° 0 min 0 W/m² 2,7 °C 4,5 °C 1,6 km/h (1 Bft)
27.03.2025 20:33 21,5 °C 4,5 °C 48 % 88 % 1019,7 hPa 0,0 l/m² 0,0 km/h (0 Bft) O 94 ° 0 min 0 W/m² 2,7 °C 4,5 °C 0,0 km/h (0 Bft)
27.03.2025 20:34 21,5 °C 4,4 °C 48 % 88 % 1019,7 hPa 0,0 l/m² 1,7 km/h (1 Bft) O 94 ° 0 min 0 W/m² 2,6 °C 4,4 °C 3,2 km/h (1 Bft)
27.03.2025 20:35 21,5 °C 4,4 °C 48 % 88 % 1019,7 hPa 0,0 l/m² 0,5 km/h (0 Bft) O 94 ° 0 min 0 W/m² 2,6 °C 4,4 °C 1,6 km/h (1 Bft)
27.03.2025 20:36 21,5 °C 4,3 °C 48 % 88 % 1019,7 hPa 0,0 l/m² 1,3 km/h (1 Bft) O 94 ° 0 min 0 W/m² 2,5 °C 4,3 °C 3,2 km/h (1 Bft)
27.03.2025 20:37 21,4 °C 4,2 °C 48 % 88 % 1019,7 hPa 0,0 l/m² 2,5 km/h (1 Bft) O 94 ° 0 min 0 W/m² 2,4 °C 4,2 °C 3,2 km/h (1 Bft)
27.03.2025 20:38 21,5 °C 4,2 °C 48 % 88 % 1019,7 hPa 0,0 l/m² 1,9 km/h (1 Bft) O 94 ° 0 min 0 W/m² 2,4 °C 4,2 °C 3,2 km/h (1 Bft)
27.03.2025 20:39 21,5 °C 4,1 °C 48 % 88 % 1019,7 hPa 0,0 l/m² 0,5 km/h (0 Bft) O 94 ° 0 min 0 W/m² 2,3 °C 4,1 °C 1,6 km/h (1 Bft)
27.03.2025 20:40 21,4 °C 4,1 °C 48 % 88 % 1019,6 hPa 0,0 l/m² 0,5 km/h (0 Bft) O 94 ° 0 min 0 W/m² 2,3 °C 4,1 °C 1,6 km/h (1 Bft)
27.03.2025 20:41 21,4 °C 4,0 °C 48 % 89 % 1019,7 hPa 0,0 l/m² 1,9 km/h (1 Bft) O 94 ° 0 min 0 W/m² 2,4 °C 4,0 °C 3,2 km/h (1 Bft)
27.03.2025 20:42 21,5 °C 4,0 °C 48 % 89 % 1019,7 hPa 0,0 l/m² 0,8 km/h (0 Bft) O 94 ° 0 min 0 W/m² 2,4 °C 4,0 °C 1,6 km/h (1 Bft)
27.03.2025 20:43 21,5 °C 4,0 °C 48 % 89 % 1019,6 hPa 0,0 l/m² 0,0 km/h (0 Bft) O 94 ° 0 min 0 W/m² 2,4 °C 4,0 °C 0,0 km/h (0 Bft)
27.03.2025 20:44 21,4 °C 4,1 °C 48 % 89 % 1019,7 hPa 0,0 l/m² 0,0 km/h (0 Bft) O 94 ° 0 min 0 W/m² 2,5 °C 4,1 °C 0,0 km/h (0 Bft)
27.03.2025 20:45 21,5 °C 4,0 °C 48 % 89 % 1019,6 hPa 0,0 l/m² 0,0 km/h (0 Bft) O 94 ° 0 min 0 W/m² 2,4 °C 4,0 °C 0,0 km/h (0 Bft)
27.03.2025 20:46 21,4 °C 4,0 °C 48 % 89 % 1019,7 hPa 0,0 l/m² 0,0 km/h (0 Bft) O 94 ° 0 min 0 W/m² 2,4 °C 4,0 °C 0,0 km/h (0 Bft)
27.03.2025 20:47 21,5 °C 4,0 °C 48 % 89 % 1019,7 hPa 0,0 l/m² 0,0 km/h (0 Bft) O 94 ° 0 min 0 W/m² 2,4 °C 4,0 °C 0,0 km/h (0 Bft)
27.03.2025 20:48 21,4 °C 4,0 °C 48 % 90 % 1019,6 hPa 0,0 l/m² 0,0 km/h (0 Bft) O 94 ° 0 min 0 W/m² 2,5 °C 4,0 °C 0,0 km/h (0 Bft)
27.03.2025 20:49 21,4 °C 3,9 °C 48 % 90 % 1019,6 hPa 0,0 l/m² 0,0 km/h (0 Bft) O 94 ° 0 min 0 W/m² 2,4 °C 3,9 °C 0,0 km/h (0 Bft)
27.03.2025 20:50 21,4 °C 3,9 °C 48 % 90 % 1019,6 hPa 0,0 l/m² 0,0 km/h (0 Bft) O 94 ° 0 min 0 W/m² 2,4 °C 3,9 °C 0,0 km/h (0 Bft)
27.03.2025 20:51 21,4 °C 3,9 °C 48 % 90 % 1019,6 hPa 0,0 l/m² 0,0 km/h (0 Bft) O 94 ° 0 min 0 W/m² 2,4 °C 3,9 °C 0,0 km/h (0 Bft)
27.03.2025 20:52 21,4 °C 3,9 °C 48 % 90 % 1019,6 hPa 0,0 l/m² 0,0 km/h (0 Bft) O 94 ° 0 min 0 W/m² 2,4 °C 3,9 °C 0,0 km/h (0 Bft)
27.03.2025 20:53 21,4 °C 3,9 °C 48 % 90 % 1019,7 hPa 0,0 l/m² 0,0 km/h (0 Bft) O 94 ° 0 min 0 W/m² 2,4 °C 3,9 °C 0,0 km/h (0 Bft)
27.03.2025 20:54 21,4 °C 3,8 °C 48 % 90 % 1019,6 hPa 0,0 l/m² 0,0 km/h (0 Bft) O 94 ° 0 min 0 W/m² 2,3 °C 3,8 °C 0,0 km/h (0 Bft)
27.03.2025 20:55 21,4 °C 3,8 °C 48 % 90 % 1019,6 hPa 0,0 l/m² 0,0 km/h (0 Bft) O 94 ° 0 min 0 W/m² 2,3 °C 3,8 °C 0,0 km/h (0 Bft)
27.03.2025 20:56 21,5 °C 3,8 °C 48 % 90 % 1019,6 hPa 0,0 l/m² 0,0 km/h (0 Bft) O 94 ° 0 min 0 W/m² 2,3 °C 3,8 °C 0,0 km/h (0 Bft)
27.03.2025 20:57 21,5 °C 3,8 °C 48 % 90 % 1019,5 hPa 0,0 l/m² 0,0 km/h (0 Bft) O 94 ° 0 min 0 W/m² 2,3 °C 3,8 °C 0,0 km/h (0 Bft)
27.03.2025 20:58 21,4 °C 3,8 °C 48 % 90 % 1019,6 hPa 0,0 l/m² 0,0 km/h (0 Bft) O 94 ° 0 min 0 W/m² 2,3 °C 3,8 °C 0,0 km/h (0 Bft)
27.03.2025 20:59 21,5 °C 3,8 °C 48 % 90 % 1019,6 hPa 0,0 l/m² 0,0 km/h (0 Bft) O 94 ° 0 min 0 W/m² 2,3 °C 3,8 °C 0,0 km/h (0 Bft)
27.03.2025 21:00 21,4 °C 3,8 °C 47 % 90 % 1019,6 hPa 0,0 l/m² 0,0 km/h (0 Bft) O 94 ° 0 min 0 W/m² 2,3 °C 3,8 °C 0,0 km/h (0 Bft)
27.03.2025 21:01 21,5 °C 3,7 °C 47 % 90 % 1019,6 hPa 0,0 l/m² 0,0 km/h (0 Bft) O 94 ° 0 min 0 W/m² 2,2 °C 3,7 °C 0,0 km/h (0 Bft)
27.03.2025 21:02 21,4 °C 3,7 °C 47 % 90 % 1019,6 hPa 0,0 l/m² 0,0 km/h (0 Bft) O 94 ° 0 min 0 W/m² 2,2 °C 3,7 °C 0,0 km/h (0 Bft)
27.03.2025 21:03 21,4 °C 3,7 °C 47 % 90 % 1019,6 hPa 0,0 l/m² 0,0 km/h (0 Bft) O 94 ° 0 min 0 W/m² 2,2 °C 3,7 °C 0,0 km/h (0 Bft)
27.03.2025 21:04 21,4 °C 3,7 °C 47 % 90 % 1019,6 hPa 0,0 l/m² 0,0 km/h (0 Bft) O 94 ° 0 min 0 W/m² 2,2 °C 3,7 °C 0,0 km/h (0 Bft)
27.03.2025 21:05 21,4 °C 3,7 °C 47 % 90 % 1019,6 hPa 0,0 l/m² 0,0 km/h (0 Bft) O 94 ° 0 min 0 W/m² 2,2 °C 3,7 °C 0,0 km/h (0 Bft)
27.03.2025 21:06 21,4 °C 3,7 °C 47 % 90 % 1019,6 hPa 0,0 l/m² 0,0 km/h (0 Bft) O 94 ° 0 min 0 W/m² 2,2 °C 3,7 °C 0,0 km/h (0 Bft)
27.03.2025 21:07 21,4 °C 3,7 °C 47 % 90 % 1019,6 hPa 0,0 l/m² 0,0 km/h (0 Bft) O 94 ° 0 min 0 W/m² 2,2 °C 3,7 °C 0,0 km/h (0 Bft)
27.03.2025 21:08 21,4 °C 3,7 °C 47 % 90 % 1019,6 hPa 0,0 l/m² 0,0 km/h (0 Bft) O 94 ° 0 min 0 W/m² 2,2 °C 3,7 °C 0,0 km/h (0 Bft)
27.03.2025 21:09 21,4 °C 3,6 °C 47 % 90 % 1019,6 hPa 0,0 l/m² 0,0 km/h (0 Bft) O 94 ° 0 min 0 W/m² 2,1 °C 3,6 °C 0,0 km/h (0 Bft)
27.03.2025 21:10 21,4 °C 3,7 °C 47 % 91 % 1019,6 hPa 0,0 l/m² 0,0 km/h (0 Bft) O 94 ° 0 min 0 W/m² 2,4 °C 3,7 °C 0,0 km/h (0 Bft)
27.03.2025 21:11 21,4 °C 3,7 °C 47 % 90 % 1019,6 hPa 0,0 l/m² 0,0 km/h (0 Bft) O 94 ° 0 min 0 W/m² 2,2 °C 3,7 °C 0,0 km/h (0 Bft)
27.03.2025 21:12 21,4 °C 3,7 °C 47 % 90 % 1019,6 hPa 0,0 l/m² 0,0 km/h (0 Bft) O 94 ° 0 min 0 W/m² 2,2 °C 3,7 °C 0,0 km/h (0 Bft)
27.03.2025 21:13 21,4 °C 3,7 °C 47 % 91 % 1019,6 hPa 0,0 l/m² 0,0 km/h (0 Bft) O 94 ° 0 min 0 W/m² 2,4 °C 3,7 °C 0,0 km/h (0 Bft)
27.03.2025 21:15 21,4 °C 3,7 °C 47 % 91 % 1019,7 hPa 0,0 l/m² 0,0 km/h (0 Bft) O 94 ° 0 min 0 W/m² 2,4 °C 3,7 °C 0,0 km/h (0 Bft)
27.03.2025 21:16 21,4 °C 3,7 °C 47 % 91 % 1019,7 hPa 0,0 l/m² 0,0 km/h (0 Bft) O 94 ° 0 min 0 W/m² 2,4 °C 3,7 °C 0,0 km/h (0 Bft)
27.03.2025 21:17 21,4 °C 3,7 °C 47 % 91 % 1019,6 hPa 0,0 l/m² 0,0 km/h (0 Bft) O 94 ° 0 min 0 W/m² 2,4 °C 3,7 °C 0,0 km/h (0 Bft)
27.03.2025 21:18 21,4 °C 3,6 °C 47 % 91 % 1019,6 hPa 0,0 l/m² 0,0 km/h (0 Bft) O 94 ° 0 min 0 W/m² 2,3 °C 3,6 °C 0,0 km/h (0 Bft)
27.03.2025 21:19 21,4 °C 3,6 °C 47 % 91 % 1019,6 hPa 0,0 l/m² 0,0 km/h (0 Bft) O 94 ° 0 min 0 W/m² 2,3 °C 3,6 °C 0,0 km/h (0 Bft)
27.03.2025 21:20 21,4 °C 3,6 °C 47 % 91 % 1019,6 hPa 0,0 l/m² 0,0 km/h (0 Bft) O 94 ° 0 min 0 W/m² 2,3 °C 3,6 °C 0,0 km/h (0 Bft)
27.03.2025 21:21 21,4 °C 3,5 °C 47 % 91 % 1019,6 hPa 0,0 l/m² 0,0 km/h (0 Bft) O 94 ° 0 min 0 W/m² 2,2 °C 3,5 °C 0,0 km/h (0 Bft)
27.03.2025 21:22 21,4 °C 3,5 °C 47 % 91 % 1019,7 hPa 0,0 l/m² 0,0 km/h (0 Bft) O 94 ° 0 min 0 W/m² 2,2 °C 3,5 °C 0,0 km/h (0 Bft)
27.03.2025 21:23 21,4 °C 3,4 °C 47 % 91 % 1019,6 hPa 0,0 l/m² 0,0 km/h (0 Bft) O 94 ° 0 min 0 W/m² 2,1 °C 3,4 °C 0,0 km/h (0 Bft)
27.03.2025 21:24 21,4 °C 3,3 °C 47 % 90 % 1019,6 hPa 0,0 l/m² 0,0 km/h (0 Bft) O 94 ° 0 min 0 W/m² 1,8 °C 3,3 °C 0,0 km/h (0 Bft)
27.03.2025 21:25 21,4 °C 3,3 °C 47 % 90 % 1019,6 hPa 0,0 l/m² 0,0 km/h (0 Bft) O 94 ° 0 min 0 W/m² 1,8 °C 3,3 °C 0,0 km/h (0 Bft)
27.03.2025 21:26 21,4 °C 3,2 °C 47 % 91 % 1019,6 hPa 0,0 l/m² 0,0 km/h (0 Bft) O 94 ° 0 min 0 W/m² 1,9 °C 3,2 °C 0,0 km/h (0 Bft)
27.03.2025 21:27 21,4 °C 3,2 °C 47 % 91 % 1019,6 hPa 0,0 l/m² 0,0 km/h (0 Bft) O 94 ° 0 min 0 W/m² 1,9 °C 3,2 °C 0,0 km/h (0 Bft)
27.03.2025 21:28 21,5 °C 3,2 °C 47 % 91 % 1019,6 hPa 0,0 l/m² 0,0 km/h (0 Bft) O 94 ° 0 min 0 W/m² 1,9 °C 3,2 °C 0,0 km/h (0 Bft)
27.03.2025 21:29 21,5 °C 3,2 °C 47 % 91 % 1019,6 hPa 0,0 l/m² 0,0 km/h (0 Bft) O 94 ° 0 min 0 W/m² 1,9 °C 3,2 °C 0,0 km/h (0 Bft)
27.03.2025 21:30 21,4 °C 3,2 °C 47 % 91 % 1019,7 hPa 0,0 l/m² 0,0 km/h (0 Bft) O 94 ° 0 min 0 W/m² 1,9 °C 3,2 °C 0,0 km/h (0 Bft)
27.03.2025 21:31 21,4 °C 3,2 °C 47 % 91 % 1019,6 hPa 0,0 l/m² 0,0 km/h (0 Bft) O 94 ° 0 min 0 W/m² 1,9 °C 3,2 °C 0,0 km/h (0 Bft)
27.03.2025 21:32 21,4 °C 3,2 °C 47 % 91 % 1019,6 hPa 0,0 l/m² 0,0 km/h (0 Bft) O 94 ° 0 min 0 W/m² 1,9 °C 3,2 °C 0,0 km/h (0 Bft)
27.03.2025 21:33 21,4 °C 3,2 °C 47 % 91 % 1019,6 hPa 0,0 l/m² 0,0 km/h (0 Bft) O 94 ° 0 min 0 W/m² 1,9 °C 3,2 °C 0,0 km/h (0 Bft)
27.03.2025 21:34 21,4 °C 3,1 °C 47 % 91 % 1019,6 hPa 0,0 l/m² 0,0 km/h (0 Bft) O 94 ° 0 min 0 W/m² 1,8 °C 3,1 °C 0,0 km/h (0 Bft)
27.03.2025 21:35 21,4 °C 3,1 °C 47 % 91 % 1019,6 hPa 0,0 l/m² 0,0 km/h (0 Bft) O 94 ° 0 min 0 W/m² 1,8 °C 3,1 °C 0,0 km/h (0 Bft)
27.03.2025 21:36 21,4 °C 3,1 °C 47 % 91 % 1019,6 hPa 0,0 l/m² 0,0 km/h (0 Bft) O 94 ° 0 min 0 W/m² 1,8 °C 3,1 °C 0,0 km/h (0 Bft)
27.03.2025 21:37 21,5 °C 3,1 °C 47 % 91 % 1019,6 hPa 0,0 l/m² 0,0 km/h (0 Bft) O 94 ° 0 min 0 W/m² 1,8 °C 3,1 °C 0,0 km/h (0 Bft)
27.03.2025 21:38 21,4 °C 3,1 °C 47 % 91 % 1019,6 hPa 0,0 l/m² 0,0 km/h (0 Bft) O 94 ° 0 min 0 W/m² 1,8 °C 3,1 °C 0,0 km/h (0 Bft)
27.03.2025 21:39 21,5 °C 3,1 °C 47 % 91 % 1019,6 hPa 0,0 l/m² 0,0 km/h (0 Bft) O 94 ° 0 min 0 W/m² 1,8 °C 3,1 °C 0,0 km/h (0 Bft)
27.03.2025 21:40 21,4 °C 3,1 °C 47 % 91 % 1019,6 hPa 0,0 l/m² 0,0 km/h (0 Bft) O 94 ° 0 min 0 W/m² 1,8 °C 3,1 °C 0,0 km/h (0 Bft)
27.03.2025 21:41 21,4 °C 3,0 °C 47 % 91 % 1019,7 hPa 0,0 l/m² 0,0 km/h (0 Bft) O 94 ° 0 min 0 W/m² 1,7 °C 3,0 °C 0,0 km/h (0 Bft)
27.03.2025 21:42 21,4 °C 2,9 °C 47 % 91 % 1019,6 hPa 0,0 l/m² 0,0 km/h (0 Bft) O 94 ° 0 min 0 W/m² 1,6 °C 2,9 °C 0,0 km/h (0 Bft)
27.03.2025 21:43 21,4 °C 2,8 °C 47 % 91 % 1019,7 hPa 0,0 l/m² 0,0 km/h (0 Bft) O 94 ° 0 min 0 W/m² 1,5 °C 2,8 °C 0,0 km/h (0 Bft)
27.03.2025 21:44 21,4 °C 2,7 °C 47 % 91 % 1019,6 hPa 0,0 l/m² 0,0 km/h (0 Bft) O 94 ° 0 min 0 W/m² 1,4 °C 2,7 °C 0,0 km/h (0 Bft)
27.03.2025 21:46 21,4 °C 2,6 °C 47 % 91 % 1019,6 hPa 0,0 l/m² 0,0 km/h (0 Bft) O 94 ° 0 min 0 W/m² 1,3 °C 2,6 °C 0,0 km/h (0 Bft)
27.03.2025 21:47 21,5 °C 2,6 °C 47 % 91 % 1019,6 hPa 0,0 l/m² 0,0 km/h (0 Bft) O 94 ° 0 min 0 W/m² 1,3 °C 2,6 °C 0,0 km/h (0 Bft)
27.03.2025 21:48 21,4 °C 2,6 °C 47 % 91 % 1019,7 hPa 0,0 l/m² 0,0 km/h (0 Bft) O 94 ° 0 min 0 W/m² 1,3 °C 2,6 °C 0,0 km/h (0 Bft)
27.03.2025 21:49 21,4 °C 2,6 °C 47 % 92 % 1019,7 hPa 0,0 l/m² 0,0 km/h (0 Bft) O 94 ° 0 min 0 W/m² 1,4 °C 2,6 °C 0,0 km/h (0 Bft)
27.03.2025 21:50 21,4 °C 2,6 °C 47 % 92 % 1019,7 hPa 0,0 l/m² 0,0 km/h (0 Bft) O 94 ° 0 min 0 W/m² 1,4 °C 2,6 °C 0,0 km/h (0 Bft)
27.03.2025 21:51 21,4 °C 2,6 °C 47 % 92 % 1019,6 hPa 0,0 l/m² 0,0 km/h (0 Bft) O 94 ° 0 min 0 W/m² 1,4 °C 2,6 °C 0,0 km/h (0 Bft)
27.03.2025 21:53 21,4 °C 2,6 °C 47 % 92 % 1019,6 hPa 0,0 l/m² 0,0 km/h (0 Bft) O 94 ° 0 min 0 W/m² 1,4 °C 2,6 °C 0,0 km/h (0 Bft)
27.03.2025 21:54 21,4 °C 2,6 °C 47 % 92 % 1019,6 hPa 0,0 l/m² 0,0 km/h (0 Bft) O 94 ° 0 min 0 W/m² 1,4 °C 2,6 °C 0,0 km/h (0 Bft)
27.03.2025 21:55 21,4 °C 2,6 °C 47 % 92 % 1019,6 hPa 0,0 l/m² 0,0 km/h (0 Bft) O 94 ° 0 min 0 W/m² 1,4 °C 2,6 °C 0,0 km/h (0 Bft)
27.03.2025 21:56 21,4 °C 2,6 °C 47 % 92 % 1019,6 hPa 0,0 l/m² 0,0 km/h (0 Bft) O 94 ° 0 min 0 W/m² 1,4 °C 2,6 °C 0,0 km/h (0 Bft)
27.03.2025 21:57 21,5 °C 2,6 °C 47 % 92 % 1019,6 hPa 0,0 l/m² 0,0 km/h (0 Bft) O 94 ° 0 min 0 W/m² 1,4 °C 2,6 °C 0,0 km/h (0 Bft)
27.03.2025 21:58 21,5 °C 2,6 °C 47 % 92 % 1019,5 hPa 0,0 l/m² 0,0 km/h (0 Bft) O 94 ° 0 min 0 W/m² 1,4 °C 2,6 °C 0,0 km/h (0 Bft)
27.03.2025 21:59 21,5 °C 2,6 °C 47 % 92 % 1019,5 hPa 0,0 l/m² 0,0 km/h (0 Bft) O 94 ° 0 min 0 W/m² 1,4 °C 2,6 °C 0,0 km/h (0 Bft)
27.03.2025 22:01 21,5 °C 2,6 °C 48 % 92 % 1019,6 hPa 0,0 l/m² 0,0 km/h (0 Bft) O 94 ° 0 min 0 W/m² 1,4 °C 2,6 °C 0,0 km/h (0 Bft)
27.03.2025 22:02 21,5 °C 2,6 °C 48 % 92 % 1019,6 hPa 0,0 l/m² 0,0 km/h (0 Bft) O 94 ° 0 min 0 W/m² 1,4 °C 2,6 °C 0,0 km/h (0 Bft)
27.03.2025 22:03 21,5 °C 2,5 °C 48 % 92 % 1019,5 hPa 0,0 l/m² 0,0 km/h (0 Bft) O 94 ° 0 min 0 W/m² 1,3 °C 2,5 °C 0,0 km/h (0 Bft)
27.03.2025 22:04 21,5 °C 2,5 °C 48 % 92 % 1019,6 hPa 0,0 l/m² 0,0 km/h (0 Bft) O 94 ° 0 min 0 W/m² 1,3 °C 2,5 °C 0,0 km/h (0 Bft)
27.03.2025 22:05 21,5 °C 2,4 °C 48 % 92 % 1019,5 hPa 0,0 l/m² 0,0 km/h (0 Bft) O 94 ° 0 min 0 W/m² 1,2 °C 2,4 °C 0,0 km/h (0 Bft)
27.03.2025 22:06 21,5 °C 2,4 °C 48 % 92 % 1019,6 hPa 0,0 l/m² 0,0 km/h (0 Bft) O 94 ° 0 min 0 W/m² 1,2 °C 2,4 °C 0,0 km/h (0 Bft)
27.03.2025 22:07 21,6 °C 2,4 °C 48 % 92 % 1019,6 hPa 0,0 l/m² 0,0 km/h (0 Bft) O 94 ° 0 min 0 W/m² 1,2 °C 2,4 °C 0,0 km/h (0 Bft)
27.03.2025 22:08 21,6 °C 2,3 °C 48 % 92 % 1019,6 hPa 0,0 l/m² 0,0 km/h (0 Bft) O 94 ° 0 min 0 W/m² 1,1 °C 2,3 °C 0,0 km/h (0 Bft)
27.03.2025 22:09 21,6 °C 2,3 °C 48 % 92 % 1019,6 hPa 0,0 l/m² 0,0 km/h (0 Bft) O 94 ° 0 min 0 W/m² 1,1 °C 2,3 °C 0,0 km/h (0 Bft)
27.03.2025 22:10 21,6 °C 2,3 °C 48 % 92 % 1019,6 hPa 0,0 l/m² 0,0 km/h (0 Bft) O 94 ° 0 min 0 W/m² 1,1 °C 2,3 °C 0,0 km/h (0 Bft)
27.03.2025 22:11 21,6 °C 2,3 °C 48 % 92 % 1019,5 hPa 0,0 l/m² 0,0 km/h (0 Bft) O 94 ° 0 min 0 W/m² 1,1 °C 2,3 °C 0,0 km/h (0 Bft)
27.03.2025 22:12 21,6 °C 2,3 °C 48 % 92 % 1019,5 hPa 0,0 l/m² 0,0 km/h (0 Bft) O 94 ° 0 min 0 W/m² 1,1 °C 2,3 °C 0,0 km/h (0 Bft)
27.03.2025 22:13 21,6 °C 2,3 °C 48 % 92 % 1019,4 hPa 0,0 l/m² 0,0 km/h (0 Bft) O 94 ° 0 min 0 W/m² 1,1 °C 2,3 °C 0,0 km/h (0 Bft)
27.03.2025 22:14 21,6 °C 2,3 °C 48 % 92 % 1019,5 hPa 0,0 l/m² 0,0 km/h (0 Bft) O 94 ° 0 min 0 W/m² 1,1 °C 2,3 °C 0,0 km/h (0 Bft)
27.03.2025 22:15 21,6 °C 2,3 °C 48 % 92 % 1019,5 hPa 0,0 l/m² 0,0 km/h (0 Bft) O 94 ° 0 min 0 W/m² 1,1 °C 2,3 °C 0,0 km/h (0 Bft)
27.03.2025 22:16 21,6 °C 2,3 °C 48 % 92 % 1019,4 hPa 0,0 l/m² 0,0 km/h (0 Bft) O 94 ° 0 min 0 W/m² 1,1 °C 2,3 °C 0,0 km/h (0 Bft)
27.03.2025 22:17 21,6 °C 2,3 °C 48 % 92 % 1019,4 hPa 0,0 l/m² 0,0 km/h (0 Bft) O 94 ° 0 min 0 W/m² 1,1 °C 2,3 °C 0,0 km/h (0 Bft)
27.03.2025 22:18 21,6 °C 2,2 °C 48 % 92 % 1019,3 hPa 0,0 l/m² 0,0 km/h (0 Bft) O 94 ° 0 min 0 W/m² 1,0 °C 2,2 °C 0,0 km/h (0 Bft)
27.03.2025 22:19 21,6 °C 2,2 °C 48 % 92 % 1019,4 hPa 0,0 l/m² 0,0 km/h (0 Bft) O 94 ° 0 min 0 W/m² 1,0 °C 2,2 °C 0,0 km/h (0 Bft)
27.03.2025 22:20 21,6 °C 2,2 °C 48 % 92 % 1019,3 hPa 0,0 l/m² 0,0 km/h (0 Bft) O 94 ° 0 min 0 W/m² 1,0 °C 2,2 °C 0,0 km/h (0 Bft)
27.03.2025 22:21 21,6 °C 2,2 °C 48 % 92 % 1019,3 hPa 0,0 l/m² 0,0 km/h (0 Bft) O 94 ° 0 min 0 W/m² 1,0 °C 2,2 °C 0,0 km/h (0 Bft)
27.03.2025 22:22 21,6 °C 2,2 °C 48 % 92 % 1019,3 hPa 0,0 l/m² 0,0 km/h (0 Bft) O 94 ° 0 min 0 W/m² 1,0 °C 2,2 °C 0,0 km/h (0 Bft)
27.03.2025 22:23 21,6 °C 2,1 °C 48 % 92 % 1019,3 hPa 0,0 l/m² 0,0 km/h (0 Bft) O 94 ° 0 min 0 W/m² 0,9 °C 2,1 °C 0,0 km/h (0 Bft)
27.03.2025 22:24 21,6 °C 2,1 °C 48 % 92 % 1019,3 hPa 0,0 l/m² 0,0 km/h (0 Bft) O 94 ° 0 min 0 W/m² 0,9 °C 2,1 °C 0,0 km/h (0 Bft)
27.03.2025 22:25 21,6 °C 2,1 °C 48 % 92 % 1019,3 hPa 0,0 l/m² 0,0 km/h (0 Bft) O 94 ° 0 min 0 W/m² 0,9 °C 2,1 °C 0,0 km/h (0 Bft)
27.03.2025 22:26 21,6 °C 2,2 °C 48 % 92 % 1019,2 hPa 0,0 l/m² 0,0 km/h (0 Bft) O 94 ° 0 min 0 W/m² 1,0 °C 2,2 °C 0,0 km/h (0 Bft)
27.03.2025 22:27 21,7 °C 2,2 °C 48 % 92 % 1019,2 hPa 0,0 l/m² 0,0 km/h (0 Bft) O 94 ° 0 min 0 W/m² 1,0 °C 2,2 °C 0,0 km/h (0 Bft)
27.03.2025 22:28 21,6 °C 2,1 °C 48 % 92 % 1019,2 hPa 0,0 l/m² 0,0 km/h (0 Bft) O 94 ° 0 min 0 W/m² 0,9 °C 2,1 °C 0,0 km/h (0 Bft)
27.03.2025 22:29 21,6 °C 2,1 °C 48 % 92 % 1019,2 hPa 0,0 l/m² 0,0 km/h (0 Bft) O 94 ° 0 min 0 W/m² 0,9 °C 2,1 °C 0,0 km/h (0 Bft)
27.03.2025 22:30 21,7 °C 2,1 °C 48 % 92 % 1019,2 hPa 0,0 l/m² 0,0 km/h (0 Bft) O 94 ° 0 min 0 W/m² 0,9 °C 2,1 °C 0,0 km/h (0 Bft)
27.03.2025 22:31 21,7 °C 2,0 °C 48 % 92 % 1019,2 hPa 0,0 l/m² 0,0 km/h (0 Bft) O 94 ° 0 min 0 W/m² 0,8 °C 2,0 °C 0,0 km/h (0 Bft)
27.03.2025 22:32 21,7 °C 2,0 °C 48 % 92 % 1019,2 hPa 0,0 l/m² 0,0 km/h (0 Bft) O 94 ° 0 min 0 W/m² 0,8 °C 2,0 °C 0,0 km/h (0 Bft)
27.03.2025 22:33 21,7 °C 2,0 °C 48 % 93 % 1019,2 hPa 0,0 l/m² 0,0 km/h (0 Bft) O 94 ° 0 min 0 W/m² 1,0 °C 2,0 °C 0,0 km/h (0 Bft)
27.03.2025 22:34 21,7 °C 2,0 °C 48 % 93 % 1019,1 hPa 0,0 l/m² 0,0 km/h (0 Bft) O 94 ° 0 min 0 W/m² 1,0 °C 2,0 °C 0,0 km/h (0 Bft)
27.03.2025 22:35 21,7 °C 2,1 °C 48 % 93 % 1019,2 hPa 0,0 l/m² 0,0 km/h (0 Bft) O 94 ° 0 min 0 W/m² 1,1 °C 2,1 °C 0,0 km/h (0 Bft)
27.03.2025 22:36 21,7 °C 2,1 °C 48 % 93 % 1019,2 hPa 0,0 l/m² 0,0 km/h (0 Bft) O 94 ° 0 min 0 W/m² 1,1 °C 2,1 °C 0,0 km/h (0 Bft)
27.03.2025 22:37 21,7 °C 2,0 °C 48 % 92 % 1019,2 hPa 0,0 l/m² 0,0 km/h (0 Bft) O 94 ° 0 min 0 W/m² 0,8 °C 2,0 °C 0,0 km/h (0 Bft)
27.03.2025 22:38 21,7 °C 2,0 °C 48 % 93 % 1019,3 hPa 0,0 l/m² 0,0 km/h (0 Bft) O 94 ° 0 min 0 W/m² 1,0 °C 2,0 °C 0,0 km/h (0 Bft)
27.03.2025 22:39 21,7 °C 1,9 °C 48 % 93 % 1019,2 hPa 0,0 l/m² 0,0 km/h (0 Bft) O 94 ° 0 min 0 W/m² 0,9 °C 1,9 °C 0,0 km/h (0 Bft)
27.03.2025 22:40 21,7 °C 1,9 °C 48 % 93 % 1019,2 hPa 0,0 l/m² 0,0 km/h (0 Bft) O 94 ° 0 min 0 W/m² 0,9 °C 1,9 °C 0,0 km/h (0 Bft)
27.03.2025 22:41 21,7 °C 1,8 °C 48 % 92 % 1019,2 hPa 0,0 l/m² 0,0 km/h (0 Bft) O 94 ° 0 min 0 W/m² 0,6 °C 1,8 °C 0,0 km/h (0 Bft)
27.03.2025 22:42 21,7 °C 1,8 °C 48 % 92 % 1019,3 hPa 0,0 l/m² 0,0 km/h (0 Bft) O 94 ° 0 min 0 W/m² 0,6 °C 1,8 °C 0,0 km/h (0 Bft)
27.03.2025 22:43 21,7 °C 1,8 °C 48 % 92 % 1019,2 hPa 0,0 l/m² 0,0 km/h (0 Bft) O 94 ° 0 min 0 W/m² 0,6 °C 1,8 °C 0,0 km/h (0 Bft)
27.03.2025 22:44 21,7 °C 1,7 °C 48 % 92 % 1019,2 hPa 0,0 l/m² 0,0 km/h (0 Bft) O 94 ° 0 min 0 W/m² 0,5 °C 1,7 °C 0,0 km/h (0 Bft)
27.03.2025 22:45 21,7 °C 1,7 °C 48 % 92 % 1019,2 hPa 0,0 l/m² 0,0 km/h (0 Bft) O 94 ° 0 min 0 W/m² 0,5 °C 1,7 °C 0,0 km/h (0 Bft)
27.03.2025 22:46 21,7 °C 1,6 °C 48 % 92 % 1019,1 hPa 0,0 l/m² 0,0 km/h (0 Bft) O 94 ° 0 min 0 W/m² 0,4 °C 1,6 °C 0,0 km/h (0 Bft)
27.03.2025 22:47 21,7 °C 1,6 °C 48 % 92 % 1019,2 hPa 0,0 l/m² 0,0 km/h (0 Bft) O 94 ° 0 min 0 W/m² 0,4 °C 1,6 °C 0,0 km/h (0 Bft)
27.03.2025 22:48 21,7 °C 1,6 °C 48 % 92 % 1019,2 hPa 0,0 l/m² 0,0 km/h (0 Bft) O 94 ° 0 min 0 W/m² 0,4 °C 1,6 °C 0,0 km/h (0 Bft)
27.03.2025 22:49 21,7 °C 1,5 °C 48 % 92 % 1019,2 hPa 0,0 l/m² 0,0 km/h (0 Bft) O 94 ° 0 min 0 W/m² 0,3 °C 1,5 °C 0,0 km/h (0 Bft)
27.03.2025 22:50 21,7 °C 1,5 °C 48 % 92 % 1019,2 hPa 0,0 l/m² 0,0 km/h (0 Bft) O 94 ° 0 min 0 W/m² 0,3 °C 1,5 °C 0,0 km/h (0 Bft)
27.03.2025 22:51 21,7 °C 1,5 °C 48 % 93 % 1019,2 hPa 0,0 l/m² 0,0 km/h (0 Bft) O 94 ° 0 min 0 W/m² 0,5 °C 1,5 °C 0,0 km/h (0 Bft)
27.03.2025 22:52 21,7 °C 1,6 °C 48 % 93 % 1019,1 hPa 0,0 l/m² 0,0 km/h (0 Bft) O 94 ° 0 min 0 W/m² 0,6 °C 1,6 °C 0,0 km/h (0 Bft)
27.03.2025 22:53 21,7 °C 1,6 °C 48 % 93 % 1019,1 hPa 0,0 l/m² 0,0 km/h (0 Bft) O 94 ° 0 min 0 W/m² 0,6 °C 1,6 °C 0,0 km/h (0 Bft)
27.03.2025 22:54 21,7 °C 1,6 °C 48 % 93 % 1019,0 hPa 0,0 l/m² 0,0 km/h (0 Bft) O 94 ° 0 min 0 W/m² 0,6 °C 1,6 °C 0,0 km/h (0 Bft)
27.03.2025 22:55 21,7 °C 1,6 °C 48 % 93 % 1019,1 hPa 0,0 l/m² 0,0 km/h (0 Bft) O 94 ° 0 min 0 W/m² 0,6 °C 1,6 °C 0,0 km/h (0 Bft)
27.03.2025 22:56 21,7 °C 1,6 °C 48 % 93 % 1019,1 hPa 0,0 l/m² 0,0 km/h (0 Bft) O 94 ° 0 min 0 W/m² 0,6 °C 1,6 °C 0,0 km/h (0 Bft)
27.03.2025 22:57 21,7 °C 1,6 °C 48 % 93 % 1019,0 hPa 0,0 l/m² 0,0 km/h (0 Bft) O 94 ° 0 min 0 W/m² 0,6 °C 1,6 °C 0,0 km/h (0 Bft)
27.03.2025 22:58 21,7 °C 1,6 °C 48 % 93 % 1019,1 hPa 0,0 l/m² 0,0 km/h (0 Bft) O 94 ° 0 min 0 W/m² 0,6 °C 1,6 °C 0,0 km/h (0 Bft)
27.03.2025 22:59 21,7 °C 1,6 °C 48 % 93 % 1019,1 hPa 0,0 l/m² 0,0 km/h (0 Bft) O 94 ° 0 min 0 W/m² 0,6 °C 1,6 °C 0,0 km/h (0 Bft)
27.03.2025 23:00 21,7 °C 1,6 °C 48 % 93 % 1019,0 hPa 0,0 l/m² 0,0 km/h (0 Bft) O 94 ° 0 min 0 W/m² 0,6 °C 1,6 °C 0,0 km/h (0 Bft)
27.03.2025 23:01 21,6 °C 1,5 °C 48 % 93 % 1019,1 hPa 0,0 l/m² 0,0 km/h (0 Bft) O 94 ° 0 min 0 W/m² 0,5 °C 1,5 °C 0,0 km/h (0 Bft)
27.03.2025 23:02 21,7 °C 1,5 °C 48 % 93 % 1019,1 hPa 0,0 l/m² 0,0 km/h (0 Bft) O 94 ° 0 min 0 W/m² 0,5 °C 1,5 °C 0,0 km/h (0 Bft)
27.03.2025 23:03 21,7 °C 1,4 °C 48 % 93 % 1019,1 hPa 0,0 l/m² 0,0 km/h (0 Bft) O 94 ° 0 min 0 W/m² 0,4 °C 1,4 °C 0,0 km/h (0 Bft)
27.03.2025 23:04 21,6 °C 1,4 °C 48 % 93 % 1019,0 hPa 0,0 l/m² 0,0 km/h (0 Bft) O 94 ° 0 min 0 W/m² 0,4 °C 1,4 °C 0,0 km/h (0 Bft)
27.03.2025 23:05 21,7 °C 1,4 °C 48 % 93 % 1019,0 hPa 0,0 l/m² 0,0 km/h (0 Bft) O 94 ° 0 min 0 W/m² 0,4 °C 1,4 °C 0,0 km/h (0 Bft)
27.03.2025 23:06 21,6 °C 1,3 °C 48 % 93 % 1019,1 hPa 0,0 l/m² 0,0 km/h (0 Bft) O 94 ° 0 min 0 W/m² 0,3 °C 1,3 °C 0,0 km/h (0 Bft)
27.03.2025 23:07 21,6 °C 1,3 °C 48 % 93 % 1019,1 hPa 0,0 l/m² 0,0 km/h (0 Bft) O 94 ° 0 min 0 W/m² 0,3 °C 1,3 °C 0,0 km/h (0 Bft)
27.03.2025 23:08 21,6 °C 1,3 °C 48 % 93 % 1019,1 hPa 0,0 l/m² 0,0 km/h (0 Bft) O 94 ° 0 min 0 W/m² 0,3 °C 1,3 °C 0,0 km/h (0 Bft)
27.03.2025 23:09 21,6 °C 1,3 °C 48 % 93 % 1019,0 hPa 0,0 l/m² 0,0 km/h (0 Bft) O 94 ° 0 min 0 W/m² 0,3 °C 1,3 °C 0,0 km/h (0 Bft)
27.03.2025 23:10 21,6 °C 1,4 °C 48 % 93 % 1019,1 hPa 0,0 l/m² 0,0 km/h (0 Bft) O 94 ° 0 min 0 W/m² 0,4 °C 1,4 °C 0,0 km/h (0 Bft)
27.03.2025 23:11 21,6 °C 1,4 °C 48 % 93 % 1019,1 hPa 0,0 l/m² 0,0 km/h (0 Bft) O 94 ° 0 min 0 W/m² 0,4 °C 1,4 °C 0,0 km/h (0 Bft)
27.03.2025 23:12 21,6 °C 1,4 °C 48 % 93 % 1019,1 hPa 0,0 l/m² 0,0 km/h (0 Bft) O 94 ° 0 min 0 W/m² 0,4 °C 1,4 °C 0,0 km/h (0 Bft)
27.03.2025 23:13 21,7 °C 1,4 °C 48 % 93 % 1019,1 hPa 0,0 l/m² 0,0 km/h (0 Bft) O 94 ° 0 min 0 W/m² 0,4 °C 1,4 °C 0,0 km/h (0 Bft)
27.03.2025 23:14 21,6 °C 1,4 °C 48 % 93 % 1019,1 hPa 0,0 l/m² 0,0 km/h (0 Bft) O 94 ° 0 min 0 W/m² 0,4 °C 1,4 °C 0,0 km/h (0 Bft)
27.03.2025 23:15 21,7 °C 1,4 °C 48 % 93 % 1019,1 hPa 0,0 l/m² 0,0 km/h (0 Bft) O 94 ° 0 min 0 W/m² 0,4 °C 1,4 °C 0,0 km/h (0 Bft)
27.03.2025 23:16 21,6 °C 1,4 °C 48 % 93 % 1019,1 hPa 0,0 l/m² 0,0 km/h (0 Bft) N 0 ° 0 min 0 W/m² 0,4 °C 1,4 °C 0,0 km/h (0 Bft)
27.03.2025 23:17 21,7 °C 1,3 °C 48 % 93 % 1019,0 hPa 0,0 l/m² 0,0 km/h (0 Bft) N 0 ° 0 min 0 W/m² 0,3 °C 1,3 °C 0,0 km/h (0 Bft)
27.03.2025 23:18 21,6 °C 1,3 °C 48 % 93 % 1019,1 hPa 0,0 l/m² 0,0 km/h (0 Bft) N 0 ° 0 min 0 W/m² 0,3 °C 1,3 °C 0,0 km/h (0 Bft)
27.03.2025 23:19 21,6 °C 1,2 °C 48 % 93 % 1019,0 hPa 0,0 l/m² 0,0 km/h (0 Bft) N 0 ° 0 min 0 W/m² 0,2 °C 1,2 °C 0,0 km/h (0 Bft)
27.03.2025 23:20 21,6 °C 1,2 °C 48 % 93 % 1019,0 hPa 0,0 l/m² 0,0 km/h (0 Bft) N 0 ° 0 min 0 W/m² 0,2 °C 1,2 °C 0,0 km/h (0 Bft)
27.03.2025 23:26 21,6 °C 0,9 °C 48 % 93 % 1019,0 hPa 0,0 l/m² 0,0 km/h (0 Bft) O 94 ° 0 min 0 W/m² -0,1 °C 0,9 °C 0,0 km/h (0 Bft)
27.03.2025 23:28 21,6 °C 0,8 °C 48 % 93 % 1019,0 hPa 0,0 l/m² 0,0 km/h (0 Bft) O 94 ° 0 min 0 W/m² -0,2 °C 0,8 °C 0,0 km/h (0 Bft)
27.03.2025 23:29 21,6 °C 0,8 °C 48 % 93 % 1019,0 hPa 0,0 l/m² 0,0 km/h (0 Bft) O 94 ° 0 min 0 W/m² -0,2 °C 0,8 °C 0,0 km/h (0 Bft)
27.03.2025 23:31 21,6 °C 0,8 °C 48 % 93 % 1019,0 hPa 0,0 l/m² 0,0 km/h (0 Bft) O 94 ° 0 min 0 W/m² -0,2 °C 0,8 °C 0,0 km/h (0 Bft)
27.03.2025 23:32 21,6 °C 0,8 °C 48 % 93 % 1019,0 hPa 0,0 l/m² 0,0 km/h (0 Bft) O 94 ° 0 min 0 W/m² -0,2 °C 0,8 °C 0,0 km/h (0 Bft)
27.03.2025 23:34 21,6 °C 0,8 °C 48 % 93 % 1019,0 hPa 0,0 l/m² 0,0 km/h (0 Bft) O 94 ° 0 min 0 W/m² -0,2 °C 0,8 °C 0,0 km/h (0 Bft)
27.03.2025 23:36 21,6 °C 0,7 °C 48 % 93 % 1019,0 hPa 0,0 l/m² 0,0 km/h (0 Bft) O 94 ° 0 min 0 W/m² -0,3 °C 0,7 °C 0,0 km/h (0 Bft)
27.03.2025 23:38 21,6 °C 0,6 °C 48 % 93 % 1019,0 hPa 0,0 l/m² 0,0 km/h (0 Bft) O 94 ° 0 min 0 W/m² -0,4 °C 0,6 °C 0,0 km/h (0 Bft)
27.03.2025 23:40 21,6 °C 0,6 °C 48 % 93 % 1018,9 hPa 0,0 l/m² 0,0 km/h (0 Bft) O 94 ° 0 min 0 W/m² -0,4 °C 0,6 °C 0,0 km/h (0 Bft)
27.03.2025 23:41 21,6 °C 0,6 °C 48 % 93 % 1018,9 hPa 0,0 l/m² 0,0 km/h (0 Bft) O 94 ° 0 min 0 W/m² -0,4 °C 0,6 °C 0,0 km/h (0 Bft)
27.03.2025 23:42 21,6 °C 0,6 °C 48 % 93 % 1018,9 hPa 0,0 l/m² 0,0 km/h (0 Bft) O 94 ° 0 min 0 W/m² -0,4 °C 0,6 °C 0,0 km/h (0 Bft)
27.03.2025 23:44 21,6 °C 0,6 °C 48 % 93 % 1018,9 hPa 0,0 l/m² 0,0 km/h (0 Bft) O 94 ° 0 min 0 W/m² -0,4 °C 0,6 °C 0,0 km/h (0 Bft)
27.03.2025 23:46 21,6 °C 0,5 °C 48 % 93 % 1018,9 hPa 0,0 l/m² 0,0 km/h (0 Bft) O 94 ° 0 min 0 W/m² -0,5 °C 0,5 °C 0,0 km/h (0 Bft)
27.03.2025 23:48 21,6 °C 0,4 °C 48 % 93 % 1018,9 hPa 0,0 l/m² 0,0 km/h (0 Bft) O 94 ° 0 min 0 W/m² -0,6 °C 0,4 °C 0,0 km/h (0 Bft)
27.03.2025 23:50 21,6 °C 0,4 °C 48 % 93 % 1018,9 hPa 0,0 l/m² 0,0 km/h (0 Bft) O 94 ° 0 min 0 W/m² -0,6 °C 0,4 °C 0,0 km/h (0 Bft)
27.03.2025 23:51 21,6 °C 0,5 °C 48 % 93 % 1018,9 hPa 0,0 l/m² 0,0 km/h (0 Bft) O 94 ° 0 min 0 W/m² -0,5 °C 0,5 °C 0,0 km/h (0 Bft)
27.03.2025 23:52 21,6 °C 0,5 °C 48 % 93 % 1018,9 hPa 0,0 l/m² 0,0 km/h (0 Bft) O 94 ° 0 min 0 W/m² -0,5 °C 0,5 °C 0,0 km/h (0 Bft)
27.03.2025 23:54 21,6 °C 0,6 °C 48 % 93 % 1018,8 hPa 0,0 l/m² 0,0 km/h (0 Bft) O 94 ° 0 min 0 W/m² -0,4 °C 0,6 °C 0,0 km/h (0 Bft)
27.03.2025 23:56 21,6 °C 0,7 °C 48 % 93 % 1018,8 hPa 0,0 l/m² 0,0 km/h (0 Bft) O 94 ° 0 min 0 W/m² -0,3 °C 0,7 °C 0,0 km/h (0 Bft)
27.03.2025 23:58 21,6 °C 0,7 °C 48 % 94 % 1018,8 hPa 0,0 l/m² 0,0 km/h (0 Bft) O 94 ° 0 min 0 W/m² -0,2 °C 0,7 °C 0,0 km/h (0 Bft)
_ Min-Zeit 21:56 23:50 18:28 16:13 23:58 - 23:58 - - - - 23:50 00:54 23:58
Minimum _ 21,4 °C 0,4 °C 44 % 64 % 1018,8 hPa - 0,0 km/h (0 Bft) - - - - -0,6 °C 0,1 °C 0,0 km/h (0 Bft)
_ Max-Zeit 14:15 15:26 23:58 23:58 10:13 23:58 00:54 - - 15:47 11:37 12:43 15:26 02:30
Maximum _ 21,8 °C 13,4 °C 48 % 94 % 1023,6 hPa 0,0 l/m² 14,4 km/h
NW (3 Bft)
- - 3 min 475 W/m² 8,2 °C 13,4 °C 20,9 km/h
W-NW (4 Bft)
Durchschnitt _ 21,5 °C 6,5 °C 46 % 84 % 1021,5 hPa #0,0 l/m² 3,6 km/h (1 Bft) O - #9:29 h 93 W/m² 4,0 °C 6,1 °C 6,4 km/h (2 Bft)
© 2009 Mathias Hoßbach